GFSNGP_500_spd_000.txt.gz
Wind_Speed
23 23 22 21 21 20 17 21 19 18 19 24 26 20 20 24 27 30 32 35 39 43 47 51 56 59 62 65 68 70 74 78 80 82 85 90 94 98 100 101 99 98 96 93
20 21 19 19 20 20 20 22 20 21 17 24 21 23 25 26 30 33 36 38 43 48 52 57 61 64 67 70 73 77 80 81 84 88 92 96 99 98 97 95 94 92 88 81
28 23 21 23 21 21 21 21 20 16 17 19 21 24 28 31 33 37 41 46 51 55 60 64 66 69 71 74 76 78 82 87 90 94 96 96 93 90 89 85 80 74 72 72
18 17 21 21 23 22 22 21 17 17 21 23 26 28 31 36 40 44 49 54 58 60 62 64 66 70 72 74 77 82 87 91 94 96 92 87 84 80 74 71 68 66 64 64
18 19 20 21 21 19 19 21 22 22 24 28 31 34 38 43 47 50 54 57 59 60 62 66 69 71 73 77 82 87 91 95 94 87 82 77 72 69 67 65 64 65 66 68
20 20 19 19 19 19 22 24 24 28 30 34 37 41 44 48 52 54 57 58 60 63 66 68 70 73 78 84 87 92 94 88 81 76 73 70 68 66 65 66 68 70 72 77
16 16 17 18 19 22 24 26 30 34 36 40 42 46 50 53 56 59 60 62 65 68 69 70 74 81 85 88 92 90 81 75 72 71 69 69 67 69 69 71 74 77 80 83
18 18 20 19 23 27 28 31 34 37 41 44 48 52 55 58 60 61 63 65 68 69 71 76 82 85 89 93 90 79 74 71 69 68 69 70 70 72 75 78 81 84 87 91
22 23 23 27 29 30 34 37 40 43 47 50 53 56 58 60 62 64 67 70 71 71 75 82 86 90 91 86 78 71 68 68 68 68 70 73 75 77 80 85 90 93 95 96
27 28 32 34 35 38 39 41 44 47 49 51 53 56 59 62 64 67 70 72 73 75 82 87 91 90 85 78 70 67 68 69 69 70 72 75 79 85 89 93 96 98 98 95
30 32 37 38 41 42 44 46 48 50 51 52 54 57 61 64 67 70 72 72 76 82 86 90 88 81 74 70 68 67 68 69 70 73 78 83 86 90 93 93 94 91 85 80
32 36 37 40 44 47 49 52 53 54 55 57 58 60 63 66 70 71 72 75 81 85 88 86 79 70 68 67 67 68 70 73 78 83 86 89 91 90 85 78 71 69 63 59
39 41 43 44 47 49 52 54 56 58 60 60 61 63 66 68 69 71 75 80 84 86 84 78 70 66 65 65 67 70 75 79 83 88 90 89 85 80 71 60 60 55 52 48
44 47 48 49 51 54 57 58 59 60 60 60 62 65 68 69 72 76 80 84 84 80 76 69 65 62 62 64 68 73 79 84 87 86 83 76 68 62 64 57 46 41 45 46
48 50 53 56 59 60 61 61 59 57 57 60 64 67 69 72 77 81 84 85 81 73 68 63 60 60 62 66 71 78 82 85 82 75 68 64 63 61 55 48 46 45 45 39
54 57 59 61 63 62 57 53 53 56 59 62 65 68 71 75 79 82 82 76 67 64 61 59 58 59 63 69 75 79 83 79 73 70 66 65 63 55 49 48 50 50 44 38
59 62 61 60 55 51 51 53 55 57 60 63 65 69 73 78 80 79 74 68 63 61 58 56 57 61 66 73 78 81 80 73 71 69 65 60 53 50 50 51 50 45 39 35
57 54 50 48 49 52 54 55 56 59 61 63 67 73 77 78 78 74 68 62 58 57 56 58 60 63 69 75 78 81 76 69 65 61 56 53 53 54 53 51 47 43 40 37
47 47 48 50 51 52 53 55 56 59 62 67 72 75 79 80 76 67 59 57 56 55 56 58 61 65 71 76 80 78 71 63 62 59 58 56 55 54 51 48 44 42 37 34
47 48 49 50 51 52 54 56 59 62 67 72 76 79 81 74 65 57 55 54 56 56 57 59 63 67 72 76 79 74 68 61 60 57 58 57 53 49 46 44 40 37 36 33
49 50 51 51 52 55 57 60 63 67 71 75 78 76 68 61 56 54 53 53 56 58 59 62 66 70 74 77 76 68 63 59 58 56 56 54 49 46 43 40 37 38 35 29
52 52 53 56 58 60 61 63 67 70 73 74 69 63 59 54 53 52 54 55 56 59 60 63 68 73 76 77 72 65 60 57 56 56 55 51 48 46 42 39 36 34 29 23
53 55 57 58 59 61 64 67 70 72 71 66 60 56 53 52 52 53 53 57 59 60 62 66 71 75 78 76 67 62 57 55 55 55 53 50 49 44 41 38 34 29 24 23
56 57 59 61 62 64 67 71 73 70 65 58 53 52 51 52 52 55 56 58 60 62 65 70 73 77 78 70 63 59 54 53 54 53 52 49 44 42 42 40 32 24 19 17
58 59 59 60 63 67 70 70 65 59 54 51 51 52 53 54 53 55 58 60 61 65 68 72 77 79 73 65 60 55 52 53 53 52 46 45 44 40 35 31 25 18 17 13
54 55 58 63 66 68 66 60 55 52 50 50 51 53 52 54 56 59 60 62 65 67 71 75 79 75 66 59 56 52 52 52 51 46 44 40 35 33 30 25 17 14 13 12
56 60 64 67 66 61 55 51 49 49 50 50 50 51 53 56 58 59 62 65 67 72 76 79 75 67 59 55 52 50 50 50 46 42 36 32 31 28 23 17 13 11 10 12

GFSNGP_500_spd_003.txt.gz
Wind_Speed
28 27 29 26 25 24 22 21 24 21 24 29 29 24 22 24 25 27 28 29 32 36 38 42 46 50 54 58 61 65 68 70 72 73 74 77 84 90 95 99 103 103 99 96
28 30 28 27 26 26 25 25 24 25 28 33 27 24 25 26 28 28 32 34 37 40 44 48 51 54 58 61 64 66 68 68 70 74 80 86 91 96 101 104 101 95 90 87
26 27 29 31 27 25 25 26 26 28 26 24 25 29 27 28 31 34 36 39 42 45 48 52 55 57 61 64 67 68 70 73 77 82 88 93 99 103 103 97 90 86 82 79
26 27 31 27 27 29 28 26 25 20 21 26 28 29 32 33 36 38 41 43 47 50 53 57 60 62 65 67 70 72 74 79 84 88 95 100 102 100 93 86 82 81 78 75
31 33 34 31 26 25 24 22 21 23 24 26 28 30 35 36 40 43 46 48 51 55 57 59 62 65 68 71 73 75 79 85 91 97 101 100 92 84 80 77 75 75 76 76
21 19 20 24 23 24 25 26 22 24 26 28 31 33 36 40 43 46 49 51 54 56 60 62 65 68 71 73 75 79 86 92 98 100 95 87 81 77 74 75 76 77 77 81
23 24 24 23 24 26 27 21 24 26 29 31 34 37 40 43 47 49 51 54 57 59 62 65 67 69 71 74 78 84 90 96 95 88 80 75 72 72 74 77 80 84 87 90
23 20 18 19 21 24 23 25 27 30 33 36 39 42 45 48 51 53 55 57 58 60 63 66 68 71 74 79 84 90 94 90 83 76 71 69 71 76 82 87 91 94 95 93
21 20 20 22 24 25 27 29 32 35 38 42 45 48 50 52 54 55 57 59 61 63 65 68 71 75 79 84 89 91 87 81 74 67 67 71 78 84 89 92 94 93 89 81
25 24 25 27 29 31 33 36 38 41 44 47 50 52 54 56 57 58 60 60 62 65 69 72 75 80 83 88 89 86 80 73 67 65 68 75 82 88 91 91 86 79 73 70
26 29 31 33 35 37 38 40 43 46 49 51 53 54 57 58 59 59 59 61 64 67 71 74 79 84 87 88 85 79 71 67 64 66 71 78 85 89 87 80 77 74 73 67
28 30 34 35 38 40 43 46 48 50 53 54 56 58 59 60 59 58 59 62 66 70 73 77 82 85 86 83 79 73 69 65 65 68 75 82 87 85 78 76 71 71 69 60
32 35 39 41 43 46 48 49 51 53 56 58 59 60 59 57 56 58 62 65 68 71 76 80 83 84 84 77 73 68 65 64 66 72 78 84 87 85 74 67 63 60 57 55
36 40 43 45 47 49 51 54 56 59 60 60 59 56 55 55 58 61 64 67 70 75 80 83 83 80 77 71 66 64 64 66 70 75 80 85 87 78 69 64 58 55 56 57
42 43 45 47 50 52 55 58 59 59 58 55 53 53 56 58 60 63 65 69 74 79 82 83 82 77 69 66 64 64 65 67 71 76 81 86 85 72 66 62 61 59 56 53
46 48 49 52 55 57 60 60 57 53 50 51 53 56 57 58 61 65 70 74 78 82 84 82 74 69 65 64 64 64 65 69 74 78 82 86 80 67 64 61 60 58 53 49
50 52 54 56 60 60 56 53 51 52 53 55 55 56 57 61 65 69 74 78 81 83 80 74 69 65 64 63 63 64 66 70 75 79 83 84 74 64 62 61 60 55 50 45
53 57 57 55 53 51 50 50 51 52 53 53 54 56 60 64 68 73 76 79 80 79 74 68 65 63 61 62 64 65 68 72 76 79 84 80 69 62 60 59 58 52 47 39
52 49 47 46 46 47 49 49 50 51 53 54 57 60 64 67 71 74 76 78 77 74 66 63 61 60 61 63 64 65 69 73 76 80 82 74 63 59 56 56 52 47 42 36
41 43 45 46 46 48 49 50 51 52 54 57 60 63 66 69 72 75 77 75 71 67 62 60 60 60 61 61 64 67 71 74 78 82 78 67 59 55 54 54 48 44 38 35
41 43 45 46 47 48 49 50 52 55 57 59 62 65 68 71 75 76 73 67 63 61 60 59 59 59 60 62 65 69 72 75 80 81 72 61 55 54 53 51 42 41 35 30
44 46 46 47 48 49 51 52 54 56 58 60 64 68 71 74 74 70 67 63 59 59 58 57 57 59 61 63 67 70 74 78 82 75 64 57 52 51 52 45 44 44 36 28
47 49 50 51 52 53 54 56 58 60 62 65 69 72 73 72 69 63 59 58 57 56 56 57 58 60 64 67 69 73 78 82 76 66 58 52 50 51 48 45 44 35 25 18
50 52 53 54 55 56 57 59 61 63 66 70 71 71 68 63 60 59 58 56 55 55 56 58 61 64 67 70 74 78 83 78 67 58 52 49 49 48 45 42 33 27 20 11
52 53 54 56 57 59 60 60 63 67 70 70 67 64 61 59 56 54 54 54 55 56 58 62 65 67 70 75 80 83 77 66 56 51 48 47 46 43 39 33 28 21 12 9
53 54 55 56 57 59 61 64 69 70 67 63 60 57 56 55 54 54 53 55 57 61 64 67 69 72 77 81 81 74 63 53 50 46 46 44 42 36 32 28 20 13 8 8
53 54 56 58 61 64 66 68 67 64 59 54 51 52 53 53 53 54 56 59 63 67 69 70 74 78 81 77 67 57 51 48 46 45 42 41 33 29 27 21 14 8 6 7

GFSNGP_500_spd_006.txt.gz
Wind_Speed
31 33 33 29 28 29 29 24 27 20 25 28 24 20 24 25 26 29 31 33 33 33 34 38 41 45 49 53 56 59 60 63 66 69 72 74 77 79 83 87 93 98 102 104
28 31 30 31 31 30 29 26 26 23 24 26 23 24 25 26 29 31 32 32 32 36 39 43 47 50 53 54 57 60 63 65 68 71 74 76 79 84 89 94 99 102 102 97
32 31 30 32 31 28 27 26 26 25 24 25 25 26 26 27 31 33 33 35 37 40 44 48 50 52 53 56 60 63 65 68 71 74 76 81 85 90 94 98 101 98 90 79
27 28 31 27 27 27 27 26 25 24 24 22 22 25 29 33 34 35 36 38 41 45 48 50 52 54 57 60 62 65 68 72 74 77 81 85 90 95 98 98 94 85 77 78
25 26 25 25 28 27 28 27 28 29 25 22 25 30 32 33 34 36 39 42 45 47 50 53 55 58 60 63 66 70 72 74 77 80 84 90 94 97 96 90 80 74 77 83
30 30 29 25 26 25 29 31 26 23 22 24 29 33 34 35 37 40 43 45 48 51 53 56 59 62 64 67 68 70 73 76 79 84 89 93 95 92 86 78 73 76 80 89
32 35 35 30 26 30 31 26 23 25 28 31 33 33 35 37 40 43 46 49 52 54 57 61 63 65 67 68 69 72 74 79 84 89 92 94 89 82 76 72 74 79 84 91
23 22 24 21 24 27 26 27 27 28 30 32 33 36 38 41 44 47 50 53 56 59 61 63 65 65 65 67 70 74 78 83 87 90 91 88 83 76 72 73 77 82 87 90
21 20 20 20 21 23 24 25 26 29 31 34 37 40 42 45 48 52 56 59 61 63 65 65 63 63 66 69 72 76 81 86 88 88 87 81 75 72 72 75 80 85 90 90
19 18 20 21 22 25 27 29 31 33 35 38 41 44 47 51 54 57 60 63 64 64 62 60 62 65 68 70 75 80 84 88 89 88 81 74 72 74 75 77 81 86 90 85
21 23 25 26 29 30 31 33 36 38 40 43 45 49 53 56 59 62 64 65 63 59 59 62 64 66 70 74 79 84 87 89 88 81 74 71 71 73 75 78 83 88 90 80
25 27 29 31 32 33 34 36 38 41 44 48 51 55 57 59 63 64 65 60 57 58 60 62 64 69 74 79 83 86 89 87 81 75 71 70 71 70 73 77 81 87 82 72
28 29 31 33 33 34 36 40 43 46 50 54 56 58 61 64 65 60 56 56 57 58 60 63 68 73 78 81 84 87 85 79 75 72 70 71 71 71 71 72 79 84 73 67
27 28 30 34 36 38 41 45 48 52 54 56 59 62 65 64 57 54 55 56 57 59 63 68 72 77 80 83 86 83 78 74 72 69 69 70 70 71 74 75 78 79 66 63
31 33 34 37 40 42 45 49 53 55 58 61 64 66 60 55 55 56 55 56 59 63 68 71 75 78 82 86 84 78 73 69 67 67 67 68 69 72 75 77 82 76 62 58
34 36 38 41 44 48 51 54 56 60 63 66 61 55 54 55 56 55 57 59 63 67 70 74 77 81 85 83 78 71 67 66 66 66 67 68 70 73 75 79 82 69 59 56
40 41 42 44 47 50 54 57 61 61 56 53 52 53 54 53 55 57 60 63 66 70 73 75 79 82 81 77 71 67 65 65 65 65 66 68 72 74 77 82 78 61 54 54
39 41 43 47 51 54 54 51 48 48 49 51 51 52 53 55 57 60 63 67 70 73 76 80 81 78 75 71 67 64 63 64 63 64 66 69 73 76 80 81 69 55 50 48
41 43 45 47 45 43 44 46 47 48 49 50 51 52 54 57 60 63 66 70 72 74 78 79 76 73 69 66 64 62 62 62 62 65 68 71 75 79 82 74 59 49 48 42
39 39 38 39 41 42 44 46 48 49 50 51 53 56 59 62 64 66 67 70 76 79 79 75 72 68 65 63 61 61 61 62 65 67 70 74 79 82 76 61 51 46 45 41
37 37 38 40 42 44 46 47 49 50 52 54 56 59 61 63 65 68 72 74 79 79 75 70 67 64 61 60 59 60 63 65 68 71 74 79 82 77 61 50 45 44 41 41
36 38 40 42 43 46 47 49 50 52 53 55 57 59 62 66 69 73 77 77 75 71 67 65 62 61 59 58 60 63 67 69 71 75 79 82 74 59 48 44 42 39 38 29
36 39 42 44 44 46 47 48 50 53 56 58 61 64 67 71 74 76 76 74 70 66 63 61 60 59 59 61 66 69 70 73 77 81 80 68 55 46 42 41 38 36 28 20
39 40 42 45 47 48 50 52 54 56 59 63 67 71 73 76 78 77 73 68 64 61 60 59 58 59 63 67 70 72 74 78 80 75 60 50 45 42 41 38 35 27 21 16
43 45 47 49 50 51 53 56 58 62 65 68 71 74 77 77 73 68 63 59 58 58 56 58 62 65 68 71 73 76 79 77 66 55 47 44 41 39 38 35 27 22 17 9
48 48 50 51 53 54 57 60 63 65 68 72 75 76 75 69 64 59 56 56 55 56 59 63 66 69 71 74 77 78 71 59 52 47 44 41 39 37 34 26 23 17 8 7
52 53 53 53 55 58 61 63 65 69 72 74 74 70 65 59 55 54 53 54 57 61 65 68 70 72 76 78 72 61 55 50 47 43 40 39 36 30 24 21 16 5 7 10

GFSNGP_500_spd_009.txt.gz
Wind_Speed
36 35 35 35 33 33 32 27 29 19 24 26 26 25 23 24 25 25 26 28 30 31 30 30 34 38 42 45 50 53 56 59 62 63 66 68 70 72 76 79 82 86 90 94
35 35 36 32 32 34 32 31 28 23 23 24 24 24 24 25 24 27 29 30 29 29 32 36 40 43 47 50 53 56 59 61 63 66 69 70 72 76 78 81 85 90 92 95
26 28 30 36 30 30 29 28 25 25 19 26 24 23 24 26 27 29 30 30 32 34 37 40 43 46 49 53 57 59 62 65 66 68 70 72 75 77 80 85 88 92 95 95
27 27 27 24 26 27 27 27 26 23 22 24 24 24 25 26 26 28 30 33 34 36 39 42 46 50 54 57 60 62 65 67 67 69 71 74 77 80 84 87 90 93 93 89
28 27 23 22 22 23 24 25 26 24 24 26 26 25 26 26 29 31 34 34 36 39 42 47 51 55 58 60 63 65 67 67 68 70 72 75 79 83 86 88 91 89 87 84
22 26 26 19 18 19 22 24 24 24 28 31 32 29 27 29 32 34 34 36 38 43 47 51 55 58 61 64 66 66 66 67 69 71 74 78 82 84 86 89 88 86 82 79
30 25 24 23 22 24 23 23 27 28 31 27 23 26 30 33 35 35 37 40 44 48 52 56 59 63 65 66 65 65 66 67 70 72 77 81 83 85 87 88 85 80 76 76
23 26 25 24 29 30 31 29 28 29 27 27 30 33 34 35 36 39 41 45 49 53 56 60 64 66 67 66 64 64 66 68 71 76 80 82 84 87 87 85 80 75 73 71
19 19 20 20 24 24 25 29 29 30 30 30 30 31 33 36 39 43 47 50 53 56 60 64 67 67 66 63 64 66 66 69 74 78 80 85 87 87 84 79 75 72 72 72
17 17 19 19 20 21 23 25 24 25 26 28 30 33 37 41 45 48 50 54 58 61 65 67 68 65 62 63 65 65 68 72 76 78 82 86 87 85 79 74 71 71 72 73
18 20 22 23 24 25 25 25 27 28 31 33 35 39 42 45 47 50 54 58 61 66 68 69 65 62 63 63 64 68 72 75 78 82 85 85 83 80 75 70 71 72 73 76
20 21 23 25 27 28 29 31 32 34 36 38 39 42 45 47 51 55 58 63 66 69 68 62 61 62 62 65 68 71 75 78 82 86 86 85 81 73 68 68 69 71 74 76
25 23 24 26 29 31 32 33 35 36 38 41 43 45 47 51 56 60 64 67 69 63 59 59 60 62 64 67 70 74 78 83 87 88 87 83 76 69 65 64 67 70 73 75
30 30 30 29 30 31 31 33 36 38 40 42 45 49 53 57 61 65 66 60 56 56 57 59 61 63 66 69 73 77 82 87 89 88 84 77 71 67 66 65 65 67 70 74
34 33 32 31 32 33 34 36 37 39 43 46 49 53 57 60 60 55 53 53 54 56 57 59 63 67 70 73 76 82 85 87 86 83 77 70 67 65 65 66 68 69 69 75
32 32 32 33 34 34 36 39 42 43 46 50 53 55 53 50 50 50 50 52 54 56 60 64 68 70 74 77 82 86 87 86 80 74 69 65 64 65 66 67 70 71 75 78
29 31 32 34 37 38 38 40 43 47 50 50 48 46 47 47 48 49 51 53 57 61 64 67 70 74 78 83 86 86 83 78 71 66 63 63 64 66 68 70 72 75 78 68
34 35 34 34 35 38 41 44 45 45 43 43 44 44 46 46 48 51 54 57 60 65 67 71 75 80 84 86 85 81 74 68 63 62 62 64 66 69 71 74 77 79 66 50
32 34 35 37 40 41 42 41 40 40 40 42 44 45 47 49 51 53 56 61 65 68 72 77 83 86 87 84 78 70 66 63 61 61 64 66 69 72 74 78 77 63 49 40
35 36 38 40 40 39 39 38 38 40 42 44 46 48 49 50 54 58 61 65 70 73 78 83 85 85 81 74 66 63 62 61 61 63 66 69 72 74 78 72 58 46 38 36
36 36 37 37 36 35 37 39 41 43 45 46 47 48 51 55 58 62 66 70 75 80 83 84 82 78 71 64 61 60 60 62 65 67 70 72 75 76 65 51 42 37 34 32
32 32 33 34 34 36 38 41 43 44 45 48 50 53 55 59 63 67 71 75 80 83 82 79 74 66 61 59 59 60 63 66 69 71 73 76 71 57 47 40 35 32 30 27
32 32 33 34 37 39 40 41 43 46 48 50 53 57 61 65 67 70 75 78 82 81 77 70 62 59 58 59 62 64 67 70 72 75 73 63 52 45 39 34 31 29 26 17
31 31 33 35 38 40 43 45 48 50 52 55 58 62 64 67 70 74 78 80 78 75 66 59 56 57 60 63 65 68 70 74 75 65 54 50 44 39 34 32 29 25 18 12
31 34 38 40 42 44 46 49 52 55 57 60 62 64 67 69 73 77 79 77 73 63 56 55 57 60 63 67 69 71 76 70 57 51 49 44 38 34 32 29 24 17 14 3
39 41 44 46 48 50 52 55 57 60 61 62 64 66 69 73 77 78 75 70 60 55 55 56 60 63 67 69 72 74 62 55 53 49 44 39 34 32 28 23 17 13 3 13
44 47 49 51 52 54 57 59 60 60 61 63 65 69 73 77 76 73 67 58 54 54 56 60 64 67 68 72 71 59 55 52 47 41 37 35 32 27 22 16 10 2 15 21

GFSNGP_500_spd_012.txt.gz
Wind_Speed
37 36 39 39 39 39 37 32 32 25 28 26 29 27 28 29 29 27 26 25 26 27 29 30 29 31 35 39 42 45 48 52 56 60 63 66 68 70 71 72 73 76 78 81
31 35 38 40 41 41 39 37 32 34 26 27 30 27 29 28 27 26 26 26 28 30 29 30 32 36 39 42 45 48 53 57 60 64 67 69 70 70 70 72 75 77 80 83
34 35 36 37 40 39 38 37 33 34 19 30 30 29 27 26 26 27 28 29 29 30 32 34 37 39 42 45 48 53 58 62 65 68 69 70 70 69 71 74 76 79 82 84
28 36 38 33 33 35 35 33 32 27 23 26 27 26 25 26 28 30 29 29 29 31 34 36 38 41 45 49 53 58 62 66 69 70 70 68 67 70 73 75 79 81 84 87
20 18 22 23 25 27 29 24 25 25 26 26 26 26 28 29 29 29 30 31 31 34 36 39 41 45 49 54 58 62 66 70 71 69 66 66 70 72 74 77 80 84 87 90
23 15 18 20 20 23 25 22 22 23 25 26 26 28 29 31 33 33 32 32 34 37 39 41 45 49 54 58 63 66 70 71 67 64 66 69 72 74 76 80 84 89 92 93
22 19 20 23 21 22 22 17 19 21 24 26 28 30 29 28 29 30 31 35 37 38 41 45 49 54 58 63 66 70 71 66 64 66 69 71 73 75 79 84 88 92 94 93
26 21 21 23 25 25 24 25 25 25 26 28 31 35 35 30 31 34 35 35 37 41 45 49 54 59 63 66 70 70 64 63 66 69 70 71 74 77 82 88 91 92 91 89
23 20 20 18 19 21 26 30 31 33 34 32 30 30 31 31 31 32 34 37 41 46 50 54 59 62 65 69 66 62 63 65 67 68 70 73 77 82 87 92 94 93 89 84
13 12 13 15 18 19 22 24 27 28 27 29 29 29 29 30 32 34 38 43 46 50 54 58 62 65 67 62 60 61 63 64 66 70 74 78 82 88 92 94 93 89 83 76
12 13 15 16 18 20 21 23 24 26 28 28 28 29 31 33 36 41 44 47 50 54 58 61 64 61 57 58 59 60 62 66 71 74 78 82 88 92 93 92 89 82 76 70
13 16 17 18 20 23 24 25 27 28 29 31 32 34 36 38 41 44 47 50 54 57 60 58 54 55 56 56 58 62 66 71 75 79 84 90 92 92 92 87 78 72 70 70
20 21 23 24 24 24 26 28 31 33 33 33 34 36 38 41 44 47 50 53 55 55 51 52 52 53 54 57 62 67 72 77 81 87 91 92 92 90 85 75 69 67 68 70
27 28 28 28 29 30 30 31 31 31 32 33 35 37 40 43 48 50 51 50 48 48 49 49 50 53 56 61 67 72 78 83 88 91 91 90 88 82 75 69 65 66 68 71
29 29 31 32 33 33 32 31 30 31 32 35 37 40 45 47 48 48 44 45 46 47 48 50 52 55 61 66 71 78 84 89 91 90 89 85 78 72 67 66 67 68 70 73
34 35 36 35 33 31 31 32 33 34 36 39 43 44 45 45 41 42 43 44 45 48 49 51 56 61 67 71 78 84 89 91 92 90 84 76 70 67 66 68 69 72 74 78
34 31 29 28 29 30 31 33 36 39 40 41 42 43 40 39 40 42 44 46 48 49 52 57 62 67 72 78 82 88 93 93 90 82 73 67 65 66 69 71 72 74 77 69
30 31 31 32 33 34 34 35 37 39 40 41 39 38 39 39 42 44 46 48 49 54 58 63 68 74 78 82 87 92 93 90 79 71 66 65 67 70 72 74 76 75 62 48
28 28 29 31 33 35 37 37 37 39 39 39 39 38 40 41 43 45 47 50 53 58 63 69 73 77 80 85 91 92 89 77 69 65 66 68 69 71 74 77 70 55 44 36
32 33 34 35 35 35 35 37 37 37 37 36 37 38 40 42 45 48 51 53 58 64 69 72 75 79 83 88 90 87 74 67 64 65 67 70 72 75 74 62 50 42 35 32
34 35 35 35 35 35 34 33 33 34 34 36 37 38 41 45 48 52 56 60 64 69 72 75 78 82 86 87 85 72 65 63 65 68 70 71 75 67 54 48 40 34 30 28
37 37 35 33 32 32 31 31 33 34 36 36 38 41 44 48 52 57 61 65 69 72 74 77 81 85 86 82 70 64 62 65 68 70 71 73 61 52 48 40 33 29 27 23
32 31 31 30 30 31 32 33 35 36 37 39 43 46 50 54 59 63 66 69 71 73 76 80 83 84 79 69 63 62 64 67 70 70 71 58 53 48 41 32 27 26 22 15
32 31 30 30 31 33 34 36 38 40 43 45 48 52 56 60 63 67 69 70 72 74 79 83 82 76 67 62 61 63 66 69 70 68 55 53 47 40 33 26 26 22 16 8
31 32 32 34 35 37 39 40 42 44 47 50 54 58 61 64 67 69 70 70 73 78 82 80 72 65 61 61 63 66 68 70 65 54 52 44 38 35 30 27 23 17 10 4
34 35 36 37 38 40 42 43 46 49 52 56 59 63 66 68 68 68 68 72 77 80 77 69 63 60 60 63 66 66 70 59 53 50 42 39 36 33 28 23 18 10 4 18
36 37 38 40 42 44 46 49 52 55 59 62 64 65 66 66 66 68 71 76 78 74 68 63 61 61 63 66 67 68 54 52 48 44 40 38 34 29 22 18 9 4 20 22

GFSNGP_500_spd_015.txt.gz
Wind_Speed
38 36 39 37 27 23 28 19 24 24 27 26 28 27 28 28 30 31 32 32 30 30 31 31 32 33 33 35 37 39 42 45 48 52 56 61 65 69 72 75 75 72 71 73
30 29 29 33 34 31 31 28 26 26 26 28 29 33 31 30 30 32 33 30 29 31 31 32 34 34 36 38 39 42 44 47 52 56 61 66 70 74 76 74 70 70 72 73
28 27 29 31 31 36 32 31 32 30 26 32 34 35 36 32 31 31 30 30 31 32 34 34 34 36 38 39 41 44 47 52 57 61 67 71 74 76 72 68 69 70 72 74
29 29 30 29 30 32 36 36 36 33 34 36 36 37 32 30 29 28 30 31 33 34 35 36 37 39 39 41 44 47 52 56 62 67 71 75 74 69 67 68 69 72 74 78
27 29 29 26 26 30 33 30 36 35 34 31 32 31 31 29 28 29 31 32 34 35 37 38 38 39 40 43 47 52 56 61 66 71 74 72 66 65 66 69 72 76 80 84
19 20 17 21 23 26 30 25 27 27 26 26 31 33 31 28 30 30 31 33 37 40 39 39 38 40 43 47 51 56 61 66 70 73 66 62 63 65 68 73 78 82 86 92
15 17 12 15 21 22 21 18 21 24 26 27 30 29 27 29 30 31 31 32 33 34 35 39 40 42 46 51 56 61 66 70 69 61 60 61 64 69 74 79 83 88 93 96
22 23 17 16 19 21 18 22 23 22 22 23 25 27 28 28 31 35 37 33 33 36 37 39 42 47 51 55 60 65 69 62 58 58 59 64 68 74 80 86 89 92 95 96
25 19 21 16 17 20 21 24 27 26 26 27 28 30 31 31 30 33 32 33 34 36 38 42 47 50 55 60 65 64 56 55 56 58 63 68 73 79 86 91 93 96 97 93
25 19 21 20 18 17 17 16 18 21 25 25 26 27 28 29 30 31 31 32 35 38 43 46 50 55 60 63 56 53 52 54 57 61 67 72 77 84 91 95 99 97 91 83
13 13 13 14 15 16 15 16 18 20 22 23 24 27 28 29 30 31 33 36 40 43 46 50 55 58 56 51 51 51 54 56 62 67 71 77 84 91 96 100 98 88 79 74
13 12 11 11 11 13 14 16 19 21 23 25 27 29 31 32 34 35 36 39 42 46 50 54 55 49 48 49 51 53 56 62 68 72 78 85 90 93 99 97 87 78 72 70
15 14 13 15 16 18 20 21 22 23 26 28 31 33 35 35 36 37 39 42 45 49 52 48 45 46 48 51 52 57 62 68 73 77 84 89 92 98 98 87 77 70 68 70
18 18 18 21 23 24 26 26 28 30 31 33 34 34 34 34 35 38 41 45 48 48 43 43 44 47 50 53 57 61 67 72 77 82 87 92 97 97 89 80 71 66 69 74
25 26 27 28 27 27 29 31 33 34 33 32 31 32 33 35 38 43 45 46 42 40 41 43 46 49 52 56 61 67 72 78 82 85 91 95 96 88 79 72 69 71 73 76
33 32 31 31 31 32 34 36 34 32 31 31 33 34 37 42 42 43 41 38 38 40 42 45 48 52 55 61 67 72 78 81 85 89 92 95 87 78 71 69 72 74 78 75
34 34 34 35 36 35 33 31 30 30 31 34 38 40 39 41 41 37 36 37 39 41 44 48 52 56 61 66 72 77 81 83 87 91 94 87 78 70 69 72 74 78 68 58
36 37 37 37 35 33 32 32 33 34 35 36 38 39 40 36 34 34 36 38 40 44 47 51 56 61 67 73 77 80 82 85 89 92 87 78 70 68 71 74 77 67 56 50
34 34 34 34 34 34 33 32 33 35 36 37 37 35 32 32 33 35 37 40 44 47 51 56 61 67 72 77 80 82 84 87 90 87 77 70 67 70 73 76 66 57 49 40
29 29 29 30 30 31 33 34 36 36 36 32 31 32 32 33 34 37 41 44 47 52 56 61 67 72 77 79 81 83 86 89 86 77 69 67 69 72 75 65 57 49 39 32
27 29 31 32 34 35 35 35 34 32 31 31 31 32 33 35 38 42 45 48 53 57 62 68 73 77 79 80 81 85 87 84 77 69 66 68 70 73 62 55 48 39 29 28
30 31 31 32 33 34 33 32 30 30 31 32 33 34 37 40 43 47 50 53 58 63 69 73 76 77 78 80 83 86 83 76 69 65 67 69 72 59 54 45 36 29 26 23
29 29 30 31 31 30 29 30 31 33 33 35 36 39 42 44 47 50 55 60 65 70 74 76 77 77 78 82 85 81 75 67 64 67 68 70 56 52 44 35 31 25 22 18
32 32 31 30 30 31 32 33 34 35 37 39 42 44 46 48 52 57 61 67 70 73 75 75 75 77 81 84 81 73 66 64 67 68 68 54 51 44 37 33 28 22 17 10
29 29 30 32 33 33 34 36 37 39 41 43 45 47 51 54 58 64 68 70 71 72 72 73 75 80 83 78 72 66 64 66 69 63 52 49 44 38 36 30 23 16 9 1
29 32 34 36 37 37 38 38 39 41 44 47 50 54 57 61 64 66 68 70 69 70 71 74 80 80 76 69 64 64 65 69 58 51 48 44 40 37 30 24 17 11 2 15
31 33 35 37 37 38 39 42 44 47 50 53 57 60 61 63 65 66 67 66 67 69 74 78 77 73 68 63 63 66 66 53 50 48 44 42 38 31 24 17 12 5 19 22

GFSNGP_500_spd_021.txt.gz
Wind_Speed
17 26 13 15 30 22 22 25 24 23 24 21 19 18 17 17 16 16 16 16 17 20 24 27 28 29 30 31 34 35 36 37 39 41 42 44 49 47 54 59 63 67 70 68
13 25 14 8 23 18 28 28 23 17 18 18 18 17 17 17 17 18 18 19 20 22 24 25 26 28 30 32 34 34 37 39 41 43 45 46 48 53 59 62 67 69 65 65
18 11 19 12 9 10 27 19 20 18 17 18 19 18 16 16 16 17 19 21 21 22 23 25 27 29 30 32 34 36 39 42 45 47 44 49 53 58 62 66 67 63 64 65
11 11 16 15 14 12 17 7 11 12 17 18 20 17 15 14 17 20 20 21 23 24 25 27 28 29 31 33 36 39 43 41 40 45 48 53 57 61 64 63 61 62 64 70
10 13 13 12 15 16 17 19 19 21 22 20 17 17 17 18 19 20 22 24 25 25 25 26 27 29 31 35 38 38 39 41 44 48 52 55 60 63 59 59 60 63 70 75
7 8 10 10 12 15 16 19 20 22 23 23 22 22 24 23 22 22 23 24 24 24 25 26 28 31 35 38 38 38 39 43 47 51 54 59 60 56 56 58 63 68 74 78
5 6 9 13 13 13 14 16 19 21 20 21 21 23 23 22 21 23 23 23 24 25 26 26 28 30 32 37 38 40 43 47 49 54 57 56 54 55 57 62 66 72 78 83
9 8 12 14 15 13 14 15 14 16 18 19 20 21 21 20 20 21 22 23 23 24 27 30 32 34 36 37 39 43 46 48 53 56 52 52 54 57 61 66 71 77 83 88
11 12 12 10 11 7 11 13 13 14 15 16 16 17 18 19 20 20 22 26 27 28 29 33 33 35 36 39 43 45 47 51 52 50 50 52 56 59 65 71 77 83 89 92
13 13 15 12 10 11 9 8 10 14 16 17 19 20 21 22 23 23 23 25 27 29 31 32 34 36 39 41 43 45 49 47 47 48 51 55 59 64 70 77 83 88 92 96
12 16 14 18 12 12 12 11 13 13 13 12 12 13 14 16 19 21 23 25 27 29 31 33 35 37 38 41 45 46 45 45 47 50 53 57 63 70 76 82 88 92 96 100
19 18 16 16 16 12 12 12 11 11 10 10 12 13 14 16 18 20 23 25 27 28 30 32 33 36 41 43 43 43 44 46 49 52 56 62 68 73 81 87 90 94 97 101
14 12 16 16 15 13 9 7 7 8 10 11 13 14 17 19 23 26 27 26 27 28 30 33 38 40 41 41 41 43 45 48 51 55 62 68 73 79 83 86 91 94 98 96
18 16 14 14 13 9 8 9 10 13 15 16 16 18 21 25 27 26 26 27 28 30 34 36 38 39 39 40 42 45 48 50 55 62 68 74 79 83 86 89 91 94 94 84
17 15 15 14 11 11 12 14 16 17 18 19 22 25 27 27 25 26 27 28 32 33 36 38 38 38 40 42 44 47 50 54 61 67 73 78 81 84 88 91 95 93 81 70
12 13 13 13 16 18 19 21 22 23 23 24 25 26 25 24 25 27 31 31 33 35 37 37 38 39 40 43 46 49 54 60 65 71 76 80 83 87 90 93 92 79 69 69
14 15 16 18 21 24 26 27 26 25 26 26 25 24 25 27 30 30 31 33 35 36 36 37 38 40 43 46 48 54 60 65 71 76 79 82 85 89 92 89 77 67 68 59
20 19 22 24 25 27 27 27 27 27 27 26 26 27 28 28 29 31 33 35 35 35 36 38 39 42 46 49 54 60 65 70 75 79 81 84 88 92 88 75 66 66 56 51
22 23 23 25 26 27 28 28 27 26 26 26 25 25 28 29 30 32 35 34 34 36 37 39 42 46 49 54 60 65 70 74 78 80 83 87 91 87 73 65 64 54 49 39
22 22 23 23 23 23 24 25 24 23 24 25 26 27 29 30 32 33 33 33 35 37 39 43 45 49 55 60 65 69 73 76 79 82 87 90 87 71 65 63 53 47 40 31
23 23 24 24 24 24 23 23 24 25 26 27 28 29 30 32 32 32 33 35 37 39 42 46 50 55 60 65 69 72 75 78 81 85 89 86 70 65 62 53 46 39 30 24
23 23 23 24 23 24 24 26 27 27 27 28 29 30 31 31 32 33 35 37 39 42 46 50 55 60 65 68 71 74 77 80 85 89 85 69 65 61 53 46 39 30 24 17
25 25 25 25 25 25 25 25 26 27 28 29 29 29 30 31 32 34 35 38 42 46 51 55 60 63 67 71 74 76 79 83 88 84 69 65 61 55 48 40 30 24 16 10
23 23 23 24 24 25 26 27 29 29 27 25 26 28 30 32 33 35 39 42 46 51 56 59 63 67 70 71 74 77 81 86 85 69 66 62 56 49 40 30 23 15 7 2
20 21 22 23 24 25 26 25 23 23 24 26 27 28 30 32 36 39 43 48 52 56 59 62 66 69 70 74 76 80 84 85 69 65 61 56 47 38 31 24 14 5 4 13
16 17 18 19 20 21 21 21 21 23 24 26 28 31 34 37 40 44 48 51 54 58 61 64 66 67 72 75 79 82 83 67 63 59 54 46 38 32 26 16 2 6 17 20
19 20 20 21 21 22 22 23 25 26 28 31 33 36 39 42 45 48 51 54 57 60 64 66 67 71 74 78 79 80 63 62 58 52 46 39 35 29 18 0 10 20 23 25

GFSNGP_500_spd_024.txt.gz
Wind_Speed
12 16 15 8 17 16 20 19 5 18 23 24 25 27 26 24 20 18 18 18 19 19 18 19 20 22 25 26 28 30 33 35 37 38 40 43 46 48 51 50 53 57 61 66
13 11 11 12 8 13 17 13 26 30 33 32 29 27 25 22 20 19 17 15 16 17 18 19 20 22 24 27 29 32 33 35 36 39 42 45 47 47 50 53 57 61 65 64
6 6 8 5 8 13 24 29 28 26 25 24 24 22 21 20 19 18 18 18 18 18 19 19 20 23 26 28 30 32 33 35 38 42 44 44 46 48 52 56 60 64 62 60
18 12 8 11 16 20 17 15 15 17 19 21 21 19 17 16 16 16 17 18 17 17 18 20 22 25 27 28 30 32 34 38 41 44 45 46 47 51 55 60 62 60 59 61
14 13 16 13 14 21 18 14 13 14 19 19 19 19 16 13 15 17 16 15 17 19 20 22 24 25 26 28 30 33 37 40 42 44 44 48 50 55 58 61 57 58 60 64
7 11 12 11 10 9 11 11 10 13 17 15 17 16 15 17 15 15 16 18 20 20 20 22 24 26 27 30 33 35 37 41 43 45 47 52 52 57 59 55 56 59 63 69
4 5 7 8 9 8 11 12 15 16 14 14 17 18 17 15 16 18 18 19 18 18 21 24 25 27 29 32 35 37 40 41 43 48 49 52 57 54 52 55 58 62 67 74
5 5 7 8 11 13 13 14 12 13 15 16 16 16 16 17 17 17 17 16 18 19 21 23 27 30 32 35 37 38 40 43 47 48 51 54 51 51 54 57 60 66 73 79
8 8 8 7 7 9 10 11 12 12 11 12 12 13 13 12 13 14 15 15 17 22 24 26 28 30 34 35 37 40 42 45 47 50 50 49 50 53 56 60 67 73 78 82
8 9 12 6 9 10 7 9 10 10 10 10 10 10 11 13 15 16 18 20 21 23 25 28 30 32 35 36 38 41 42 46 48 47 47 50 52 55 60 66 71 76 82 88
9 12 12 10 11 10 10 9 9 12 13 13 12 11 11 11 12 13 16 19 22 25 28 30 31 32 34 36 38 41 44 45 45 46 48 50 53 58 64 72 78 83 89 94
18 14 12 14 14 16 12 13 13 9 10 10 9 10 10 12 13 15 17 20 23 26 28 29 30 32 34 37 40 42 43 43 43 45 49 52 57 64 72 78 83 88 92 94
20 19 16 15 16 17 15 12 9 6 7 6 7 9 12 14 15 17 21 24 26 26 26 28 30 33 36 39 41 40 40 42 44 47 51 56 64 69 74 81 86 89 92 97
15 15 12 13 16 15 13 10 8 7 9 11 13 14 14 16 19 22 24 24 24 26 27 30 33 35 39 39 38 39 40 43 47 51 56 63 68 73 78 84 86 89 95 95
17 16 18 14 14 17 14 10 10 10 11 13 15 17 19 21 23 24 24 25 26 27 31 32 35 37 37 37 38 40 42 46 50 55 61 66 71 78 83 85 88 93 93 79
15 18 16 14 16 15 11 13 15 16 17 19 20 22 23 24 24 24 25 26 28 29 32 35 37 36 36 37 39 42 46 50 55 61 67 71 77 81 85 87 92 93 78 68
10 11 10 9 11 15 17 18 19 21 22 24 24 25 25 25 24 25 26 27 29 32 34 35 35 35 36 38 42 46 50 55 61 66 70 75 79 83 86 89 94 78 68 62
15 15 15 16 18 19 21 23 24 26 26 27 27 26 25 24 24 24 27 29 31 34 34 33 34 36 38 42 46 50 55 60 65 69 74 78 81 86 88 92 80 67 60 52
18 19 21 22 23 25 26 26 26 26 24 23 23 23 22 23 25 26 29 32 34 33 32 33 36 38 41 45 50 54 59 64 69 73 77 80 84 88 89 81 67 60 53 45
23 24 24 23 23 22 21 22 23 24 24 23 23 23 24 25 27 29 31 32 31 31 32 35 37 40 44 49 54 58 62 67 71 76 79 82 87 88 81 68 62 55 46 38
25 25 25 25 24 23 22 22 22 22 22 23 23 25 26 27 29 30 29 29 30 31 33 35 40 43 48 53 57 62 67 71 74 77 80 87 86 81 67 62 56 44 35 28
23 23 23 23 21 21 22 22 23 24 25 26 25 25 27 28 28 27 27 29 31 32 35 39 43 48 52 56 61 65 69 71 76 80 87 86 81 66 62 55 42 33 26 17
22 23 23 23 23 23 24 25 26 26 26 25 26 27 26 25 25 27 29 30 32 35 39 44 48 51 56 61 64 67 70 75 81 85 84 79 65 61 54 42 33 26 16 6
23 23 22 22 23 24 24 24 24 24 25 25 24 23 23 25 27 28 30 33 36 40 43 48 52 57 60 63 67 70 73 80 82 84 76 63 61 55 44 35 26 14 3 9
21 22 23 23 22 21 21 21 20 19 19 20 21 22 23 26 28 30 33 36 40 44 49 52 56 59 63 66 70 73 79 80 83 73 62 60 54 44 35 27 15 1 11 16
19 17 16 15 15 15 16 16 16 17 19 21 22 24 25 27 31 34 38 41 45 49 52 56 59 62 65 69 73 78 77 81 72 61 59 54 44 36 29 16 2 13 19 20
15 15 16 17 17 17 18 18 20 20 21 22 24 27 30 33 37 39 43 47 50 53 56 59 61 63 67 73 76 76 79 71 59 58 53 44 37 30 16 5 15 22 22 23

GFSNGP_500_spd_027.txt.gz
Wind_Speed
15 10 11 9 10 9 8 9 9 11 36 32 42 34 37 35 31 33 28 26 27 26 25 24 22 22 23 24 25 27 29 30 33 35 37 39 41 43 46 49 52 52 55 57
16 7 5 9 14 9 12 6 4 24 31 37 31 36 27 23 23 26 28 26 23 21 20 19 20 21 22 24 25 27 30 32 34 36 37 39 42 46 49 51 52 53 57 61
9 5 4 8 9 5 2 8 18 26 36 36 28 29 26 25 26 25 24 22 21 20 19 19 20 21 22 24 26 29 31 32 34 36 38 41 45 47 48 50 53 57 60 64
15 8 11 20 24 21 22 20 27 39 32 31 26 24 24 23 24 22 20 20 19 19 20 20 21 21 23 25 27 29 31 32 34 37 40 42 46 49 51 53 58 59 64 65
12 11 17 16 18 21 24 23 29 29 27 22 25 22 19 18 18 20 21 21 20 19 18 18 20 22 24 26 28 29 31 33 36 39 42 46 47 49 53 56 59 64 61 61
9 10 9 8 12 15 15 17 15 15 17 17 17 19 18 18 20 21 19 17 17 18 19 21 22 22 23 26 28 30 32 36 39 42 44 46 47 52 54 58 61 58 59 61
5 4 6 5 4 3 3 3 6 8 11 13 16 19 22 20 16 14 16 18 19 21 21 20 21 23 25 27 29 32 36 39 41 42 44 47 50 53 57 57 56 57 59 64
2 2 3 4 5 6 5 5 4 8 13 15 16 18 18 16 17 17 18 18 18 18 18 20 21 22 25 29 32 34 37 39 40 43 46 48 52 55 52 53 54 57 61 68
5 5 3 5 8 8 6 6 5 6 8 11 13 15 16 17 17 17 16 16 17 17 17 19 23 25 27 30 33 34 36 39 41 44 47 51 51 50 50 53 56 61 67 72
6 5 5 5 6 8 8 7 7 8 9 11 13 14 14 14 14 14 15 15 16 19 21 21 24 26 29 32 33 34 36 39 42 46 48 47 47 48 51 55 61 66 72 77
10 9 9 10 6 7 6 6 8 9 8 9 10 10 12 13 14 14 14 14 15 17 19 22 25 28 30 31 32 34 37 42 44 45 44 45 47 51 55 60 67 72 77 82
13 10 11 12 10 9 11 10 9 8 10 11 12 10 11 10 11 12 12 13 15 18 23 26 27 27 29 31 33 38 40 43 42 42 43 45 49 54 61 67 72 77 83 87
18 17 15 12 11 12 17 10 9 9 9 6 5 6 7 9 11 12 14 16 20 23 25 25 26 28 30 34 36 39 40 39 40 41 44 49 53 58 63 71 77 82 86 90
13 15 18 17 13 14 14 14 11 9 7 5 7 10 13 14 14 17 19 22 24 24 25 26 27 30 33 35 37 37 37 39 40 44 48 53 58 63 69 75 78 85 90 94
12 12 14 11 13 13 15 16 14 9 8 9 9 11 13 16 19 21 23 24 25 25 26 27 30 32 34 35 36 36 37 40 43 47 52 57 63 68 73 78 84 88 92 95
10 14 15 14 14 15 18 17 13 11 12 13 15 17 19 21 23 24 25 25 25 26 28 29 32 34 35 35 35 36 39 42 46 51 56 61 66 71 77 81 86 92 94 86
12 13 15 15 13 16 19 16 14 15 17 19 21 23 24 25 26 26 25 26 25 26 29 31 33 34 33 34 35 38 41 45 50 55 59 65 72 76 81 85 91 93 84 68
13 13 13 13 14 14 15 17 19 20 22 24 25 26 27 26 25 24 24 24 27 28 30 33 32 31 32 35 36 40 45 50 54 59 65 71 75 81 85 91 93 83 66 61
17 18 18 18 18 19 21 23 24 25 26 27 26 23 22 22 23 24 26 26 28 30 31 30 30 32 33 36 40 44 49 53 59 64 69 74 80 84 90 91 80 65 59 50
22 21 21 22 23 24 24 24 24 24 24 24 23 22 22 21 23 25 27 28 30 29 28 28 31 32 36 39 44 48 54 59 63 67 71 78 83 89 88 80 64 58 50 37
23 24 25 25 25 25 25 24 24 24 23 22 22 21 22 24 26 27 28 29 27 26 29 30 32 36 40 44 48 54 58 63 66 70 76 82 89 87 79 63 57 48 37 25
22 24 25 25 26 25 24 23 22 23 23 23 23 23 24 26 27 28 26 25 27 28 30 32 36 40 44 49 54 58 62 66 71 75 82 89 87 77 61 56 46 36 26 12
21 21 21 21 21 22 23 23 23 24 24 24 24 24 25 27 25 23 24 25 27 29 32 35 40 45 50 54 57 61 65 70 74 81 89 89 75 60 55 46 35 25 13 1
21 22 22 23 23 23 24 24 24 24 23 23 24 24 22 21 22 23 25 27 28 32 36 41 45 50 54 57 60 64 68 73 80 87 88 74 59 55 47 35 26 12 2 10
22 22 23 23 23 23 23 23 23 22 22 21 20 20 20 21 23 24 26 30 33 37 41 46 50 53 56 60 63 67 72 80 87 85 71 57 54 46 36 27 10 5 12 15
24 24 24 23 23 21 20 20 18 18 18 19 19 20 21 21 24 27 30 33 37 41 46 49 53 56 59 62 66 71 78 85 83 68 56 53 45 37 29 11 8 15 17 17
24 23 22 20 18 17 18 19 19 19 19 19 19 20 23 24 27 30 35 38 42 46 50 52 55 58 61 64 70 77 84 79 66 56 54 46 38 31 13 10 18 19 20 17

GFSNGP_500_spd_030.txt.gz
Wind_Speed
19 23 24 28 23 19 19 5 4 3 20 27 25 30 35 32 35 32 35 34 34 32 35 36 35 34 33 31 29 29 30 31 31 32 33 35 36 38 40 42 46 49 51 52
18 12 18 19 18 18 19 8 10 15 22 31 30 30 27 33 35 31 31 31 28 28 31 31 32 32 31 29 28 29 29 29 30 31 33 35 37 39 41 45 47 51 53 54
14 17 19 21 11 8 12 11 13 27 29 29 32 31 31 32 33 30 32 28 27 27 29 29 28 28 28 26 25 25 25 27 29 32 34 36 38 41 44 47 51 52 53 58
15 18 24 24 18 12 16 16 22 31 28 34 22 30 30 35 30 23 23 23 22 24 24 24 24 23 21 20 22 24 26 28 30 32 34 37 40 44 48 50 51 53 57 60
14 18 23 27 25 21 17 22 20 22 21 22 29 26 26 24 23 22 21 19 19 19 19 17 17 18 20 21 23 24 27 29 31 33 36 39 44 47 47 49 53 56 59 63
11 14 16 19 20 22 21 25 19 19 19 19 23 24 24 22 21 21 20 18 16 16 16 18 20 20 21 23 25 26 28 30 32 34 39 42 44 45 49 51 55 59 59 58
7 7 8 10 13 14 14 12 13 12 15 14 13 15 17 15 15 14 13 13 15 17 20 21 21 21 22 23 24 26 28 31 34 37 40 42 44 47 49 54 57 54 54 57
4 5 6 4 5 8 10 13 10 9 10 12 15 15 13 13 13 11 11 14 17 18 19 18 18 19 21 22 25 28 30 32 36 38 40 42 44 48 52 52 51 52 55 59
3 2 4 6 4 1 3 4 8 11 11 10 9 8 8 10 12 14 16 17 15 16 16 17 17 19 22 25 27 29 32 34 36 37 39 43 48 49 48 48 50 54 58 63
6 3 2 1 3 2 1 1 1 2 5 8 11 11 12 13 13 13 13 13 14 14 15 17 20 22 24 27 29 31 32 33 35 38 43 45 46 45 46 49 53 57 62 68
8 6 4 2 3 3 1 1 2 5 5 5 6 7 9 9 10 11 12 13 16 17 17 18 21 23 25 28 29 29 31 34 38 40 43 42 43 44 48 53 57 61 66 72
9 7 5 5 6 2 4 5 4 4 5 7 9 10 10 11 12 11 11 12 13 15 17 20 23 25 26 26 28 29 34 37 39 40 40 41 44 48 52 56 61 66 73 79
14 10 10 9 11 10 9 9 8 7 6 6 8 8 6 4 5 7 10 13 15 18 21 24 25 25 26 27 30 33 36 37 38 38 39 42 46 50 54 61 66 72 77 84
15 15 18 19 18 11 11 11 11 7 7 7 5 4 5 7 11 13 15 17 20 23 24 25 25 26 28 31 32 35 36 36 36 38 41 44 49 53 58 63 68 73 82 88
16 13 13 12 13 8 9 11 10 12 11 6 5 6 8 10 13 16 19 21 23 25 26 27 28 29 30 32 34 35 34 35 38 40 44 48 52 58 64 70 74 79 86 94
15 14 11 12 10 11 13 15 17 13 9 7 9 12 14 17 20 22 23 24 26 27 27 27 27 30 32 34 33 33 34 37 39 43 47 52 58 64 69 74 78 85 93 96
10 10 11 13 11 13 13 16 17 13 12 12 17 20 21 23 23 23 24 24 23 23 24 27 29 31 33 32 32 34 36 38 42 47 52 58 63 69 72 77 85 93 96 85
12 11 11 11 13 12 12 16 19 16 17 19 22 23 24 24 24 23 23 23 22 24 26 28 30 32 31 32 33 34 38 42 47 53 58 63 67 70 76 83 90 95 83 66
15 14 12 12 12 12 14 16 17 19 21 23 24 23 23 23 24 23 23 22 22 25 28 30 31 30 31 32 33 37 42 47 53 57 63 66 69 75 82 89 94 82 64 54
18 18 17 17 16 17 18 20 22 23 23 22 21 23 24 24 23 22 23 25 25 27 30 28 28 30 30 33 37 42 47 52 57 61 64 68 73 80 88 92 80 61 53 38
20 21 21 21 21 22 23 22 23 23 23 23 22 23 23 24 23 24 26 26 27 28 26 28 28 29 33 37 42 47 52 56 60 64 67 72 78 86 90 77 59 51 38 25
19 20 21 22 23 23 24 24 23 22 22 22 23 24 24 24 25 26 26 26 25 25 25 26 29 33 38 42 47 52 56 60 63 67 72 77 83 87 75 58 50 39 25 13
22 24 24 24 21 20 20 20 20 21 22 24 24 24 25 25 26 26 24 24 24 25 26 30 34 37 42 48 52 56 60 63 67 71 76 83 87 76 58 50 39 28 13 1
20 21 21 21 21 22 22 22 23 23 24 24 24 24 25 25 23 22 22 23 24 26 30 33 38 44 48 53 56 59 62 67 71 75 81 86 74 59 50 40 29 13 2 7
22 23 23 23 23 23 22 22 22 23 23 23 24 23 21 21 21 22 22 24 26 29 34 39 44 48 53 56 59 62 66 70 75 82 86 73 59 50 41 30 12 5 11 12
25 25 25 25 24 23 22 23 23 23 22 20 21 21 21 21 21 22 23 25 30 34 39 44 49 52 55 58 61 65 69 75 84 86 72 58 49 41 31 13 7 14 15 12
28 27 25 25 25 24 23 23 20 20 21 22 21 21 21 21 22 24 26 30 35 40 44 48 51 54 57 60 64 69 75 84 84 67 57 49 41 34 15 8 16 18 16 12

GFSNGP_500_spd_033.txt.gz
Wind_Speed
12 19 23 26 26 26 30 24 22 14 7 19 17 24 20 25 35 41 35 32 33 35 36 42 42 40 39 38 37 35 35 34 35 36 33 33 33 34 37 40 42 43 46 49
12 15 22 19 19 13 12 3 14 6 5 11 17 18 27 30 34 42 31 34 36 36 36 39 38 37 35 34 33 33 32 33 33 32 32 32 33 36 39 40 42 45 49 52
11 13 23 20 13 11 13 4 7 9 17 19 28 26 25 27 32 35 26 29 29 29 30 33 34 34 33 30 29 30 30 31 30 29 30 33 35 36 39 41 45 48 52 53
14 20 28 18 12 11 7 14 14 14 19 26 23 20 23 26 27 26 27 28 28 26 27 29 29 26 25 25 25 26 27 27 28 29 31 33 35 38 41 44 47 50 52 54
14 22 22 22 19 18 12 13 12 12 16 17 16 17 22 27 21 17 22 24 25 24 24 23 22 23 23 21 23 24 25 26 27 29 32 34 37 39 43 46 48 50 52 55
11 14 17 18 18 15 15 10 13 16 10 25 21 23 19 18 18 17 21 23 21 19 18 17 17 17 17 19 21 22 24 26 28 31 34 35 39 42 44 46 48 50 54 56
6 9 10 10 10 12 8 12 11 9 13 15 18 22 22 20 19 18 17 17 17 16 16 15 13 14 15 17 20 23 25 27 30 32 35 38 40 41 43 45 49 52 53 53
5 5 6 6 5 4 5 7 9 8 9 10 13 17 16 18 14 12 12 10 8 7 7 10 13 16 18 20 21 23 25 28 32 34 36 37 38 40 44 48 50 50 50 53
7 5 4 6 5 4 4 1 2 2 3 6 8 10 10 13 14 14 11 9 8 9 11 14 15 15 16 18 21 25 27 30 32 33 34 36 39 44 46 47 47 48 51 55
6 5 6 3 5 4 4 4 3 2 4 6 7 7 9 9 10 10 8 8 8 10 12 12 13 15 18 21 23 26 28 30 31 33 35 40 42 44 45 45 47 51 54 58
7 3 2 4 7 4 4 3 2 4 5 5 5 6 6 6 6 6 7 7 9 11 13 14 14 15 18 21 25 27 29 30 32 35 38 40 42 42 44 47 49 53 57 62
10 5 4 4 1 0 0 2 2 2 3 5 5 5 6 5 6 7 9 9 8 9 10 12 14 18 22 25 26 28 29 32 35 36 39 40 40 44 46 48 53 58 64 69
9 7 6 5 4 4 6 5 5 4 3 3 4 6 6 2 1 2 4 6 8 11 13 17 20 23 25 26 27 29 32 33 35 38 38 39 42 44 47 54 60 65 69 73
11 11 11 12 15 13 10 7 8 4 3 6 5 5 4 1 3 6 8 10 12 16 19 21 23 25 26 27 28 30 33 35 37 37 38 41 42 46 51 56 61 67 72 76
13 14 15 14 14 12 9 5 6 6 7 8 3 1 2 5 8 10 13 16 18 21 22 24 25 25 25 26 30 32 35 36 36 37 38 41 46 51 56 61 67 71 75 82
14 12 12 14 9 9 9 10 14 13 13 7 4 5 8 12 15 17 19 20 21 22 23 23 23 24 27 29 31 34 34 34 35 37 40 46 51 55 60 65 70 76 80 86
10 10 11 12 11 7 10 11 14 15 8 8 11 11 14 18 19 21 22 21 21 22 23 24 25 27 28 30 32 31 32 33 36 40 45 50 55 60 64 69 75 79 85 91
11 11 13 13 12 11 11 11 12 14 12 15 14 17 19 21 21 20 20 21 21 22 23 24 26 28 30 29 29 30 32 35 40 45 51 55 59 64 69 74 78 83 88 74
11 12 11 10 11 12 12 10 9 10 13 16 17 20 21 21 21 21 21 22 21 22 24 26 28 28 27 28 29 32 36 40 45 50 55 59 64 69 74 79 84 85 70 52
13 14 14 12 11 11 11 12 13 15 18 20 19 20 21 22 21 21 22 22 22 24 26 28 26 26 26 29 32 36 40 46 51 55 59 64 70 75 79 85 83 67 51 38
14 16 17 18 19 18 17 18 19 19 19 19 21 21 21 21 22 22 23 23 24 26 26 24 24 26 28 33 36 42 47 51 55 60 64 70 74 78 86 81 66 51 38 23
16 18 19 20 21 22 22 21 21 21 21 22 22 21 21 21 22 23 23 24 26 23 22 24 25 29 32 37 42 47 50 55 60 63 69 73 78 87 84 65 51 40 25 10
21 21 21 20 20 20 21 21 21 21 22 22 22 21 20 22 23 23 24 24 22 21 23 25 28 32 36 42 47 51 55 59 63 67 73 79 88 86 64 50 41 29 10 5
19 20 21 21 21 21 21 20 21 20 20 20 20 20 21 22 23 23 21 21 21 22 24 27 32 36 42 46 50 55 58 62 66 72 79 86 84 65 51 41 30 10 7 10
22 22 22 21 21 22 22 22 21 21 20 20 21 22 24 22 20 20 20 21 22 24 27 31 36 40 45 50 54 58 61 65 71 79 87 86 67 54 43 31 11 10 13 11
25 24 24 24 23 22 22 22 22 22 22 23 23 21 19 19 20 21 21 22 25 28 32 36 40 45 50 54 58 60 63 69 77 88 87 68 55 46 34 12 11 16 15 11
26 26 26 26 25 25 24 23 23 24 23 22 20 19 19 20 21 22 23 26 28 32 36 40 44 48 53 57 59 62 68 75 85 85 69 56 46 36 13 13 19 18 14 10

GFSNGP_500_spd_036.txt.gz
Wind_Speed
11 11 14 19 24 28 31 28 29 17 25 14 21 18 17 20 27 36 36 45 44 43 39 38 35 36 41 43 42 41 41 40 38 38 36 36 36 38 41 39 39 41 44 47
9 11 12 11 17 18 23 27 21 18 14 10 5 1 7 11 18 22 32 37 39 38 34 32 34 38 40 40 39 39 40 39 38 35 35 33 37 38 37 38 40 43 46 47
7 6 5 12 14 15 21 14 14 13 11 6 1 5 10 12 18 24 31 34 33 36 33 31 32 35 35 36 36 36 35 35 33 32 33 35 33 35 37 40 42 44 46 48
6 9 8 15 14 18 14 10 9 6 9 13 16 13 13 14 20 25 28 27 29 32 31 29 30 32 32 30 30 29 29 28 30 30 30 31 33 36 38 40 42 44 47 51
5 8 9 13 13 14 15 11 5 2 3 5 9 12 14 14 16 23 24 25 23 22 22 20 20 23 25 26 25 25 25 26 28 29 29 31 33 35 38 40 43 47 49 52
4 6 8 7 7 11 7 8 9 4 3 9 10 14 14 10 6 29 24 24 22 19 19 21 21 22 23 25 26 27 25 24 24 26 28 30 32 35 39 43 46 48 49 51
4 5 7 7 7 10 10 11 7 9 8 11 14 10 11 9 8 23 29 26 23 23 24 24 24 24 23 21 20 20 20 21 22 25 28 31 35 39 41 44 45 47 51 52
2 2 4 5 7 9 9 8 10 8 14 12 10 12 14 13 12 12 15 14 12 13 14 14 15 13 9 9 12 15 18 21 24 28 31 34 37 39 40 42 46 48 50 52
4 3 3 2 3 4 7 9 7 4 6 9 10 11 13 12 12 8 13 10 8 7 6 4 2 4 8 12 15 18 21 24 27 29 32 34 35 37 41 44 47 49 50 52
3 2 3 3 2 1 3 5 5 5 4 3 2 4 6 8 8 5 2 2 1 2 3 5 8 11 13 15 18 19 21 24 27 29 30 32 36 41 43 46 48 48 49 51
9 5 2 3 3 3 2 3 4 4 4 3 3 3 2 1 1 2 3 3 4 4 7 8 10 12 12 13 16 20 23 25 27 29 32 36 39 42 45 45 46 47 50 55
11 9 7 8 5 3 1 1 3 2 0 1 0 1 3 3 2 1 2 4 4 4 5 6 8 11 15 18 21 23 24 26 28 32 34 38 41 42 42 43 46 50 55 60
14 13 10 9 7 4 5 5 4 3 3 4 6 5 5 4 3 4 2 1 2 4 8 11 14 17 19 21 22 23 25 27 30 34 37 39 38 39 42 46 51 56 60 66
13 14 12 10 9 11 9 6 4 5 2 4 6 7 8 6 4 2 3 5 7 10 13 16 18 19 21 22 23 24 27 30 33 36 35 35 37 40 45 50 55 60 65 70
10 9 8 11 15 14 10 9 8 7 6 8 9 7 6 3 1 5 8 10 12 14 17 18 19 19 20 21 24 27 30 32 33 32 33 35 40 45 49 55 59 63 68 74
12 12 10 11 11 7 9 10 11 9 9 12 10 5 3 3 8 11 13 14 16 16 16 17 19 20 21 24 27 30 31 29 29 32 36 40 45 49 54 58 63 68 74 80
14 12 12 14 12 10 10 9 10 11 12 13 9 9 9 10 13 15 16 15 15 17 18 19 20 22 25 27 29 28 26 28 31 36 40 45 50 54 58 63 69 75 80 87
12 11 12 11 11 11 9 8 9 12 14 12 11 11 12 14 16 16 16 17 18 18 18 20 22 24 27 27 24 24 27 32 36 40 46 50 54 58 63 69 76 80 86 82
10 10 12 14 14 13 13 13 12 12 11 10 11 12 15 16 16 17 17 17 18 19 20 22 24 26 24 23 24 27 31 35 41 46 50 53 58 64 68 76 83 88 79 55
11 12 12 12 12 12 12 11 9 9 10 12 14 16 16 16 17 18 17 19 20 21 22 24 25 22 22 24 28 31 35 40 45 49 54 59 65 68 74 83 87 77 55 43
12 13 13 14 13 13 13 13 13 14 16 16 16 17 18 19 19 19 18 19 20 22 24 23 21 22 24 27 31 35 40 44 49 56 60 64 71 74 81 86 79 56 44 29
15 16 16 17 18 18 18 20 21 21 20 20 20 21 22 23 20 18 18 19 21 22 20 20 22 24 26 31 35 40 45 50 56 60 64 69 75 81 85 80 59 45 31 13
19 20 19 19 19 19 20 21 21 22 22 22 23 22 20 18 17 17 18 21 20 19 20 21 23 26 31 36 41 45 49 53 60 65 69 75 82 85 80 62 45 31 12 6
16 17 19 20 20 21 21 22 20 19 18 17 17 17 16 16 17 19 20 18 18 20 21 23 27 31 36 40 44 47 52 58 64 69 74 81 86 85 61 44 30 11 9 11
19 18 19 21 21 21 22 22 21 20 20 19 18 18 18 19 20 18 17 18 19 20 23 27 30 34 38 42 46 51 56 61 68 72 80 85 86 64 49 33 10 12 14 10
26 26 24 23 21 22 22 22 21 20 20 20 21 21 21 21 18 17 18 19 20 22 26 29 32 37 42 45 50 55 59 65 71 80 82 85 68 54 34 7 14 18 14 11
28 27 27 26 25 23 23 22 22 22 22 22 23 22 21 19 18 18 19 20 22 25 27 30 35 41 44 48 52 56 62 68 75 78 80 67 52 31 5 17 19 16 12 8

GFSNGP_500_spd_039.txt.gz
Wind_Speed
19 18 18 19 23 24 25 28 32 30 33 37 32 26 19 24 26 32 26 33 35 40 44 36 39 35 38 37 38 41 43 42 42 41 39 37 36 38 40 40 42 44 46 42
15 14 16 16 21 21 18 19 23 21 24 29 27 24 14 10 16 22 22 28 23 40 41 33 33 33 35 36 36 37 39 41 39 38 36 34 35 33 42 39 48 45 40 44
12 12 9 12 10 11 17 17 18 22 21 24 28 20 19 8 5 5 11 16 23 36 34 29 32 30 30 30 31 34 38 35 33 32 34 35 39 38 39 46 39 41 41 43
6 5 6 7 11 14 18 20 16 20 25 25 26 20 18 6 12 15 19 21 29 26 27 27 29 29 29 28 29 30 29 28 29 28 35 37 37 42 39 38 39 39 41 43
4 3 4 6 9 15 18 19 19 18 20 17 18 18 18 18 20 25 27 25 25 27 26 24 23 22 22 21 20 20 22 24 25 30 32 36 38 38 36 37 38 38 42 45
5 4 4 6 8 12 16 13 16 17 14 14 13 16 14 8 21 19 20 21 20 22 17 15 13 12 13 14 14 18 26 25 33 35 37 36 34 35 33 34 37 41 44 47
4 3 5 6 9 9 12 13 17 17 14 6 15 12 12 23 20 22 19 17 17 15 15 15 15 23 19 25 27 32 35 34 32 30 29 28 27 29 33 37 40 42 44 47
2 3 6 7 9 10 11 12 13 16 7 10 12 19 18 17 16 18 18 18 18 19 20 21 23 26 29 29 27 26 22 20 21 21 22 25 29 32 35 38 40 43 46 49
2 3 5 8 9 10 10 11 11 10 9 7 9 3 5 13 14 10 8 11 9 8 10 10 11 10 9 10 11 14 14 15 18 22 25 28 31 33 35 38 42 45 47 48
0 4 7 8 9 7 8 9 9 9 8 7 8 8 4 3 5 7 9 8 7 8 6 6 6 7 7 8 10 12 15 17 21 24 27 29 31 34 38 41 43 44 43 45
10 10 10 9 7 3 4 7 8 7 6 6 5 5 5 5 5 4 6 5 4 3 2 2 2 4 6 8 11 14 18 20 23 25 27 30 33 36 39 40 40 40 44 48
12 13 12 11 9 8 8 6 6 6 4 3 2 3 3 3 3 3 3 2 2 2 2 3 4 7 9 12 16 18 21 23 25 27 29 32 35 37 37 37 39 43 48 52
15 16 15 13 12 10 10 9 8 7 5 6 4 5 4 3 1 4 4 3 2 3 5 7 9 12 15 17 20 22 23 23 25 28 32 34 34 32 35 38 43 48 54 59
13 12 14 13 12 13 13 11 9 8 6 4 5 8 7 6 4 4 3 3 4 6 9 11 14 17 19 20 20 21 23 26 28 31 31 30 31 34 39 44 49 55 59 64
12 12 12 12 16 17 16 14 12 12 4 5 5 6 6 5 1 2 4 6 8 11 13 14 16 17 18 19 20 22 25 28 28 27 28 30 34 39 44 50 54 58 63 69
14 13 13 13 13 11 12 12 12 10 6 8 9 9 7 6 4 7 10 11 13 13 14 15 17 18 19 21 23 25 27 25 25 27 31 34 39 44 49 54 58 62 69 75
17 16 16 15 14 13 10 10 12 12 14 11 11 12 10 10 10 12 14 14 14 15 16 17 17 19 21 23 25 25 23 24 27 30 34 39 44 48 54 58 63 70 77 83
16 17 16 13 13 11 10 11 11 11 13 15 14 11 10 11 13 15 15 15 15 16 16 18 20 21 23 24 23 23 24 27 30 35 39 44 49 55 61 65 70 77 82 84
15 13 13 12 12 14 15 15 12 12 14 15 14 14 14 13 14 15 16 16 16 17 19 20 21 22 24 22 23 24 27 31 35 41 45 50 54 60 66 71 79 84 84 76
11 12 13 13 13 13 14 14 14 15 14 13 12 13 14 16 17 17 18 19 18 18 19 21 22 22 21 23 24 27 31 36 41 45 49 53 59 66 72 77 85 88 72 53
10 11 12 13 13 14 14 13 13 13 15 16 16 17 18 19 20 20 22 21 18 19 20 22 21 21 22 24 27 31 36 40 44 48 53 58 64 72 78 84 90 71 50 36
12 13 14 14 15 16 16 16 18 19 21 22 21 21 22 22 22 22 19 18 18 20 22 20 20 22 24 26 30 35 39 43 47 52 58 63 71 79 83 90 72 50 35 21
15 18 19 18 18 19 19 19 20 20 20 19 20 20 21 20 18 17 18 18 20 20 19 20 22 23 26 29 33 38 42 47 51 57 61 70 79 83 90 72 54 30 16 3
17 17 18 18 19 20 21 22 21 20 20 20 19 17 17 17 17 18 19 20 19 18 19 21 22 24 27 30 34 40 46 51 55 60 66 76 80 89 69 54 28 8 8 11
23 22 19 19 19 20 20 20 21 21 21 20 20 19 19 19 20 20 20 19 18 19 20 21 23 26 29 33 38 44 51 54 58 62 71 75 87 65 48 25 9 13 11 7
30 29 28 28 27 24 22 22 23 24 23 22 22 21 22 22 23 22 20 19 19 20 21 23 25 29 33 37 41 47 51 54 60 67 70 84 65 43 21 10 13 11 10 9
36 35 33 31 29 29 28 27 26 25 24 23 23 23 24 25 24 22 21 20 21 21 23 25 28 32 35 39 43 48 51 57 62 66 75 71 45 19 6 8 9 8 7 7

GFSNGP_500_spd_042.txt.gz
Wind_Speed
21 19 18 18 20 23 24 28 32 27 34 35 41 47 47 41 23 26 29 30 24 22 30 33 33 34 33 38 36 38 38 36 36 37 40 38 36 36 34 34 35 38 43 41
19 16 16 17 20 18 20 20 24 28 32 37 43 41 35 35 20 21 13 11 15 20 18 20 24 30 27 31 33 36 35 33 34 36 35 32 33 33 34 34 34 38 34 45
17 14 14 11 12 12 15 20 23 27 29 27 32 37 36 21 18 7 1 7 7 8 9 20 23 25 27 27 28 29 28 30 30 29 29 31 32 32 26 31 41 44 48 45
14 12 10 7 7 10 15 21 21 24 25 24 31 33 21 21 9 9 13 11 10 9 18 20 24 23 22 22 23 25 25 24 24 27 28 28 25 34 30 37 42 44 42 42
10 9 8 6 9 10 14 16 21 25 23 18 27 26 12 14 16 25 23 20 19 22 18 21 21 18 17 17 17 19 19 20 23 22 22 23 25 34 36 41 43 44 41 39
10 8 8 8 8 10 11 15 19 22 19 22 25 22 12 19 20 15 19 22 24 19 18 18 18 16 14 12 13 13 13 16 18 20 35 41 31 34 43 41 39 36 37 41
8 6 7 9 7 8 11 13 15 19 15 16 20 20 11 20 15 16 19 18 20 17 12 11 11 13 12 15 15 14 17 32 32 37 29 34 32 34 33 32 34 37 39 40
7 6 7 6 7 9 12 13 13 15 12 10 13 17 12 13 14 18 11 14 17 17 7 9 24 23 17 26 22 21 17 20 28 29 33 30 30 29 30 33 35 36 38 42
6 4 3 8 9 9 11 12 11 11 12 11 9 12 12 12 9 5 5 4 7 10 8 6 9 12 13 15 21 25 24 19 21 25 25 25 27 29 31 33 35 38 41 42
6 1 5 9 9 7 7 10 11 12 9 8 6 6 11 9 6 8 10 11 10 8 6 6 8 8 7 8 10 13 15 16 18 21 23 25 28 29 31 34 37 39 38 39
11 8 10 10 8 7 6 9 12 10 8 6 3 2 5 6 6 5 7 8 8 7 6 4 4 4 5 7 9 11 14 17 20 22 24 26 28 30 33 35 34 35 38 41
16 11 14 13 10 10 9 9 9 10 7 8 6 5 4 4 4 4 5 5 5 4 3 3 2 3 5 8 11 14 16 19 21 23 24 26 29 31 31 31 33 37 42 47
15 15 15 14 13 13 13 12 12 10 10 9 7 4 4 3 1 3 4 5 5 2 1 3 5 7 10 13 15 17 18 20 22 24 26 28 28 27 30 33 36 41 46 52
17 17 15 14 14 14 15 13 15 12 11 9 7 7 8 8 3 5 3 2 2 4 6 8 9 11 13 16 18 19 21 22 24 26 26 25 26 30 33 37 43 48 53 59
18 16 14 12 14 16 16 16 18 15 11 9 7 4 5 6 5 2 2 4 7 9 10 11 13 14 16 18 19 21 22 24 25 23 23 26 29 34 39 44 49 53 58 64
17 15 14 14 15 13 13 14 14 13 10 8 7 7 9 8 7 6 7 9 11 12 13 14 15 16 18 19 21 22 23 22 22 23 26 30 35 40 44 48 53 57 64 72
20 20 18 17 16 14 14 13 12 12 13 16 14 13 14 13 12 13 12 13 14 14 15 15 17 18 19 20 22 23 21 21 24 27 31 36 40 44 48 53 57 66 73 82
19 18 20 18 16 15 13 13 12 13 15 16 17 17 15 13 12 13 14 15 16 17 17 18 19 20 21 22 23 21 22 24 27 31 36 40 45 48 54 58 66 73 81 92
16 14 16 17 16 16 14 13 14 15 13 12 13 14 14 15 16 15 16 18 18 20 21 21 21 22 22 23 21 22 23 26 31 35 39 44 48 53 58 66 72 81 92 90
19 18 16 15 16 15 18 20 16 13 13 15 16 18 15 15 16 17 19 20 21 23 24 22 21 22 23 21 21 22 25 29 33 37 42 48 54 58 65 72 79 92 90 71
11 11 11 12 13 13 13 13 13 13 13 14 15 16 16 17 19 21 23 22 23 22 21 21 22 22 20 22 22 24 27 30 34 41 47 53 57 63 70 76 88 85 65 36
9 9 10 10 11 12 14 14 14 15 16 18 19 20 20 19 20 21 21 20 19 20 21 22 22 20 21 21 23 27 29 34 39 45 51 54 60 68 72 85 79 57 31 15
12 13 14 14 15 15 16 17 17 18 19 18 19 17 18 19 19 18 18 18 20 21 23 23 20 21 21 23 26 29 33 38 42 47 52 57 63 68 78 77 52 23 14 13
17 17 17 17 17 17 19 19 20 20 20 19 19 19 18 18 18 18 19 20 22 23 24 21 21 22 23 26 29 33 37 40 44 49 53 58 65 68 79 52 21 12 12 10
24 23 23 22 20 21 21 21 20 19 20 19 19 20 20 20 21 21 22 24 24 25 23 22 23 24 25 28 32 35 39 43 46 50 54 59 64 72 64 27 10 10 10 9
32 31 29 27 27 27 27 25 23 22 22 22 22 23 23 23 23 23 24 26 25 25 24 24 25 25 28 30 34 36 40 44 47 52 55 61 65 71 45 14 7 6 7 7
37 39 39 38 36 33 31 30 30 29 27 26 25 25 25 26 25 24 25 25 25 25 25 25 25 26 29 32 35 38 43 45 48 52 57 62 70 62 28 11 7 5 5 6

GFSNGP_500_spd_045.txt.gz
Wind_Speed
16 17 14 15 15 17 18 19 20 16 24 31 34 32 41 44 42 37 25 26 20 17 18 19 21 23 23 21 28 26 32 33 35 37 37 35 33 32 32 32 34 35 37 34
17 16 13 13 12 15 13 14 18 20 21 26 26 32 27 34 38 35 26 12 9 4 2 4 6 6 9 14 23 26 28 32 34 32 28 28 29 30 27 32 33 34 35 34
15 11 11 10 9 8 11 15 16 18 21 20 23 24 19 21 24 15 12 7 4 4 6 9 11 11 15 20 22 25 29 29 27 24 24 23 19 29 28 24 33 35 38 51
11 9 9 7 6 7 10 10 14 19 17 19 19 16 13 13 15 15 12 9 7 7 7 7 12 16 18 21 22 23 23 23 23 22 20 25 22 21 23 36 37 36 36 45
10 10 6 5 7 9 10 12 13 15 13 18 12 17 15 14 14 13 12 12 11 10 11 15 18 22 17 15 17 19 18 16 18 18 16 18 25 22 32 33 35 45 43 42
9 9 6 7 6 8 8 10 12 10 12 15 20 13 13 15 13 13 12 14 16 17 20 21 16 14 13 13 13 13 15 15 12 12 20 23 29 31 29 38 37 47 45 45
9 7 7 6 6 5 5 6 9 11 9 14 17 17 14 17 15 8 7 8 13 14 14 13 14 14 16 15 15 13 20 20 19 18 20 25 27 32 30 31 34 37 35 39
8 8 8 4 5 6 5 5 6 10 12 10 11 11 14 16 9 13 9 3 8 9 7 10 9 9 11 7 15 16 12 13 14 18 17 18 22 26 27 27 30 33 36 39
8 6 4 2 4 5 4 7 8 8 9 7 10 8 11 12 14 6 5 6 8 11 13 10 12 14 8 6 3 10 9 6 10 12 15 20 23 25 27 30 34 36 38 40
8 5 2 4 5 4 2 5 7 9 8 8 8 14 8 6 5 7 8 9 6 2 1 2 3 4 5 2 3 4 6 9 11 14 18 21 25 29 31 33 34 36 38 38
12 8 8 6 8 7 5 6 7 8 8 8 9 9 7 5 3 2 3 2 3 3 4 3 3 2 3 3 4 7 9 13 16 20 23 25 27 28 29 32 34 34 35 38
14 12 11 12 11 10 7 7 10 10 11 9 8 8 6 3 3 1 1 2 1 1 4 4 3 1 3 6 9 12 15 17 19 20 21 24 26 28 30 30 32 36 40 44
14 13 14 14 13 11 10 11 10 10 11 10 9 7 6 6 6 5 3 1 2 3 1 2 5 7 9 10 12 13 15 17 20 22 24 26 27 27 29 32 36 40 44 48
17 17 17 16 14 14 12 13 12 13 13 13 10 9 10 10 9 5 3 1 3 4 6 7 8 9 11 12 14 15 17 19 21 23 24 24 25 28 31 35 41 45 49 54
19 17 18 15 14 15 13 13 15 15 13 11 9 7 6 10 8 5 4 5 6 8 9 10 11 12 13 15 16 18 19 21 23 23 22 24 27 30 35 39 44 48 54 62
19 18 16 14 14 15 12 13 14 13 12 9 9 7 7 8 9 9 8 8 10 11 12 13 14 15 16 18 19 20 21 23 22 21 23 25 29 33 37 43 49 55 61 67
21 19 18 18 17 17 16 15 14 12 9 10 11 14 14 13 15 13 14 15 15 14 15 17 18 18 19 20 21 22 24 21 21 22 25 28 32 36 42 48 55 60 66 75
18 18 19 20 20 20 17 16 14 13 13 13 16 17 18 18 15 17 16 17 17 17 18 20 20 22 23 23 24 25 22 21 23 25 27 31 35 41 48 54 58 63 72 82
19 20 20 21 19 20 18 17 16 13 13 14 15 15 17 16 16 17 19 19 18 19 20 21 22 24 25 25 26 24 22 23 25 27 30 35 41 46 51 56 61 67 78 81
15 14 15 15 15 18 20 17 18 19 17 13 12 13 14 16 17 17 18 19 20 21 21 23 24 24 24 25 24 23 24 25 28 31 35 39 43 48 53 58 62 71 77 60
11 12 14 16 19 21 21 17 15 14 14 13 13 14 15 16 17 18 20 20 20 21 21 21 22 23 25 25 23 24 25 28 30 34 38 42 46 50 54 59 65 75 56 29
9 10 11 14 15 15 14 15 15 15 16 16 16 17 17 18 18 18 20 21 21 20 21 22 24 25 26 24 25 26 28 30 33 36 39 42 47 51 54 59 69 63 31 23
11 12 14 14 15 15 16 17 18 18 17 16 16 16 16 16 18 20 19 19 20 21 22 24 25 26 25 24 26 27 30 32 36 37 41 45 48 50 55 61 69 48 23 18
17 17 18 17 17 16 16 17 19 20 19 19 19 18 17 18 20 20 21 22 23 23 25 26 27 27 25 25 27 28 31 34 37 39 43 45 49 53 57 64 67 35 18 15
27 26 25 24 24 23 21 21 20 19 19 20 20 20 20 21 21 22 23 24 25 25 26 27 27 27 26 27 28 29 32 35 38 42 44 46 50 56 58 66 62 24 15 13
32 34 33 32 31 30 29 27 26 26 24 23 23 23 24 24 23 24 25 26 26 26 27 27 27 28 27 28 29 30 33 37 40 42 45 49 51 57 60 67 48 17 13 12
37 36 35 36 38 37 35 34 33 32 30 30 28 28 29 27 26 27 27 27 27 27 29 29 29 29 28 29 30 31 35 38 40 42 46 50 55 57 64 61 32 14 12 11

GFSNGP_500_spd_048.txt.gz
Wind_Speed
13 13 14 15 16 16 14 14 8 13 17 15 21 26 32 32 26 29 36 38 30 22 19 20 20 21 25 27 29 39 36 35 43 46 43 39 41 41 39 35 35 35 35 36
14 15 13 13 13 13 9 8 9 5 13 16 20 25 29 23 20 25 30 34 24 21 12 9 10 11 14 17 17 23 24 28 34 30 29 31 35 33 29 31 29 32 30 28
17 13 12 10 9 7 6 8 9 13 14 14 19 19 21 19 20 22 26 28 27 18 10 3 2 8 12 13 16 18 20 23 24 26 27 28 27 25 28 28 26 29 28 37
15 12 9 7 5 4 7 9 12 14 15 12 16 13 17 21 19 19 24 24 20 16 7 3 2 3 8 18 19 17 16 19 22 24 23 22 24 24 20 22 22 28 32 32
13 10 7 6 6 5 6 10 11 11 10 9 14 12 14 18 16 18 20 22 20 15 10 7 7 7 9 11 15 18 22 23 24 24 23 16 14 17 26 25 23 33 30 38
12 9 6 7 5 4 5 8 10 10 10 9 8 10 7 21 18 14 14 17 17 19 18 17 18 19 18 15 14 14 14 19 22 16 19 16 21 26 28 21 21 26 31 33
11 8 8 8 6 5 5 6 9 10 9 9 7 6 11 13 12 13 10 11 10 13 13 12 10 8 6 9 12 14 8 11 10 13 16 16 11 16 18 20 27 32 33 33
10 11 9 8 6 6 5 6 5 8 10 9 8 9 8 10 11 9 10 8 12 12 4 9 8 12 9 10 6 7 9 5 8 11 14 13 18 20 22 25 27 29 31 34
14 10 8 8 6 5 6 3 2 7 8 10 7 12 12 9 8 11 12 8 7 9 10 15 4 8 11 12 4 2 5 1 3 5 8 11 14 18 21 24 28 30 33 35
14 10 9 7 4 3 4 3 2 6 6 7 9 10 10 12 10 8 8 7 8 8 9 9 8 4 7 8 7 5 3 4 5 8 11 14 18 22 24 26 29 33 35 37
16 13 10 6 4 4 6 7 6 5 7 10 12 10 10 9 10 9 9 8 7 7 6 5 4 3 3 4 5 4 5 7 10 13 17 20 22 23 25 27 28 29 31 35
20 17 13 7 7 10 10 10 9 8 7 9 10 10 10 9 8 10 10 8 8 5 5 5 5 6 6 7 9 10 12 14 16 17 17 18 20 23 24 26 28 32 35 40
19 18 16 13 10 11 11 13 12 10 11 11 11 10 7 9 11 11 10 6 4 4 7 9 9 10 10 10 11 12 13 14 15 17 19 21 23 24 25 27 30 34 38 42
22 20 17 15 13 13 12 12 12 11 12 15 15 10 8 8 13 12 7 4 4 6 9 10 10 10 11 12 14 16 17 18 20 22 23 23 23 25 27 31 34 38 44 50
25 22 19 17 16 14 13 10 11 12 15 13 11 11 8 9 11 13 9 6 7 8 10 12 13 14 16 17 18 18 19 21 23 24 23 23 25 26 29 33 37 43 48 53
22 20 19 19 17 14 13 11 12 13 13 14 11 11 11 8 11 12 11 11 11 13 14 15 16 18 18 19 19 20 22 24 25 23 23 24 26 29 33 37 42 47 51 57
22 20 20 20 18 17 15 15 15 15 14 12 12 11 11 15 14 15 15 15 16 17 17 17 19 20 20 21 21 23 25 26 25 23 24 25 29 33 37 41 46 49 53 56
22 23 21 21 19 19 20 20 18 17 15 14 14 17 18 18 20 19 16 18 18 18 20 20 20 22 22 23 24 25 25 26 24 24 25 28 32 36 40 43 46 49 52 59
21 21 20 19 20 21 22 22 22 20 17 16 17 18 18 18 17 16 15 17 19 19 20 21 23 23 24 23 24 24 26 25 25 26 28 30 34 37 40 44 46 49 56 62
20 20 20 19 18 19 18 16 19 21 18 19 17 17 16 14 13 15 17 18 19 20 22 23 23 23 23 23 24 26 27 25 26 28 30 32 35 38 43 45 47 52 55 64
18 20 19 16 18 20 18 20 20 19 21 17 17 17 15 15 15 16 19 20 21 21 22 23 23 22 23 25 26 28 27 27 28 30 32 35 37 40 44 46 48 53 56 60
19 17 16 16 18 22 21 21 23 22 18 17 17 18 19 19 19 20 20 20 21 22 22 22 22 23 25 26 28 28 28 29 30 31 33 36 37 41 43 48 50 55 58 54
11 15 18 20 22 22 21 20 21 21 20 20 21 22 22 21 21 20 20 20 20 21 22 23 25 25 27 28 29 29 29 30 32 33 35 37 40 43 44 49 52 57 62 46
17 17 16 16 16 18 20 21 21 21 21 20 21 21 21 22 23 23 22 21 22 23 24 25 26 27 28 29 30 31 31 32 34 35 37 39 41 43 47 50 55 61 61 36
26 25 25 24 23 22 21 21 20 20 20 20 20 21 21 22 23 24 25 24 25 26 26 27 28 28 30 31 32 33 33 33 35 37 38 40 42 44 49 53 58 61 54 25
31 30 31 31 32 32 31 30 29 27 26 25 25 25 24 24 25 25 26 27 28 28 28 29 30 31 32 33 34 35 34 33 35 36 38 40 43 47 51 56 61 62 42 17
41 40 38 38 37 35 35 35 36 36 35 33 31 30 29 30 31 30 30 30 31 31 30 30 31 35 34 34 34 34 32 32 34 36 38 40 43 48 54 60 62 53 26 14

GFSNGP_500_spd_051.txt.gz
Wind_Speed
11 11 12 14 16 16 14 16 12 16 13 14 17 17 18 19 22 21 25 29 35 37 43 26 29 30 27 25 27 26 27 32 32 37 40 44 47 49 48 43 44 43 41 39
12 13 14 16 16 14 13 14 12 13 10 12 13 17 17 18 24 23 24 28 32 31 35 25 22 23 18 17 13 14 21 25 23 24 29 34 41 39 38 37 38 36 32 31
15 15 15 14 12 12 12 13 11 10 10 11 12 17 13 18 20 20 21 25 28 26 27 25 20 16 11 4 7 9 9 12 17 20 18 22 26 27 27 26 27 27 31 32
17 16 12 12 12 11 11 8 8 9 9 10 10 13 11 11 17 19 16 20 26 24 19 19 18 12 7 10 3 5 4 10 15 15 19 22 24 23 23 26 26 29 29 28
18 15 12 11 11 9 7 7 7 7 8 10 12 13 14 15 16 12 13 16 19 22 23 18 18 13 8 4 1 4 3 6 12 9 17 20 19 22 20 25 25 28 31 26
15 13 12 11 11 9 8 8 8 6 8 10 12 12 10 13 10 8 14 15 12 14 19 18 17 16 16 9 2 4 3 4 10 14 17 15 12 16 20 19 18 17 23 29
15 14 13 12 10 10 10 8 7 8 9 9 11 11 10 12 12 12 15 11 14 9 11 11 12 11 10 10 13 11 8 6 8 6 4 8 7 10 11 12 14 20 23 25
15 14 13 11 11 11 11 10 9 7 8 10 10 8 10 11 13 11 10 9 9 11 15 6 16 15 12 9 7 9 8 6 5 2 3 5 8 10 12 14 19 21 23 27
15 14 13 11 12 11 12 11 9 6 7 8 7 11 11 11 12 14 11 10 11 11 10 8 6 9 9 7 7 6 5 6 4 3 3 5 9 12 14 16 19 22 24 27
17 16 14 13 12 11 12 12 10 8 8 8 11 11 11 10 10 12 11 9 9 9 9 9 7 7 8 9 8 6 5 7 6 6 7 10 12 14 16 17 20 23 25 27
20 18 15 13 10 10 10 11 10 10 10 10 12 11 10 10 10 10 11 11 9 7 6 7 7 8 9 9 8 7 7 8 9 10 12 13 15 17 19 21 22 22 24 27
25 21 18 15 12 11 8 10 13 13 11 9 11 11 12 9 9 9 11 10 6 4 5 6 7 8 9 9 9 10 12 13 15 15 16 17 18 19 20 20 21 24 27 31
25 24 22 20 15 11 8 8 12 14 14 12 12 13 13 12 12 10 10 9 4 6 7 9 9 9 10 12 13 13 14 14 15 15 17 19 20 18 20 21 24 26 30 34
27 27 25 22 18 14 11 11 11 12 13 13 13 15 12 11 12 12 13 10 6 5 7 9 11 11 13 14 15 16 16 15 16 18 21 20 19 21 22 24 27 31 34 38
28 29 26 23 20 16 14 14 12 11 10 12 13 15 13 13 11 11 11 12 10 9 9 11 13 14 16 17 17 18 17 18 20 22 24 22 21 22 24 27 31 34 38 42
28 27 28 25 22 18 16 15 14 13 12 12 14 16 14 12 11 10 12 13 15 15 15 17 17 18 19 19 19 19 19 21 23 24 24 22 23 25 27 30 34 37 40 45
28 28 26 25 22 20 18 18 17 16 17 15 15 16 15 13 14 14 14 16 17 17 17 18 19 20 21 22 22 22 23 23 24 25 23 24 25 27 29 34 38 39 43 45
28 28 25 24 21 21 20 21 20 20 19 18 17 18 18 18 17 18 19 20 19 18 18 19 21 22 23 24 23 24 23 24 25 26 24 26 27 30 32 36 40 41 45 47
26 27 25 25 23 22 23 23 23 22 20 21 19 21 21 20 20 20 21 19 17 18 20 21 22 23 24 24 23 23 24 25 27 26 26 28 29 32 35 38 40 43 44 48
22 26 24 21 22 22 22 23 21 18 18 20 21 22 20 19 21 21 19 17 18 20 21 23 24 23 24 22 22 24 25 27 28 28 28 30 32 34 36 40 42 45 46 49
16 19 20 21 22 21 22 20 19 20 17 15 16 20 22 22 20 19 19 19 20 23 24 23 24 24 22 23 24 26 27 29 30 30 30 32 34 36 38 41 44 45 48 53
17 17 18 16 15 17 18 17 16 18 20 22 25 21 20 20 20 19 21 22 24 24 24 24 23 22 23 25 26 28 30 30 31 32 32 33 35 37 41 43 46 47 51 55
17 15 17 19 20 20 18 16 18 19 22 27 23 21 21 22 23 24 24 24 24 25 25 22 23 24 25 26 28 30 31 31 32 33 34 35 36 39 42 44 46 49 52 59
15 15 16 17 20 23 24 25 26 27 25 28 28 26 25 24 24 24 24 24 24 24 24 25 26 27 28 29 30 31 31 32 33 34 36 35 37 39 43 45 47 49 57 62
21 21 22 23 24 24 24 24 24 24 23 22 22 23 23 23 23 23 24 23 23 24 25 27 28 29 31 32 33 32 32 34 34 36 36 36 37 40 43 45 48 53 59 61
30 30 30 30 30 30 30 31 31 32 31 30 29 27 26 25 25 25 25 25 26 27 28 30 31 32 33 33 33 32 33 33 35 35 35 36 37 39 42 45 48 55 60 53
28 31 35 39 40 39 38 38 37 36 35 35 35 36 35 33 31 30 30 31 32 31 31 32 32 32 32 34 33 33 32 33 34 34 34 35 36 38 41 45 51 58 54 41

GFSNGP_500_spd_057.txt.gz
Wind_Speed
16 15 15 15 15 13 12 13 12 13 15 17 17 14 13 13 13 14 15 18 18 18 19 21 22 22 20 26 26 30 33 33 32 27 26 25 24 26 26 30 38 42 41 42
15 16 16 14 12 11 12 11 13 12 16 14 15 12 11 13 15 16 17 16 14 14 17 16 14 17 18 22 26 27 28 28 26 19 17 14 8 16 17 18 21 27 36 32
14 15 14 12 11 11 11 12 13 15 14 14 13 14 14 14 14 15 15 13 12 11 12 12 13 14 17 16 21 22 23 23 19 16 11 8 3 7 11 7 7 9 11 14
14 13 12 11 11 12 13 13 12 13 13 14 14 14 15 14 13 15 16 15 13 12 11 13 15 15 16 17 20 20 20 17 16 13 12 9 6 1 4 5 9 12 16 20
14 14 13 13 13 14 14 12 12 13 13 13 12 13 13 13 12 11 12 13 14 11 12 15 10 12 18 18 13 17 14 15 16 16 12 6 8 7 4 3 2 4 11 12
16 16 15 15 15 16 13 13 13 12 11 9 7 6 7 10 14 15 14 12 10 11 11 7 5 9 15 12 12 11 14 14 18 18 12 10 8 5 4 5 5 8 11 18
19 17 18 16 16 16 15 14 13 10 7 7 5 7 5 7 10 13 13 14 11 10 11 13 11 14 12 6 9 10 13 13 13 12 15 9 11 11 3 4 6 5 3 5
23 20 21 19 18 16 16 15 12 11 9 6 8 6 4 6 9 10 10 9 8 7 7 7 7 7 6 7 5 7 11 12 12 12 9 8 9 8 8 8 10 10 11 12
21 21 19 18 18 17 16 16 13 12 10 10 9 8 8 10 9 9 8 7 6 7 7 8 5 6 6 5 6 6 7 9 9 8 8 8 9 10 11 12 12 12 13 14
19 18 17 17 19 18 18 17 15 14 13 13 10 11 9 9 9 9 8 8 8 6 5 4 5 3 4 5 6 6 7 9 10 11 11 12 12 12 13 14 15 15 14 15
17 18 19 19 21 19 19 19 15 14 15 14 13 12 10 11 10 9 8 8 7 6 5 4 4 4 5 5 6 7 9 12 13 14 13 12 13 17 19 19 17 17 18 19
18 20 21 22 21 21 20 18 15 14 15 17 16 15 13 13 10 11 11 10 11 8 8 6 4 3 5 6 8 10 11 13 15 15 15 17 19 21 21 19 19 20 21 23
19 24 23 25 24 21 21 19 15 13 14 15 15 17 15 15 15 13 14 12 12 9 7 7 6 6 7 8 10 12 14 16 18 19 19 20 21 21 21 20 20 22 24 25
21 24 25 27 27 24 24 21 16 14 13 14 14 15 15 15 16 11 12 14 13 11 12 11 10 9 10 12 13 15 17 19 21 21 21 22 21 22 23 22 23 25 27 28
22 25 26 28 30 29 28 25 20 18 16 15 15 14 13 15 15 14 12 14 14 14 13 14 14 15 16 15 16 18 20 21 22 22 22 22 22 24 24 25 26 28 30 32
22 25 27 29 31 32 31 30 26 23 20 18 17 16 14 16 16 15 13 13 13 13 13 14 16 18 18 18 18 20 21 22 23 23 22 23 23 25 27 28 28 30 32 34
24 25 28 28 31 33 33 32 29 26 24 22 19 19 17 19 19 17 15 15 17 16 17 17 19 20 21 21 20 21 22 23 24 23 23 24 25 27 29 29 30 32 34 36
24 24 26 29 30 32 33 32 30 28 26 24 23 23 21 21 21 20 18 17 17 20 20 22 24 25 23 22 22 22 24 24 25 23 24 25 27 29 31 31 32 34 36 37
17 19 22 26 27 29 31 30 29 29 29 30 24 24 24 24 25 24 20 21 20 20 23 25 26 25 22 22 22 23 24 25 24 25 26 27 29 31 32 34 35 37 38 39
9 9 14 20 23 25 28 28 26 26 26 25 26 28 27 26 26 25 23 23 23 23 25 27 27 23 23 23 24 24 25 25 25 26 27 28 30 33 34 36 37 38 39 38
9 7 8 11 16 21 24 24 24 24 25 26 25 26 27 23 21 20 20 21 23 25 27 26 24 23 25 25 24 24 24 25 26 27 28 30 32 34 36 37 38 39 38 37
11 14 14 11 13 17 21 23 24 26 26 25 24 23 26 23 22 22 19 20 21 21 21 22 24 26 26 25 25 25 25 27 27 27 29 30 32 34 36 37 39 39 38 37
11 16 15 15 15 18 19 22 22 23 24 20 18 20 18 19 22 22 19 19 21 22 23 25 26 26 26 26 25 25 26 28 28 29 29 31 32 33 35 37 38 37 37 38
11 12 12 13 19 23 21 17 17 18 20 20 19 21 22 23 22 21 24 24 22 26 29 28 27 27 26 26 27 28 29 29 30 32 31 31 32 33 36 38 38 37 38 39
21 20 19 19 18 18 19 22 25 25 24 24 25 27 27 26 26 29 29 30 32 33 33 30 31 30 29 29 29 29 29 30 31 33 33 33 33 35 37 39 38 39 39 40
23 21 21 23 24 25 24 25 25 26 26 27 28 29 30 31 32 33 32 32 32 32 31 30 33 33 34 35 34 34 34 35 33 34 35 36 35 36 36 38 39 39 40 42
17 18 17 16 16 16 17 19 20 21 23 25 26 28 30 33 36 38 38 38 38 37 37 35 35 34 38 40 39 38 37 34 34 36 36 35 36 36 36 37 38 40 41 43

GFSNGP_500_spd_060.txt.gz
Wind_Speed
15 16 16 16 17 18 19 20 19 20 19 17 19 21 20 19 19 19 20 21 19 19 20 22 22 20 19 15 14 20 24 27 31 35 34 34 35 35 34 30 27 27 31 35
16 15 16 17 18 19 18 17 18 17 18 17 18 16 16 15 14 15 15 16 17 18 20 21 16 16 17 14 10 14 18 20 21 24 25 25 26 21 22 24 10 18 22 23
18 18 18 17 15 15 16 15 15 17 17 16 16 14 14 14 14 15 16 18 17 17 16 17 15 12 14 15 13 11 16 17 15 15 18 19 14 14 17 16 10 14 2 12
17 17 17 16 15 15 14 14 15 16 15 15 14 13 14 15 17 18 19 18 20 20 19 18 19 14 15 17 15 18 16 14 15 12 15 13 11 15 14 12 11 10 7 13
17 17 16 15 14 13 13 14 15 14 14 14 13 14 16 18 19 18 17 15 16 19 19 17 15 17 14 15 14 13 11 11 14 11 13 14 15 14 17 11 8 8 7 7
17 17 16 15 14 14 14 14 14 14 13 13 14 16 15 15 15 16 20 21 19 16 17 15 12 14 14 15 12 7 8 9 11 12 9 9 15 15 13 13 13 8 2 5
18 18 17 16 16 15 15 13 15 14 14 14 15 14 12 11 11 10 12 15 15 17 16 17 19 20 18 14 12 10 12 10 9 10 10 11 13 13 11 12 11 8 7 5
23 21 21 19 18 17 17 16 17 15 15 15 14 12 11 10 8 9 10 11 14 14 12 12 10 12 13 11 11 11 8 7 8 10 12 14 14 14 13 13 13 13 12 12
25 24 24 21 21 20 18 17 17 16 16 16 13 10 12 12 12 11 11 11 11 12 12 13 11 10 11 11 8 6 8 7 10 12 14 14 14 13 13 14 14 14 14 13
21 22 22 22 22 22 21 20 19 18 18 17 15 13 14 13 11 11 13 12 11 12 13 12 11 9 9 9 9 8 8 10 12 14 15 15 14 14 16 16 16 14 14 14
20 21 21 21 21 22 23 21 19 19 18 18 17 16 16 14 11 10 13 11 11 11 12 12 11 11 11 9 8 8 10 12 14 15 16 16 16 18 20 20 20 19 18 19
18 23 21 22 22 23 23 22 21 21 20 19 18 19 18 18 15 13 13 14 14 13 14 14 13 11 10 9 9 10 12 14 15 15 16 17 18 20 21 21 21 21 21 22
19 21 23 23 23 24 23 23 22 22 20 17 18 20 22 20 19 15 14 15 15 14 14 14 13 13 13 12 12 14 16 16 16 17 19 20 21 22 21 22 23 23 24 25
22 22 23 24 24 25 25 24 24 23 20 17 17 18 19 18 16 16 15 15 14 15 15 16 18 17 16 15 16 18 19 18 19 20 21 22 23 22 22 23 24 25 26 28
23 23 23 24 26 26 28 27 26 25 23 19 18 17 17 16 15 15 15 16 17 17 15 17 18 20 20 21 22 21 21 21 21 22 24 24 24 23 24 25 26 28 29 31
24 25 24 25 27 28 29 31 29 29 27 23 21 19 17 17 17 16 17 16 17 18 17 16 16 18 21 22 23 24 24 24 24 25 25 26 25 24 25 27 28 30 32 33
23 23 24 26 27 29 30 31 33 33 32 28 25 22 20 19 18 20 19 18 18 18 20 19 18 20 21 23 26 27 26 26 26 26 26 27 26 26 27 29 30 33 34 36
23 22 23 26 27 29 29 30 33 34 33 32 29 26 24 23 22 22 22 21 21 21 21 22 23 24 25 26 28 27 26 26 27 27 27 27 27 28 29 31 33 35 37 38
18 18 19 22 25 27 30 29 29 33 32 31 30 29 28 28 26 24 24 24 25 24 23 25 25 26 26 28 29 26 25 26 27 27 27 27 28 29 30 32 34 36 38 39
10 10 11 14 19 23 26 27 27 29 30 30 30 29 30 30 30 28 28 28 27 26 26 26 27 27 27 31 27 25 26 27 27 27 27 28 29 29 31 33 35 37 38 39
8 7 6 6 10 13 17 22 23 25 26 27 26 26 28 30 28 27 28 26 24 26 27 25 27 31 31 26 25 26 28 28 28 28 28 28 29 30 31 33 34 35 37 40
10 12 10 10 10 12 14 16 19 21 23 23 24 25 26 26 28 28 27 26 25 24 24 26 25 24 23 24 26 28 29 28 29 29 29 29 30 31 32 33 34 35 37 41
7 11 14 13 14 15 16 18 19 21 23 25 25 24 26 26 23 21 22 23 22 22 20 20 21 24 26 28 29 29 30 30 30 31 31 31 32 34 35 34 35 36 38 40
13 13 13 13 16 22 21 19 20 20 20 20 20 21 22 22 22 21 23 23 24 24 26 26 28 29 29 30 30 32 32 32 32 32 31 32 35 36 36 37 39 39 39 39
24 23 22 21 21 20 19 22 24 23 22 23 24 26 26 27 28 28 28 29 30 31 33 34 35 34 36 34 33 34 34 34 35 34 34 37 36 40 40 39 39 39 40 40
26 26 26 26 26 26 27 27 26 25 24 24 25 25 26 27 28 29 30 31 31 32 34 34 33 34 34 35 36 34 35 39 39 36 37 38 40 40 40 39 38 39 41 41
13 13 14 16 18 18 17 16 17 19 20 21 21 22 23 23 24 25 25 26 27 28 30 32 34 36 38 41 41 41 41 41 40 38 41 41 39 40 39 37 38 39 41 40

GFSNGP_500_spd_063.txt.gz
Wind_Speed
18 19 19 20 19 19 19 23 27 28 28 27 23 21 24 25 25 25 26 25 24 22 22 22 24 25 26 27 23 20 17 16 17 16 16 19 19 25 31 34 37 42 30 35
17 18 16 18 19 19 23 23 24 27 25 22 22 23 23 23 23 22 21 22 22 23 23 23 24 25 24 25 23 20 19 18 19 18 18 20 20 22 25 29 30 33 29 29
16 17 16 16 18 20 20 23 24 21 24 20 20 20 20 20 21 20 20 19 20 21 20 19 20 20 22 22 22 18 20 22 22 19 20 20 19 20 21 26 24 22 24 25
17 18 18 17 17 19 20 20 18 20 19 18 18 18 18 18 19 20 19 19 18 19 23 25 24 23 23 24 22 20 20 22 18 18 17 18 18 15 18 21 24 23 19 17
18 19 17 20 19 17 17 17 18 19 18 19 18 17 17 18 18 19 19 18 19 20 20 21 24 23 21 24 22 20 20 18 17 16 17 18 18 20 19 19 21 20 18 15
19 18 19 16 17 17 17 17 18 18 17 17 16 17 16 16 16 17 18 21 23 24 23 20 23 22 20 18 20 22 19 16 16 18 17 17 16 17 20 21 22 21 19 18
19 19 18 17 17 18 18 15 16 16 16 17 17 17 17 16 15 14 14 14 15 17 19 21 21 22 23 23 23 20 20 19 19 14 13 16 19 19 21 22 22 21 19 17
21 21 22 19 19 18 16 15 18 18 19 19 17 17 16 16 15 14 12 13 14 14 16 18 18 17 19 20 18 16 18 18 16 15 16 17 19 20 19 20 20 21 20 19
27 26 24 23 21 20 19 19 19 21 20 20 18 17 17 17 15 15 15 15 14 14 14 16 18 17 19 19 17 15 15 15 15 16 17 18 19 19 19 19 21 20 18 17
26 27 29 29 27 24 23 23 21 21 21 20 20 20 19 17 17 17 16 16 16 16 15 15 15 15 16 16 16 15 15 15 14 16 17 18 19 20 20 20 21 20 20 19
25 26 26 27 28 25 25 25 23 23 23 22 21 21 21 18 17 18 18 17 15 16 16 15 15 15 15 16 16 16 14 14 15 16 18 19 20 20 20 22 21 20 20 21
21 25 26 25 24 25 26 24 25 25 24 23 22 22 23 21 19 19 20 18 16 17 18 18 18 18 17 16 15 15 16 16 16 18 20 21 20 21 22 23 22 22 22 24
21 23 25 24 26 26 26 25 25 26 25 23 22 22 23 22 22 23 23 21 22 20 20 19 18 18 18 18 18 19 18 19 21 22 22 22 22 24 24 24 24 23 25 26
23 25 26 25 24 27 26 26 26 26 26 23 22 22 22 21 22 23 24 22 22 21 18 21 20 18 21 22 22 21 22 24 25 24 24 24 25 25 26 25 25 26 27 28
26 26 27 27 25 25 27 27 28 27 26 24 23 22 20 17 19 20 22 22 20 20 21 22 22 21 21 23 24 25 27 28 28 27 27 26 27 27 28 27 26 27 29 31
24 25 26 26 26 26 26 28 28 30 29 28 27 24 21 18 17 19 20 21 20 20 19 21 21 21 22 23 24 24 25 27 29 30 30 29 29 29 30 28 28 29 31 33
24 25 25 25 26 27 27 28 29 30 31 31 30 28 25 21 19 18 20 21 22 22 21 20 22 23 24 24 24 26 27 29 30 30 29 29 30 30 31 29 30 31 32 34
25 24 24 25 27 27 27 26 27 29 31 34 32 32 30 28 24 22 22 23 23 24 23 23 23 25 27 28 28 29 29 29 30 29 28 29 30 31 32 31 32 33 34 35
17 18 19 22 25 27 28 27 27 28 29 30 33 34 32 32 29 27 26 25 26 25 26 27 29 29 28 29 30 30 29 30 28 27 28 31 31 32 32 32 33 34 35 36
12 12 13 14 16 19 22 24 26 27 28 28 30 33 33 33 32 32 30 29 29 30 31 30 31 31 32 29 29 30 33 32 29 29 30 31 31 33 33 33 34 35 35 35
5 6 7 8 7 9 13 17 20 23 26 27 29 31 32 31 31 29 29 30 31 29 29 29 26 28 30 30 33 35 32 29 29 31 32 32 33 34 34 35 36 37 37 36
6 8 9 11 11 9 9 11 12 16 19 22 24 27 27 27 27 27 28 29 29 30 29 29 30 30 29 32 31 27 27 29 31 31 32 33 34 35 36 37 39 40 41 41
5 7 9 11 13 14 13 13 14 15 16 18 22 24 26 27 28 28 29 30 29 27 27 26 26 26 26 25 25 27 29 29 30 31 32 33 33 34 35 37 42 42 42 44
11 12 13 14 14 15 17 21 21 19 19 20 20 21 22 22 23 23 25 24 23 24 24 25 27 27 28 29 31 34 33 34 34 33 35 34 35 37 39 41 41 42 45 45
21 22 23 23 23 23 21 20 21 23 25 25 23 24 24 25 27 27 28 28 30 31 30 30 32 33 34 32 33 35 36 37 36 36 34 36 35 37 40 40 42 44 43 45
27 28 29 30 29 28 27 27 27 28 29 28 27 25 26 26 27 28 28 28 30 30 31 31 31 32 33 33 34 35 36 38 39 40 41 42 43 42 43 47 43 43 44 45
24 18 15 15 14 15 17 18 19 18 18 20 22 24 25 25 25 26 26 26 26 27 27 26 26 27 28 30 31 32 34 36 37 39 41 42 42 43 46 45 44 44 44 44

GFSNGP_500_spd_066.txt.gz
Wind_Speed
19 20 21 20 21 21 19 20 27 28 27 25 22 23 19 23 25 24 24 24 25 24 25 26 26 27 26 24 25 26 26 25 24 25 25 25 23 25 26 25 27 29 31 33
18 21 22 23 24 22 20 22 23 28 32 28 26 22 24 23 23 24 24 23 23 23 23 24 24 23 23 24 25 25 24 25 25 27 26 24 26 27 26 27 25 28 29 30
15 17 19 19 21 21 22 23 25 26 25 23 20 20 22 20 22 22 22 22 22 22 22 22 23 24 22 21 22 23 22 22 23 25 28 26 24 23 24 27 29 27 27 28
14 17 18 17 16 17 19 21 19 20 20 18 19 19 19 21 21 22 22 22 22 22 21 21 23 24 22 22 24 25 24 24 24 26 24 23 23 23 24 25 23 24 26 28
19 16 15 16 15 14 16 17 18 19 18 19 19 19 20 20 20 20 21 22 23 22 21 21 20 21 24 25 24 24 26 25 24 22 20 21 22 23 20 22 25 26 28 29
17 17 18 14 16 16 15 17 18 19 19 18 18 19 19 19 19 19 19 21 21 20 21 22 23 23 21 23 22 23 22 22 22 19 19 21 21 19 22 24 25 26 28 28
18 17 17 14 17 18 18 14 16 17 17 18 18 17 17 18 18 16 15 14 14 15 16 17 20 22 23 22 24 24 24 24 19 20 21 20 19 21 23 24 24 26 27 25
17 16 17 15 17 17 16 15 16 16 17 18 18 18 18 17 16 15 15 14 13 14 13 14 17 18 19 20 21 22 22 20 18 19 19 18 19 21 21 23 24 25 24 21
23 21 19 19 19 19 19 19 17 18 18 18 19 19 18 17 17 16 17 15 15 15 15 15 16 16 16 19 19 18 19 18 18 17 18 18 20 20 21 22 24 24 23 22
26 28 27 26 24 23 23 21 19 19 19 19 20 20 21 19 18 18 17 16 15 16 16 17 16 15 15 15 16 16 17 18 18 17 18 19 20 20 21 23 23 24 23 22
24 24 27 27 28 27 28 27 24 24 23 22 22 22 23 22 20 20 19 18 18 16 17 16 16 17 16 16 16 17 17 18 17 17 19 20 20 22 23 23 24 25 24 24
17 18 22 23 25 26 27 28 27 27 26 25 25 24 23 23 23 23 21 19 19 19 19 17 18 19 18 19 18 17 17 16 17 18 20 22 24 25 25 25 25 27 26 26
12 11 17 19 22 25 26 26 27 27 27 26 26 26 25 23 24 25 24 21 21 22 24 21 22 22 20 19 19 19 19 20 21 21 23 25 26 27 27 27 28 29 28 28
15 15 18 20 22 25 27 28 27 27 26 26 26 26 26 23 23 25 26 24 24 24 25 25 22 21 21 21 20 22 24 24 23 24 26 28 28 29 29 29 30 31 31 31
21 20 22 24 26 26 27 27 28 27 27 27 27 26 25 23 23 23 22 21 21 21 23 23 22 22 23 23 23 22 23 24 26 27 27 28 30 31 30 30 31 32 34 33
25 25 26 27 29 28 27 27 27 28 28 30 30 29 27 26 23 21 19 18 19 19 19 21 21 20 20 22 24 24 24 25 26 28 30 30 31 31 30 31 32 33 34 34
29 28 28 27 25 26 28 27 27 27 28 30 31 32 29 28 26 24 21 17 17 18 20 21 22 22 21 22 25 27 28 28 29 31 31 32 32 29 28 30 32 33 34 35
26 26 28 28 27 26 26 27 27 27 28 30 30 31 32 31 30 29 26 23 20 20 21 22 23 24 24 25 27 29 31 31 32 32 33 33 32 30 29 31 32 34 35 36
26 24 24 25 26 27 28 28 28 29 29 29 30 31 31 33 33 34 32 29 27 26 26 25 26 27 28 29 30 31 31 32 32 32 34 35 33 31 31 33 34 35 36 37
14 15 16 17 19 21 23 25 26 28 28 28 29 31 31 32 34 35 34 33 32 32 32 31 30 31 32 31 31 30 32 32 31 34 36 34 31 31 33 34 35 36 37 39
5 5 7 7 9 9 9 12 15 18 22 25 26 27 29 29 31 33 34 33 32 32 30 30 31 32 32 32 31 31 32 32 33 35 31 31 31 32 33 33 35 37 38 40
3 6 7 8 8 8 9 9 8 10 12 15 19 22 25 26 27 29 30 30 31 30 30 31 32 33 34 33 33 35 34 33 30 28 29 30 32 33 33 34 34 35 38 43
3 3 4 5 7 8 10 10 10 9 9 11 12 14 17 20 22 25 27 28 29 30 31 32 31 30 30 30 29 29 27 27 28 30 33 35 35 35 36 35 37 39 43 44
9 10 10 10 11 13 15 15 15 15 16 16 15 15 16 17 19 22 24 26 26 25 26 27 25 25 25 26 28 29 31 35 35 35 36 38 40 39 39 40 43 47 47 46
20 19 19 20 20 22 22 22 22 21 20 20 21 21 22 23 23 22 23 24 25 27 28 30 31 33 33 32 33 34 34 36 37 35 36 36 36 36 38 41 43 46 46 49
27 27 26 26 26 27 23 22 23 24 25 25 26 27 28 27 26 26 27 28 29 30 32 32 32 31 32 32 32 31 31 31 31 32 34 35 36 38 39 40 42 45 45 46
27 28 28 27 24 19 21 18 15 15 18 18 18 17 18 19 22 24 26 28 28 29 29 29 30 30 30 30 30 31 33 34 34 36 37 37 38 39 39 40 42 46 46 47

GFSNGP_500_spd_069.txt.gz
Wind_Speed
18 19 20 20 22 25 23 20 24 24 23 18 18 19 17 18 22 24 24 25 25 25 26 26 26 26 27 27 28 28 28 27 27 27 27 26 26 28 29 30 30 30 32 32
17 21 22 23 23 22 21 24 21 20 25 23 21 21 17 20 21 21 23 23 23 23 24 24 24 25 26 27 27 26 25 25 27 27 26 26 26 30 31 30 28 28 30 32
15 17 21 24 24 24 24 25 25 26 22 25 23 19 18 21 23 23 22 22 22 22 22 23 24 24 25 23 24 24 25 24 24 23 24 24 27 29 30 28 28 28 28 28
14 17 20 19 23 24 23 24 24 24 26 22 17 16 21 20 23 22 22 23 23 23 22 21 21 22 23 22 23 23 24 23 24 25 25 26 26 25 25 24 27 26 26 27
17 17 17 15 18 20 20 22 21 22 22 17 17 19 19 20 21 22 23 23 22 22 22 22 22 23 22 22 24 26 27 25 25 26 25 23 23 22 23 24 24 24 26 27
15 16 16 12 15 18 14 15 16 18 16 17 18 18 20 20 21 22 22 21 21 21 22 22 22 20 22 23 22 22 24 24 23 23 22 22 21 21 21 22 22 24 25 28
15 14 14 14 16 16 18 14 14 15 17 17 18 20 19 20 20 19 19 19 18 17 17 17 17 18 20 22 24 24 24 24 24 25 24 24 21 20 21 21 22 23 25 28
14 15 14 15 14 15 14 15 15 15 14 16 18 18 19 19 18 18 17 16 15 14 14 14 15 15 15 16 17 19 21 23 23 22 21 21 20 20 19 21 22 23 26 27
18 17 15 14 16 15 17 17 16 17 15 15 16 17 18 18 18 17 16 17 17 16 15 15 15 14 12 13 14 16 17 17 17 18 18 18 19 20 20 21 23 24 25 26
22 23 23 22 19 19 18 18 18 18 17 16 16 18 19 19 18 17 18 18 18 17 15 15 15 15 12 13 14 14 15 16 16 17 18 18 18 19 20 22 24 25 26 26
22 22 23 23 24 25 25 24 23 21 21 20 20 20 21 20 20 20 19 18 18 19 18 16 15 15 15 15 15 15 16 17 17 17 17 18 19 19 21 23 25 26 27 27
19 18 19 22 22 23 25 26 27 27 27 26 25 25 24 24 22 21 21 21 20 20 20 18 18 17 18 18 18 17 17 18 18 18 18 19 20 21 23 26 27 28 28 29
16 15 14 13 15 18 22 24 25 26 27 28 28 27 27 26 24 23 24 25 23 23 24 21 21 21 21 20 21 20 18 18 18 20 22 23 25 25 27 28 29 30 31 31
20 17 13 11 11 13 15 20 23 26 27 27 27 27 28 27 25 25 25 25 25 27 28 25 23 21 21 20 19 22 20 21 22 23 25 26 27 29 29 30 32 34 34 33
26 22 18 17 15 18 22 23 24 25 27 27 26 27 27 27 27 27 27 25 24 26 27 23 22 23 21 21 21 23 24 23 23 24 25 27 28 29 31 32 35 36 35 33
27 26 24 23 23 21 23 28 27 27 27 28 28 28 29 29 29 28 28 26 23 23 22 20 21 21 22 22 21 21 22 24 25 26 27 28 30 32 33 34 35 36 34 33
25 26 27 28 29 29 28 31 30 29 29 28 28 29 30 30 31 31 31 28 24 22 22 21 22 22 23 23 23 23 23 24 26 28 30 32 33 34 35 35 37 36 34 34
28 29 30 31 32 32 29 28 28 28 30 30 29 29 31 31 33 34 33 32 29 26 24 23 23 22 23 24 24 24 25 27 29 31 32 33 34 35 36 36 36 35 35 36
30 33 32 29 29 29 28 28 28 28 30 31 32 31 31 33 34 35 36 34 34 33 31 28 27 26 26 26 27 28 30 31 32 31 33 34 35 36 37 36 34 35 36 36
21 21 22 23 23 24 24 24 24 25 26 28 29 31 32 33 34 34 34 36 37 37 37 35 33 32 33 34 33 33 33 33 33 32 34 35 36 36 35 33 33 34 33 35
10 8 9 11 12 11 12 13 15 18 19 21 23 25 27 29 30 32 33 34 36 37 37 36 35 36 37 35 33 34 36 35 35 33 36 36 36 35 32 32 33 34 35 37
5 6 8 9 10 10 11 11 11 11 11 11 14 17 19 21 24 26 28 29 30 32 34 34 34 33 32 32 33 33 34 35 36 36 34 33 32 32 33 35 36 38 38 40
5 5 5 5 4 4 5 8 10 11 11 11 11 12 12 14 16 18 20 21 23 26 28 30 31 32 33 33 31 31 30 31 32 31 29 32 35 38 38 38 39 40 39 41
11 10 9 9 8 8 10 12 14 15 14 13 14 13 13 12 13 14 16 18 20 22 24 26 27 27 26 26 26 26 27 29 30 32 34 36 36 37 39 38 37 37 39 40
19 20 19 18 17 17 18 18 20 21 22 20 18 18 17 17 17 18 19 20 20 22 23 23 25 26 29 32 33 33 34 35 36 37 37 37 37 35 35 36 37 38 39 41
23 26 27 26 25 24 23 22 18 15 15 18 20 21 22 23 23 24 25 25 24 25 26 27 28 30 31 32 33 34 34 33 33 33 33 34 35 37 38 38 38 39 42 43
21 23 24 26 27 26 24 22 20 20 16 13 14 16 17 17 16 16 17 18 20 21 22 23 25 26 27 28 30 31 33 34 35 36 37 37 38 38 38 39 41 42 43 45

GFSNGP_500_spd_072.txt.gz
Wind_Speed
20 21 22 22 23 28 31 24 23 20 25 23 21 23 23 24 25 25 29 31 32 32 31 32 34 34 35 37 36 34 33 32 31 31 31 31 31 31 31 30 30 31 33 35
22 23 25 27 27 22 24 28 27 22 22 20 21 19 16 15 21 21 23 26 26 24 24 25 26 25 27 28 28 29 29 30 29 29 29 29 29 30 30 29 29 32 35 35
22 24 25 28 24 27 27 27 28 30 20 24 22 23 23 24 25 21 21 21 21 22 23 24 24 25 26 26 27 27 28 27 26 26 27 27 28 27 28 29 30 31 31 31
18 23 25 19 22 25 26 27 30 27 26 28 20 19 23 24 23 23 24 21 23 23 23 24 24 24 25 24 24 25 26 26 26 25 25 27 28 27 28 28 28 29 28 29
24 22 19 18 20 22 24 23 23 25 27 25 20 19 21 22 21 22 22 23 23 23 22 22 24 24 23 23 24 25 26 27 28 29 28 27 27 27 27 26 26 25 26 27
22 21 19 15 17 18 20 19 17 18 19 18 17 17 20 18 20 21 21 21 21 20 20 21 22 24 24 25 25 26 25 24 25 26 25 24 25 24 25 25 24 24 25 25
21 19 15 15 18 16 17 17 16 16 15 15 17 19 18 20 19 18 18 19 19 20 20 21 22 24 25 25 26 26 26 27 26 24 24 24 26 26 26 26 25 25 24 24
19 18 18 17 16 15 17 17 19 15 16 18 19 19 21 21 20 21 20 20 19 19 20 20 20 20 19 20 19 18 17 19 21 24 25 26 25 23 23 23 23 23 24 25
18 16 16 17 16 17 17 18 17 18 17 16 17 20 20 18 20 19 19 19 20 21 20 19 18 17 17 17 17 15 15 17 19 19 18 19 20 20 21 21 21 22 23 25
21 21 20 19 16 16 16 17 19 19 19 17 16 17 17 18 18 18 19 18 19 20 20 19 17 16 16 18 18 15 14 15 16 18 19 19 21 20 21 21 21 22 23 25
20 22 22 22 23 22 22 20 19 19 19 19 18 17 16 17 19 21 20 19 19 19 19 19 18 18 18 18 18 17 16 17 18 18 19 20 21 21 22 22 22 24 26 28
22 22 22 24 23 23 23 24 25 24 24 23 23 23 22 21 21 22 23 21 21 20 21 21 20 20 20 19 19 18 18 19 20 20 21 20 20 21 22 24 26 27 30 30
23 22 20 21 23 23 23 23 23 25 26 27 27 28 28 28 27 25 25 24 23 23 24 24 23 23 24 23 21 20 21 22 21 21 21 22 22 24 26 28 29 31 31 31
25 23 22 20 19 17 16 15 16 19 23 26 27 27 29 31 30 29 28 27 26 26 26 28 28 27 26 25 24 22 21 22 24 23 23 25 26 28 29 30 32 31 32 34
28 26 25 23 20 19 17 16 17 18 19 23 27 27 27 28 30 30 29 28 27 27 28 29 29 29 29 28 26 24 23 23 25 27 26 26 28 29 30 32 32 33 35 35
31 30 28 27 25 23 22 21 20 22 24 26 27 28 27 27 29 30 30 31 29 28 29 29 28 28 27 27 26 25 25 24 25 27 27 28 28 30 32 33 35 37 36 36
33 31 29 30 29 28 27 27 28 29 30 29 30 31 29 28 28 30 31 31 32 30 31 29 29 27 27 27 27 25 25 25 26 26 27 28 29 31 33 36 37 37 38 39
28 31 29 27 29 31 31 33 34 33 34 32 31 31 31 30 29 30 31 32 33 33 33 32 31 29 26 27 28 28 27 27 27 28 28 30 31 33 35 37 38 38 39 41
23 26 29 31 33 33 34 33 33 33 34 31 30 30 31 31 32 32 32 32 34 35 36 34 34 33 31 30 29 28 29 29 29 31 32 34 35 35 38 39 39 39 39 38
26 28 30 32 35 34 33 32 32 31 30 28 27 27 28 30 31 32 33 33 34 34 36 38 37 38 38 35 34 33 33 34 36 36 35 35 37 38 39 41 40 39 38 36
21 22 21 17 14 14 15 17 16 16 17 19 20 22 24 26 27 28 29 31 31 32 35 36 38 39 39 39 39 39 39 38 35 36 38 39 42 43 40 40 39 38 37 35
7 7 8 7 7 8 9 10 11 11 12 13 14 15 17 19 21 23 24 26 27 28 30 31 32 34 37 39 39 36 36 35 36 37 38 39 38 38 38 37 36 36 39 40
8 9 11 12 13 13 15 13 10 11 12 12 13 14 14 14 15 16 18 20 22 24 26 28 29 30 31 32 33 35 36 36 35 35 33 33 32 31 31 34 36 39 41 41
9 11 11 9 6 6 9 10 10 11 12 14 15 16 16 15 15 15 15 16 17 19 20 22 23 24 26 28 30 30 29 29 30 31 32 34 35 37 38 39 39 40 41 40
13 17 20 21 21 19 18 18 17 16 17 18 19 20 19 17 17 17 18 19 20 21 21 22 23 24 25 26 27 28 31 33 36 38 38 39 40 40 40 39 38 37 38 39
19 19 21 25 28 28 27 25 23 21 19 18 16 13 17 19 20 19 19 19 19 21 22 24 25 26 27 28 30 31 31 31 31 31 32 34 35 36 37 38 39 40 40 40
21 20 19 18 20 23 25 26 25 24 21 18 17 14 13 14 14 15 15 16 17 18 20 21 22 23 24 26 27 28 30 31 32 34 35 37 38 39 40 42 43 44 44 45

GFSNGP_500_spd_075.txt.gz
Wind_Speed
22 21 21 21 24 30 34 30 32 27 26 25 27 24 22 23 28 30 31 33 33 34 35 40 40 42 44 43 44 46 45 44 41 41 40 39 37 37 36 35 35 35 35 33
24 25 25 26 27 28 27 28 31 30 29 24 27 26 18 23 26 29 32 32 31 31 32 32 31 33 35 35 34 35 36 37 38 38 35 35 35 33 32 32 32 33 32 32
24 26 27 30 24 29 28 28 25 30 23 29 25 22 22 21 24 25 22 26 26 30 31 29 30 30 30 30 30 32 32 32 33 33 32 32 30 30 30 30 30 30 29 30
25 24 28 22 21 25 27 28 30 27 23 26 26 23 20 24 25 25 23 24 23 24 24 26 26 26 26 28 29 28 28 29 29 28 28 28 28 28 27 28 29 29 29 30
28 26 26 19 20 23 25 22 27 28 28 29 25 23 20 21 25 27 26 24 23 28 22 23 25 25 25 25 25 25 25 26 26 27 28 27 28 28 29 29 30 28 27 28
26 27 26 20 21 22 22 18 23 21 22 26 21 18 18 26 26 24 21 22 23 24 25 26 25 24 24 24 23 23 23 24 25 27 28 29 29 28 28 27 27 26 26 26
23 23 18 18 21 21 21 20 20 18 18 17 17 23 27 22 21 22 22 23 24 24 24 23 22 22 22 22 24 25 24 25 26 27 28 28 28 28 28 28 27 27 26 25
21 19 14 21 18 20 20 18 19 19 15 17 20 18 17 19 22 23 21 20 20 20 20 20 20 20 21 22 23 23 22 23 24 26 26 27 28 28 28 28 27 25 24 24
22 19 19 20 20 19 19 19 19 17 19 14 16 19 20 19 18 19 22 23 21 20 21 20 20 20 20 20 20 19 20 21 22 21 21 22 23 23 23 22 22 23 23 24
21 21 20 19 18 20 20 20 20 21 21 21 20 14 16 18 19 19 21 23 22 21 21 21 21 20 20 20 19 19 20 21 20 19 19 19 20 21 22 22 23 23 23 25
22 23 25 25 24 22 20 20 20 20 20 19 18 18 16 16 16 19 22 22 21 20 20 20 21 22 20 19 19 20 20 20 21 20 19 19 21 21 22 22 22 23 25 26
26 27 23 25 25 25 25 25 23 22 21 21 20 20 19 19 19 19 19 21 23 22 21 21 22 23 23 21 20 19 22 22 23 23 22 22 23 24 24 24 25 25 27 30
30 29 26 23 23 24 25 24 24 24 25 26 27 27 26 26 26 25 24 24 23 24 24 23 23 24 25 23 23 22 23 25 25 25 25 24 24 26 25 26 27 30 31 32
28 28 26 25 23 22 22 23 24 24 24 24 25 27 29 30 31 31 31 29 27 26 27 25 25 27 26 27 27 27 26 28 29 27 27 27 26 27 29 29 30 32 33 33
29 28 27 26 24 23 22 22 21 20 19 18 18 20 24 28 29 30 31 31 30 28 30 30 28 28 27 29 31 31 29 30 31 29 28 27 28 29 31 32 32 32 33 34
31 31 29 27 26 26 25 24 23 21 20 20 22 22 23 24 28 30 30 30 31 32 31 31 31 30 28 29 30 31 31 29 29 29 29 27 29 31 32 33 33 33 33 34
28 30 32 30 28 29 29 28 27 26 26 26 26 28 29 27 28 31 31 31 30 30 31 33 32 31 29 30 30 31 30 29 28 29 29 29 29 29 30 30 32 33 34 36
27 28 29 30 31 30 31 32 31 31 31 32 33 34 34 34 32 31 33 31 30 30 32 34 35 34 33 32 31 32 30 29 29 30 31 30 30 30 31 32 34 35 38 39
25 22 22 25 28 30 29 30 32 33 35 36 36 37 36 36 34 32 33 32 33 32 33 32 34 36 36 35 35 33 32 30 29 30 30 31 31 32 34 35 37 38 41 43
24 22 19 19 21 25 29 32 34 36 38 37 36 36 34 32 32 31 30 32 33 32 32 31 32 35 37 38 35 37 37 36 34 33 33 34 35 36 37 40 42 42 44 46
17 19 21 22 25 26 28 25 23 23 23 26 28 29 29 29 28 27 28 29 29 30 31 30 30 32 34 35 37 37 36 37 36 36 37 37 36 37 38 40 40 42 45 44
9 12 15 17 17 17 17 17 17 17 19 18 17 17 17 18 18 20 22 24 25 27 28 28 29 29 30 31 32 33 35 37 38 38 37 37 38 39 40 41 40 38 38 38
7 8 9 11 12 13 14 16 17 17 18 16 15 16 16 16 16 16 17 18 18 19 21 23 24 25 27 28 30 30 31 32 34 35 36 37 37 36 35 33 34 34 35 37
4 6 9 10 11 13 17 16 11 9 10 12 14 15 16 17 18 16 16 16 16 16 17 18 20 21 22 23 24 25 27 29 31 32 32 33 34 35 37 39 41 40 40 42
4 7 11 16 20 23 22 20 19 20 19 18 17 16 16 17 20 19 17 17 18 19 20 21 22 23 23 23 25 27 29 30 31 32 34 36 36 36 35 35 35 35 36 37
10 12 15 16 17 20 25 28 30 29 28 25 23 21 19 16 14 18 20 20 19 18 16 16 18 20 22 24 25 27 28 30 31 31 31 32 32 33 34 35 37 39 40 42
17 18 18 18 18 17 17 18 22 25 28 28 27 24 21 19 17 15 15 16 16 17 18 19 20 21 23 24 26 28 29 31 33 34 36 37 39 40 41 42 43 44 45 45

GFSNGP_500_spd_078.txt.gz
Wind_Speed
27 27 27 24 26 29 33 35 35 31 29 24 23 27 27 26 27 26 28 31 32 32 31 32 39 42 46 39 34 34 36 40 41 42 43 44 44 43 41 40 40 40 38 37
30 30 28 26 25 26 28 29 35 33 27 26 30 30 27 28 30 32 33 32 34 34 35 33 33 33 35 52 48 46 45 45 46 48 50 49 46 41 42 41 38 35 33 32
27 28 29 30 21 26 27 26 27 30 23 27 31 28 27 28 29 29 29 36 37 33 35 37 34 33 33 32 36 40 41 39 37 40 38 38 37 36 36 34 32 31 31 30
26 25 31 23 21 27 28 25 29 30 25 25 24 29 28 22 23 28 27 33 33 34 34 34 37 38 35 29 30 32 33 33 33 34 34 34 33 33 31 30 30 29 28 28
29 27 28 24 21 23 28 22 27 27 27 27 29 27 20 19 20 20 25 26 25 25 25 26 25 26 27 29 31 31 30 30 30 31 31 31 30 29 29 28 27 28 29 29
29 27 27 23 24 25 25 21 24 24 22 26 30 25 19 28 28 29 27 24 25 25 23 25 29 27 24 26 26 27 27 28 29 28 27 27 27 27 28 30 30 29 29 27
26 27 22 20 25 28 26 23 20 22 20 20 21 22 28 28 31 26 23 20 21 22 23 24 24 25 25 25 24 25 26 25 25 24 25 26 26 27 28 27 28 28 27 27
20 20 14 18 21 24 24 23 21 20 19 17 18 22 23 24 24 23 22 22 22 23 23 23 23 24 24 24 23 23 23 24 25 26 26 27 28 29 29 26 26 27 28 29
22 16 18 18 17 21 20 20 19 19 19 19 16 19 17 17 19 20 22 23 24 21 19 20 21 21 22 22 22 22 22 22 21 22 22 22 22 22 23 23 24 25 25 25
24 20 19 18 17 20 21 19 19 20 20 18 21 18 17 21 22 21 19 20 20 23 23 23 23 22 22 21 20 19 19 20 20 20 21 22 23 22 21 21 22 22 24 25
26 21 23 23 21 19 19 20 20 20 19 21 18 23 21 17 17 19 20 20 20 21 20 23 24 23 24 23 22 21 21 20 21 22 21 21 21 21 21 22 23 24 23 22
26 30 25 25 23 23 24 24 22 20 20 20 20 19 18 20 21 17 18 18 18 20 22 22 21 22 23 23 23 22 22 21 22 23 23 23 23 24 25 25 25 26 27 27
34 32 27 25 23 22 23 25 26 26 26 25 25 24 23 22 21 22 23 21 22 21 22 24 25 25 24 23 24 25 24 24 24 24 24 26 27 27 26 26 28 28 28 29
33 31 28 29 25 22 21 22 25 27 28 28 27 27 27 28 28 28 29 28 29 28 27 26 26 28 28 26 25 26 27 27 28 28 27 28 30 30 31 31 30 30 30 32
27 31 29 28 26 24 23 22 22 24 27 27 27 26 26 26 27 27 28 29 30 31 32 31 31 30 30 29 28 28 28 30 31 31 31 31 31 33 33 33 34 34 33 35
25 22 23 24 24 25 24 23 23 22 23 22 22 20 19 20 20 22 24 26 28 30 31 31 31 33 33 33 33 31 29 29 30 31 32 32 32 33 33 33 33 34 34 35
23 20 22 27 29 27 25 24 24 24 24 24 23 23 23 24 25 27 27 25 26 30 31 32 33 32 32 33 33 33 31 30 31 29 30 30 30 30 32 32 31 32 33 33
26 25 25 22 24 29 29 26 25 27 28 29 29 29 29 30 31 34 35 35 31 29 33 34 34 32 32 33 34 34 33 31 31 30 30 29 29 29 31 32 31 32 33 34
29 29 24 22 19 21 25 30 29 26 28 31 33 34 35 36 38 39 39 37 36 34 34 34 33 33 33 35 34 36 35 35 35 34 32 30 29 28 29 31 31 32 34 37
23 26 26 19 17 20 22 25 27 28 30 32 35 37 39 41 42 41 40 38 37 35 34 33 33 33 34 34 34 35 37 37 37 36 37 36 34 33 34 35 35 35 38 41
17 16 17 20 21 20 20 21 24 26 29 28 28 30 30 31 33 34 35 36 35 33 32 32 32 32 33 33 34 34 35 35 35 37 36 36 36 35 35 36 37 38 40 41
9 10 12 14 17 19 19 19 20 21 21 22 23 23 22 24 27 28 26 26 27 28 29 30 31 32 32 33 34 34 34 34 33 34 35 36 38 37 38 39 39 41 41 40
6 5 3 4 6 9 12 15 16 17 18 19 22 25 23 22 23 24 22 20 18 18 18 19 20 22 24 25 27 28 28 29 30 31 31 32 33 34 34 35 36 35 35 37
5 4 5 7 9 11 13 15 18 22 25 20 14 14 16 16 16 20 20 18 17 17 17 17 17 18 18 19 20 21 22 22 23 24 26 28 30 32 34 35 37 39 40 39
7 5 4 6 10 14 16 20 23 24 23 21 20 23 23 21 21 21 18 21 19 18 19 20 21 22 22 22 23 23 23 24 25 27 29 31 33 34 36 37 38 38 36 37
11 8 8 10 13 14 16 17 18 20 24 28 30 30 30 27 25 22 20 18 22 23 23 22 21 19 18 19 20 21 22 23 25 26 28 30 31 32 34 36 38 40 42 43
17 16 16 18 18 17 17 18 18 18 17 18 21 25 27 28 27 24 21 20 19 20 20 20 20 20 21 22 23 25 27 29 31 33 35 38 40 42 43 45 46 48 49 50

GFSNGP_500_spd_084.txt.gz
Wind_Speed
38 35 32 35 31 31 29 30 34 29 32 27 29 27 30 26 29 33 35 31 31 33 33 34 37 36 39 41 43 44 45 45 46 45 45 48 49 49 46 47 50 48 48 46
26 33 37 36 37 35 32 31 32 31 30 26 28 35 33 31 28 31 33 34 33 32 32 30 32 34 33 37 40 39 39 41 42 44 45 45 45 45 46 43 39 42 41 40
33 27 31 35 34 36 32 30 28 26 18 22 24 28 33 35 34 31 32 33 31 31 35 31 28 30 34 37 38 40 40 42 43 47 47 49 49 44 42 44 45 44 45 44
32 31 34 29 25 28 29 27 27 27 21 22 22 22 24 27 29 31 32 33 33 32 34 32 33 33 35 36 40 43 43 43 43 41 41 36 44 50 51 51 51 50 41 39
28 28 32 25 21 21 23 21 23 23 23 23 21 22 25 25 25 29 32 35 33 34 30 30 31 33 34 36 40 41 41 42 43 40 39 36 34 34 34 33 33 37 38 37
30 29 29 22 20 20 22 22 24 25 23 22 22 22 23 25 26 27 28 27 29 27 24 24 24 26 28 27 31 40 45 47 41 32 32 31 30 32 30 32 33 31 31 31
30 29 28 21 22 23 25 25 27 27 27 24 21 20 22 24 24 27 29 27 25 24 25 24 24 25 25 26 28 30 33 34 27 29 26 29 31 29 33 31 27 28 28 28
25 27 24 20 21 25 27 26 25 26 25 24 22 20 21 23 23 24 24 25 26 26 25 24 24 25 24 24 24 23 22 24 29 24 26 29 29 29 29 31 31 31 31 30
20 24 23 19 21 23 25 24 23 23 22 22 22 21 20 20 21 22 23 24 25 24 24 24 23 23 23 23 24 23 22 22 24 25 26 25 26 28 29 29 29 29 29 29
22 20 21 20 20 19 18 18 17 17 17 18 18 18 17 19 20 21 21 21 21 21 21 21 22 23 20 18 18 19 21 21 22 23 24 23 22 23 24 24 25 26 27 26
19 20 21 21 19 16 15 17 17 17 18 18 17 17 17 16 19 17 17 18 19 19 19 20 22 22 22 23 22 23 23 23 23 23 23 22 22 22 22 22 22 23 24 25
23 22 26 24 21 18 16 18 17 17 17 18 17 18 17 19 20 20 23 20 19 20 20 20 22 23 22 21 21 21 22 22 24 25 26 24 23 22 22 22 22 22 24 25
26 25 23 26 23 22 19 17 18 19 19 19 20 19 19 19 20 18 16 24 25 21 21 22 20 20 19 24 21 21 22 21 22 23 25 25 24 24 24 25 26 27 27 28
36 30 23 26 27 26 22 20 19 19 20 22 23 23 23 22 22 22 21 19 19 21 24 23 24 24 25 24 23 25 26 26 26 24 23 24 25 26 26 27 28 28 29 30
33 32 27 23 24 28 27 22 21 20 19 19 20 23 26 26 25 24 23 23 24 25 26 26 28 29 29 30 30 30 30 30 30 31 31 31 30 30 31 31 31 32 31 32
33 30 29 20 19 22 26 26 22 21 21 21 20 21 22 24 26 26 24 24 24 24 23 23 23 23 23 25 28 30 31 32 32 32 32 33 33 32 31 32 32 33 34 34
29 26 18 11 11 14 19 22 21 21 21 21 21 20 21 21 21 22 22 21 21 21 20 20 21 21 22 23 24 25 30 33 33 33 34 34 35 35 34 34 33 31 31 31
26 23 16 13 9 11 13 14 19 23 24 23 22 21 21 21 21 22 22 22 24 25 26 27 28 29 29 30 31 30 30 31 34 34 35 36 36 36 36 34 32 31 31 31
19 19 16 10 11 15 18 20 19 19 23 26 28 27 25 23 23 24 26 28 30 31 33 34 36 37 38 38 37 35 33 33 34 35 36 36 37 39 40 40 38 35 34 35
12 13 13 17 19 19 21 21 19 19 20 21 23 25 27 28 28 29 30 32 33 35 37 39 40 41 41 40 39 38 38 37 37 37 38 37 37 37 37 39 40 40 39 39
19 18 16 18 19 19 19 19 23 21 18 17 18 19 20 21 24 26 28 28 28 29 30 32 33 35 36 37 39 40 40 39 39 39 39 39 39 38 37 37 38 40 40 41
16 17 15 16 16 15 15 15 16 19 19 19 20 22 22 22 22 22 23 24 25 27 26 28 33 35 31 31 34 37 37 38 38 37 37 37 37 37 37 36 36 36 37 37
10 10 9 7 6 5 6 7 8 10 11 13 14 16 17 19 22 23 25 25 24 23 21 24 27 26 26 27 29 28 28 28 29 29 30 29 30 31 31 32 32 33 33 34
14 13 13 13 11 10 9 10 11 12 13 15 16 19 21 24 25 24 25 26 23 22 24 27 24 23 24 27 25 24 24 23 23 23 24 25 25 26 26 27 27 27 28 28
20 17 16 16 13 9 7 6 6 7 8 10 12 14 16 17 20 24 26 28 28 27 28 31 28 23 24 23 20 18 19 22 24 25 26 26 26 26 26 27 27 28 28 29
14 17 19 20 18 16 15 13 12 12 13 15 15 15 16 16 16 17 18 21 25 30 32 31 28 26 24 24 25 25 24 23 21 21 23 23 24 24 25 26 28 30 33 35
26 27 25 25 25 24 23 21 19 19 18 18 19 20 20 20 19 19 19 21 22 23 23 24 26 27 27 27 26 26 26 26 25 25 26 28 30 32 34 35 36 38 39 41

GFSNGP_500_spd_087.txt.gz
Wind_Speed
38 41 34 35 38 36 36 32 33 29 29 24 23 25 25 28 30 32 33 29 29 28 28 27 27 29 29 29 32 36 41 44 47 47 47 47 46 45 46 44 46 45 46 46
32 33 32 36 34 31 35 36 32 29 25 27 28 29 27 27 29 31 26 27 29 29 28 30 30 29 29 32 35 36 39 42 45 46 47 44 42 42 43 45 45 44 45 44
29 32 22 33 32 34 33 32 33 31 28 26 25 26 25 26 29 30 32 32 29 28 29 32 32 31 32 31 32 32 34 36 37 38 38 39 42 44 45 46 46 47 45 42
35 27 37 28 25 25 31 34 35 35 30 26 26 25 25 25 28 32 37 37 33 31 31 33 32 29 29 32 33 33 33 35 37 39 40 42 42 44 45 46 49 48 51 48
23 30 34 37 28 28 29 27 28 31 29 27 26 26 25 26 28 30 33 36 35 36 34 33 34 31 32 32 33 34 35 37 39 41 43 43 43 43 42 41 40 36 37 39
27 27 29 33 28 26 26 20 25 25 24 23 23 24 25 26 28 27 29 30 31 31 29 32 33 32 32 29 29 32 34 33 34 37 40 43 45 41 39 38 36 35 32 31
21 23 26 26 20 22 24 25 23 25 23 23 23 22 23 26 29 26 29 30 30 27 24 25 29 28 26 26 29 29 30 31 32 33 36 34 33 30 30 29 28 30 32 31
20 22 28 24 22 23 25 25 23 24 24 24 24 24 24 24 26 25 25 28 30 29 28 28 30 30 29 31 30 29 28 26 24 25 24 26 26 26 29 27 29 33 32 35
20 19 22 22 22 22 24 25 26 25 24 24 25 25 24 25 24 24 22 23 25 27 29 30 30 30 30 29 26 26 28 29 28 26 23 24 24 25 26 27 29 29 30 30
26 26 22 20 22 23 25 24 23 23 23 22 22 21 22 24 24 23 22 21 22 23 25 27 27 27 26 25 25 24 22 22 22 23 24 24 23 23 24 24 23 23 24 25
29 28 27 23 22 22 19 18 19 19 19 19 18 19 20 21 22 23 23 22 22 22 21 22 24 25 25 25 25 25 25 25 24 23 24 24 24 23 23 24 23 23 22 22
35 28 30 27 24 20 18 18 18 19 19 19 20 19 19 21 21 21 21 22 20 21 21 21 22 24 24 21 22 25 24 24 23 22 22 24 25 25 25 24 23 23 22 23
38 27 25 29 26 21 19 18 17 18 18 19 19 19 19 20 21 21 24 22 21 26 26 26 27 23 21 24 25 24 24 25 23 21 23 23 23 24 25 26 26 25 25 24
35 32 30 29 25 25 21 20 18 17 18 20 21 22 21 21 21 22 22 22 21 20 22 28 29 30 29 28 29 27 23 27 27 24 28 28 23 22 21 23 25 26 27 27
35 35 33 28 23 23 24 24 21 19 21 22 22 21 21 22 23 24 25 26 25 24 23 22 22 24 24 26 27 29 28 29 30 30 30 29 29 30 30 28 28 28 29 30
27 32 34 33 25 23 21 24 27 26 25 24 25 24 23 22 22 23 26 28 28 27 27 27 27 27 27 28 28 28 28 30 31 32 33 34 34 34 34 34 33 32 32 33
21 31 28 21 23 20 20 22 25 25 25 26 26 27 26 25 23 23 23 25 27 27 27 26 25 23 21 21 21 23 24 26 27 27 29 31 33 34 35 36 36 37 36 36
14 23 25 20 19 15 12 11 14 18 22 24 25 26 26 25 24 24 23 23 24 24 25 25 26 27 28 28 29 30 31 32 33 33 33 34 34 34 36 37 37 37 37 36
12 19 22 23 13 11 17 18 17 20 20 21 25 28 30 28 27 25 25 25 26 27 28 29 31 33 35 36 37 39 40 41 41 40 39 39 38 37 36 38 38 39 40 41
10 16 18 19 15 22 25 24 24 24 24 22 22 22 23 26 28 30 31 30 29 29 30 32 33 35 36 37 39 39 41 43 44 44 43 41 41 40 40 39 39 40 39 40
14 11 14 15 16 22 23 22 24 24 24 25 22 21 20 20 21 22 22 23 25 26 28 28 28 29 32 34 36 37 37 38 40 42 45 46 43 41 41 41 40 40 40 40
15 17 17 17 18 19 24 25 24 22 19 18 20 21 20 21 22 22 23 23 23 23 24 26 28 30 28 31 34 36 36 35 36 36 39 42 42 41 40 39 38 38 39 39
12 14 18 21 14 12 14 15 15 14 13 13 14 15 16 17 18 19 21 22 24 26 27 28 29 25 27 29 29 26 26 30 33 33 34 35 36 36 35 35 34 35 35 36
14 15 14 15 14 15 15 15 14 13 13 13 14 14 14 15 16 19 22 26 28 27 27 29 29 30 30 30 30 27 27 28 31 31 32 31 30 30 29 29 29 29 29 30
18 16 17 19 18 19 20 16 12 9 9 9 8 9 10 12 13 15 16 17 17 19 23 26 30 32 34 34 30 28 26 25 23 22 22 23 25 27 28 29 31 32 33 34
19 21 25 23 24 24 23 21 19 17 15 14 13 13 14 16 17 18 18 18 17 18 19 20 21 22 23 25 27 28 28 27 27 27 26 26 26 26 28 30 31 31 31 31
24 24 24 25 24 22 23 25 27 26 25 23 22 21 20 20 21 22 23 24 24 23 22 22 22 23 24 25 26 27 29 29 30 30 30 30 30 31 32 33 34 36 37 38

GFSNGP_500_spd_090.txt.gz
Wind_Speed
32 35 40 32 31 33 31 30 32 24 23 23 23 21 20 24 28 34 33 33 31 30 29 26 26 24 22 21 21 22 23 27 30 33 37 40 42 44 46 47 47 48 47 46
25 27 28 26 39 27 33 35 36 33 29 23 22 22 21 21 23 24 25 27 31 30 28 27 26 26 26 25 25 24 24 26 29 31 35 38 42 45 47 48 47 46 45 45
17 23 28 24 24 35 33 30 28 31 27 27 20 19 20 21 21 23 24 26 27 28 28 26 26 27 28 28 26 27 29 29 29 31 33 35 38 40 40 39 39 41 43 44
5 20 28 25 21 21 26 26 28 29 27 27 25 22 20 22 22 23 25 28 31 35 35 31 28 29 30 29 25 26 27 29 30 31 32 36 38 39 40 40 40 41 41 43
8 19 26 26 24 26 20 19 20 23 26 29 30 27 25 25 24 25 25 28 32 37 39 39 35 33 30 31 29 30 30 31 33 34 36 38 39 41 41 42 43 41 42 41
23 20 15 20 24 23 26 23 21 23 26 26 26 27 27 27 27 28 28 30 33 35 38 38 37 35 33 31 33 32 30 32 33 34 36 38 37 37 40 39 39 41 43 42
24 15 16 19 16 16 23 25 25 25 23 24 25 26 27 26 26 28 26 26 31 32 32 31 29 30 30 30 30 29 28 29 30 31 32 34 34 35 38 35 34 32 33 32
31 30 20 17 21 22 23 23 22 22 24 23 22 22 22 23 25 25 25 25 26 29 30 29 29 28 28 27 28 29 31 32 32 33 31 30 28 28 27 25 26 27 28 26
20 18 22 22 19 25 24 23 23 23 24 23 23 23 23 24 24 25 24 23 25 27 28 30 31 32 32 31 31 33 32 30 30 30 30 30 29 27 24 26 26 28 27 30
21 25 21 20 18 19 25 24 23 23 25 25 24 22 22 24 24 24 23 22 22 23 25 26 27 28 29 29 28 28 28 28 27 26 24 24 24 25 24 23 22 23 23 23
21 33 32 32 26 23 25 22 21 20 20 21 21 20 19 20 22 23 22 22 22 22 23 24 24 25 26 27 27 26 26 27 26 27 27 27 26 26 25 24 23 23 23 23
30 30 38 34 30 29 23 20 20 20 20 18 17 18 18 18 19 20 21 21 21 22 20 22 24 24 23 23 25 27 27 24 24 25 25 25 24 24 24 23 23 25 25 24
31 29 35 32 32 35 27 21 21 19 19 18 17 17 17 18 19 20 21 22 22 22 22 24 24 23 25 26 20 33 29 27 26 26 25 26 25 22 21 23 22 21 23 25
27 21 32 32 30 29 26 23 20 19 17 18 18 18 17 19 20 21 22 23 23 23 22 22 22 26 28 30 29 32 26 28 30 25 27 27 28 28 28 27 22 22 21 22
17 17 33 29 24 23 23 25 22 20 19 18 18 19 20 21 23 25 25 25 25 25 25 24 23 23 23 24 27 29 29 29 27 30 28 28 30 30 30 30 29 29 29 27
13 14 30 29 25 22 18 17 22 23 22 20 20 21 21 22 23 24 25 26 27 29 29 29 28 28 28 28 29 29 30 30 31 30 29 29 30 31 32 32 33 34 34 34
14 9 27 27 24 24 17 16 17 19 21 25 26 26 25 25 25 27 27 26 26 26 27 28 30 30 29 29 29 28 27 26 25 25 27 27 27 28 29 30 32 33 34 35
15 9 21 22 20 20 21 19 19 17 14 16 21 24 27 28 28 28 28 28 28 27 26 26 27 27 28 28 27 28 29 31 32 33 34 35 36 36 36 35 36 36 35 36
11 8 17 19 19 16 19 18 11 13 16 19 20 21 23 27 29 30 28 28 27 27 27 27 27 28 29 30 31 33 35 37 40 41 43 44 45 45 45 43 42 42 41 39
13 12 15 18 18 20 16 10 20 24 23 25 25 26 25 24 24 25 27 31 33 33 31 30 30 30 31 33 35 35 36 37 38 40 42 42 43 44 46 47 46 45 44 42
11 7 8 14 16 14 18 21 20 20 22 25 28 28 27 26 23 23 22 23 23 24 24 25 26 28 29 29 30 30 33 34 36 41 43 43 41 42 42 45 46 47 46 44
14 20 19 15 16 18 18 22 25 25 27 29 25 22 20 21 22 22 23 23 24 24 24 24 25 25 26 28 30 31 31 30 36 37 31 31 34 37 38 37 39 41 42 42
19 17 18 19 19 19 20 15 14 17 18 18 18 18 17 18 18 19 20 20 21 23 24 25 27 29 31 32 32 33 33 33 34 32 30 31 34 36 36 34 34 35 37 38
22 19 19 19 21 17 15 14 15 16 19 18 17 15 14 13 13 13 13 14 15 16 17 20 24 27 28 29 30 32 33 35 35 31 30 31 29 27 29 35 37 34 33 34
26 23 20 18 23 21 19 17 18 19 18 13 11 11 10 10 11 10 11 12 13 14 15 15 16 17 18 19 20 21 23 25 27 28 28 29 30 30 29 28 27 29 30 32
28 27 26 23 21 20 22 25 24 25 23 22 19 17 16 15 14 13 13 14 16 18 20 21 21 20 20 19 20 21 22 23 25 26 27 28 29 30 31 32 32 31 31 32
26 31 30 28 26 25 23 22 23 25 25 25 26 27 27 26 26 26 26 26 25 25 26 25 25 24 24 26 26 26 27 28 29 31 32 32 32 32 33 34 35 36 36 36

GFSNGP_500_spd_093.txt.gz
Wind_Speed
26 36 34 33 31 33 35 33 36 25 24 21 20 25 28 28 37 31 32 33 34 32 31 29 27 26 27 27 25 25 23 23 24 23 23 23 27 29 32 32 34 37 39 40
28 22 32 33 35 27 28 34 32 30 27 26 23 22 22 23 26 31 35 33 32 30 29 29 29 29 29 29 30 27 24 25 26 26 25 24 26 28 31 34 37 40 41 42
31 17 17 28 26 27 32 25 29 28 23 26 23 23 21 23 24 23 24 25 26 30 29 30 31 32 31 31 32 30 28 27 27 26 25 25 26 28 31 34 37 39 41 41
32 1 9 19 21 16 21 30 35 29 26 25 24 26 26 21 20 23 25 25 27 31 31 30 31 30 30 28 31 32 32 30 27 25 25 27 29 31 33 35 36 39 41 42
25 7 13 13 13 18 19 16 27 29 26 27 26 24 25 24 25 22 24 26 27 29 31 33 35 35 33 31 32 32 32 33 30 29 28 30 33 35 37 38 38 39 41 42
26 18 5 8 14 21 20 21 20 19 19 19 21 26 28 29 29 26 26 27 27 27 28 32 36 40 41 40 38 36 34 34 33 32 32 32 33 33 33 34 35 38 38 38
26 26 19 10 14 13 18 23 25 23 21 20 18 22 25 27 28 29 29 28 27 27 29 31 29 30 31 36 36 37 36 34 35 35 35 34 32 32 32 31 31 34 34 31
16 18 21 24 15 17 18 19 20 22 23 22 20 20 23 24 26 28 29 27 25 26 28 28 28 30 28 28 30 32 33 33 33 33 32 33 33 33 32 31 31 29 28 28
14 19 19 24 30 29 23 21 22 23 20 22 22 22 22 22 23 25 26 27 26 25 27 27 27 26 29 29 29 31 31 31 32 34 34 33 31 30 30 30 29 28 27 26
9 13 18 20 24 23 21 21 24 24 25 24 24 24 23 23 23 24 24 24 24 25 25 25 25 25 26 28 30 31 32 32 33 31 31 30 29 27 26 25 24 25 26 24
21 23 20 24 34 22 21 18 20 25 24 23 23 24 23 24 23 22 22 22 23 23 23 23 23 23 24 25 27 28 28 29 30 29 29 28 28 28 27 28 29 29 28 27
31 23 23 28 32 35 33 28 22 23 22 23 23 22 21 22 20 20 20 20 20 20 21 21 21 22 24 25 26 26 26 26 27 28 28 27 26 26 27 27 27 27 27 26
33 31 26 24 37 37 34 27 24 21 22 24 23 20 19 19 19 19 19 19 19 20 20 20 22 20 24 23 25 25 25 21 27 28 26 26 26 26 27 28 27 25 24 25
35 30 28 26 29 35 35 28 25 24 23 22 22 21 21 19 18 18 18 19 19 21 22 23 24 23 22 23 28 28 27 28 30 27 27 28 28 26 28 30 28 28 27 26
35 31 24 15 14 28 26 24 22 26 22 19 19 20 21 20 20 20 21 21 22 23 24 25 25 25 24 24 24 24 26 28 29 29 29 30 28 30 30 31 32 32 31 30
34 30 22 4 16 17 17 18 20 21 21 19 19 20 20 19 19 20 21 22 24 25 27 29 30 30 30 29 29 29 29 29 29 30 31 31 31 31 31 30 29 30 30 32
31 29 17 10 16 17 17 19 18 16 14 19 22 24 23 23 23 23 24 25 27 27 28 28 27 28 30 31 31 31 31 31 32 31 31 30 28 28 29 29 29 30 31 31
28 29 18 7 20 20 19 18 14 13 15 17 16 15 17 20 24 27 29 29 30 29 29 30 29 28 27 28 28 30 30 30 30 30 31 31 33 35 36 38 39 40 41 41
25 25 15 6 17 20 20 20 21 20 17 13 12 15 18 20 22 24 26 28 29 29 29 30 30 29 28 27 28 29 30 31 32 34 35 37 40 42 43 45 46 47 47 47
22 21 15 10 16 19 19 17 17 21 20 18 21 21 24 26 27 27 26 25 25 26 28 31 33 34 33 31 30 31 31 32 34 35 35 36 36 36 39 43 46 43 41 41
19 17 12 10 12 15 18 21 19 15 16 19 23 26 27 27 28 28 27 25 24 23 22 23 24 25 26 27 27 28 30 30 30 31 33 34 34 38 40 38 37 41 43 42
20 19 16 17 17 17 19 22 20 19 25 29 29 29 30 29 25 23 21 23 23 24 24 24 25 25 26 26 27 27 29 31 33 34 35 35 37 37 37 35 35 35 38 42
21 20 20 19 20 24 23 25 24 22 19 18 20 21 22 22 21 21 21 21 20 20 21 22 23 25 27 29 31 32 32 32 33 33 34 35 36 36 34 33 33 35 37 39
24 21 21 22 22 21 24 22 21 17 16 15 16 17 17 18 16 15 14 15 15 15 14 15 15 16 17 18 19 21 22 23 24 24 25 27 28 29 30 30 31 32 33 32
25 24 23 24 23 21 21 22 22 21 19 18 16 18 15 13 14 14 14 14 15 15 15 15 16 18 18 19 18 17 17 18 19 20 22 23 24 25 27 28 30 31 32 33
27 28 27 26 27 25 24 23 27 29 29 27 26 23 24 24 21 20 19 19 18 18 19 20 20 21 23 23 23 24 24 25 25 25 26 27 29 30 31 33 35 36 35 35
28 28 28 26 25 28 29 28 26 27 26 23 26 28 27 26 27 28 29 30 31 32 32 31 29 29 29 29 29 30 31 32 34 34 35 36 38 39 41 42 43 43 43 44

GFSNGP_500_spd_096.txt.gz
Wind_Speed
30 27 27 17 29 36 32 33 32 27 26 25 24 26 26 28 30 30 37 38 37 38 37 38 37 35 32 30 29 27 28 28 28 31 32 31 27 29 25 27 35 40 37 34
40 26 34 32 24 24 22 31 27 30 31 29 31 30 29 29 27 33 38 39 39 37 38 39 38 36 34 34 33 31 31 32 32 32 32 33 30 27 27 28 30 29 32 36
32 30 13 22 31 32 28 25 30 33 25 34 35 32 28 26 28 25 28 41 37 34 35 37 37 38 37 36 34 34 34 35 37 37 36 34 31 30 30 31 30 29 31 32
16 30 25 15 21 30 31 32 31 29 31 27 24 24 26 26 26 24 26 27 31 31 33 35 40 40 39 40 37 36 35 36 39 40 37 34 33 33 33 32 31 32 34 36
12 17 14 7 12 21 22 25 32 26 31 31 29 26 29 30 27 26 26 28 29 29 30 34 39 39 37 38 39 37 34 35 37 38 38 36 34 34 32 32 33 34 35 35
14 22 13 12 14 13 16 23 20 21 29 38 34 30 30 29 28 31 31 29 28 31 31 30 31 35 39 39 37 38 37 37 35 35 35 37 39 39 36 35 35 34 34 32
10 20 30 18 7 12 16 19 19 22 22 24 27 27 28 30 32 32 33 34 32 32 31 29 30 30 31 33 35 40 44 42 41 39 38 38 38 40 39 38 36 35 35 32
11 12 17 24 21 16 13 15 18 23 27 29 26 25 24 26 29 32 33 34 34 32 32 31 30 29 31 30 29 28 29 32 36 38 39 39 39 39 37 35 35 35 35 34
7 11 15 17 18 21 25 20 18 21 25 27 30 29 26 24 25 27 29 30 30 30 29 30 31 30 29 28 28 29 29 31 32 34 35 35 34 35 35 35 35 34 33 32
11 13 15 18 17 20 26 29 33 30 26 26 28 25 25 25 24 26 28 26 27 29 28 29 29 28 28 28 27 28 30 32 33 33 33 33 34 35 35 33 32 30 30 29
18 22 20 17 24 26 23 30 30 27 28 28 28 28 26 24 24 23 23 25 26 26 26 26 26 25 24 24 26 28 30 31 32 32 32 32 33 33 31 30 30 31 30 31
27 26 26 25 22 31 37 27 28 23 18 20 22 22 21 22 23 23 23 23 22 22 23 24 24 24 23 23 25 26 28 29 29 29 29 29 29 29 30 30 30 29 30 29
31 29 28 27 28 26 40 42 41 32 22 18 19 20 20 17 21 21 21 20 19 19 20 20 21 22 23 22 23 25 26 27 27 26 24 23 29 29 29 29 28 29 31 28
36 31 30 26 24 23 23 40 33 30 24 19 20 21 21 21 21 19 19 19 19 19 20 20 21 21 23 25 25 24 25 27 26 26 30 31 26 27 31 32 29 28 29 30
33 31 30 26 20 17 13 28 27 24 21 18 19 20 22 23 23 22 21 20 21 21 22 23 24 25 26 26 27 26 26 25 26 29 31 33 32 32 31 32 32 33 32 32
34 31 31 24 14 8 11 25 22 18 15 15 20 21 18 18 20 20 20 21 21 22 23 24 25 26 28 29 30 31 31 31 30 30 31 31 31 31 32 32 33 33 33 31
37 30 28 22 5 4 9 14 16 13 11 12 14 15 17 19 18 19 21 23 24 24 25 26 27 27 27 28 29 30 32 33 33 33 32 32 32 32 32 32 31 30 30 31
37 31 24 20 7 7 8 11 18 20 19 18 14 16 18 18 19 20 21 24 26 29 31 31 31 30 30 30 29 29 29 29 29 29 30 30 30 31 31 32 33 35 37 39
35 29 21 18 13 10 15 16 16 17 15 14 19 20 17 15 16 18 19 21 23 24 26 27 28 30 30 30 29 29 29 28 28 29 29 30 31 32 34 35 37 38 40 41
34 28 18 14 14 10 16 20 20 19 20 23 23 25 21 27 24 25 26 26 26 26 26 25 25 25 26 28 31 33 33 33 32 32 32 33 33 33 33 34 34 35 38 41
34 31 19 15 15 15 14 19 23 24 22 24 20 19 18 21 26 28 29 29 29 28 25 25 24 23 23 24 25 26 27 27 28 28 29 29 30 32 34 36 38 39 40 40
34 35 28 18 17 17 19 20 17 21 25 22 25 29 30 30 30 31 30 27 25 23 23 24 24 24 24 24 24 25 25 26 27 28 29 31 33 36 36 36 37 38 38 37
34 35 34 23 21 20 19 21 24 26 27 29 26 23 21 20 22 24 24 22 22 24 24 22 20 19 18 18 19 20 23 26 29 30 30 30 30 30 31 32 32 32 33 33
35 35 36 29 22 23 23 21 21 23 27 25 24 20 18 16 17 18 20 21 20 19 19 18 16 14 14 14 14 15 16 17 17 18 19 20 21 21 21 22 23 24 26 28
36 37 38 34 26 26 25 25 22 24 28 28 26 25 21 18 18 17 18 18 18 19 19 19 19 18 16 16 17 19 20 21 22 22 22 22 24 24 25 27 29 31 33 34
38 38 38 34 28 27 26 26 27 28 27 29 32 30 29 27 25 26 26 26 24 22 22 21 22 24 26 26 26 25 25 26 28 30 31 32 33 34 35 36 38 40 41 42
40 39 38 34 28 28 28 27 25 28 32 29 29 29 29 29 30 29 30 30 30 30 31 32 34 35 35 34 33 32 32 32 33 34 35 36 37 38 39 40 42 45 47 49

GFSNGP_500_spd_102.txt.gz
Wind_Speed
29 16 19 20 23 30 29 39 28 29 30 25 28 26 25 27 32 36 39 42 44 45 45 42 43 45 47 47 46 46 47 49 49 49 49 49 49 49 51 51 53 53 50 47
28 21 20 17 25 23 23 28 28 35 28 33 32 31 28 29 31 31 36 41 44 45 46 45 44 42 43 45 45 45 46 48 49 50 49 49 49 48 49 49 48 44 40 39
32 21 7 20 20 22 24 21 28 33 34 29 38 38 35 32 29 30 29 30 31 33 36 36 38 38 41 42 42 43 44 44 44 44 43 40 40 39 40 41 40 39 38 39
38 22 2 19 24 17 19 19 16 29 25 26 33 36 35 35 33 33 32 32 33 36 37 36 35 39 42 43 43 44 44 43 42 42 41 40 39 38 39 40 41 41 40 39
37 21 11 14 20 18 14 14 17 23 24 25 20 20 27 32 34 36 35 33 28 30 36 39 41 43 44 46 47 45 43 42 41 40 41 41 42 42 41 41 41 42 43 42
33 21 15 13 19 25 24 17 20 20 23 29 27 23 24 26 31 34 39 39 33 32 33 34 36 37 40 42 46 45 40 38 40 42 42 42 42 42 42 43 42 40 42 42
33 23 17 18 16 23 18 20 18 20 21 22 25 26 29 27 29 30 32 31 31 33 34 33 34 35 37 37 36 40 41 40 37 37 39 40 38 38 41 43 42 40 39 38
34 28 19 18 14 12 21 18 19 20 18 13 14 21 25 30 31 32 27 27 31 31 32 33 35 34 32 31 35 37 36 35 32 33 33 33 36 38 40 41 43 43 43 42
33 30 27 17 14 18 18 21 28 27 24 21 18 18 18 24 27 31 34 35 36 35 33 33 33 33 34 33 32 31 30 30 30 31 32 33 34 35 36 37 38 38 38 39
34 34 30 25 23 18 21 24 27 29 30 29 26 22 21 20 24 25 29 31 30 30 31 31 31 31 32 32 32 30 29 30 29 29 31 32 33 33 34 34 33 33 33 34
31 34 35 34 31 29 23 22 26 27 32 32 33 30 26 21 19 23 24 27 29 29 28 27 28 27 28 29 30 30 30 30 30 30 31 32 32 32 33 34 34 34 34 35
30 33 35 38 35 34 30 25 21 26 27 30 29 27 25 27 25 23 23 23 25 28 31 29 28 28 27 27 29 30 30 29 29 30 30 31 32 33 33 32 32 33 33 33
29 31 34 37 37 36 35 34 31 22 29 34 31 27 25 21 24 24 20 20 21 25 26 29 28 27 27 28 30 30 29 28 28 29 29 30 31 32 32 32 32 32 29 26
27 28 33 35 37 37 38 36 29 21 20 29 28 22 18 16 18 18 17 20 21 19 21 27 26 25 25 26 27 27 27 28 28 28 28 29 30 31 32 32 32 32 34 33
25 28 31 34 37 38 38 36 26 20 10 27 26 22 16 13 16 18 20 19 21 22 20 21 23 23 23 23 24 25 25 26 27 29 30 31 31 31 29 30 32 34 35 35
27 28 30 33 36 39 35 29 20 15 7 30 26 23 19 16 14 19 17 22 17 20 21 24 24 23 23 24 24 25 27 28 29 31 33 33 33 33 33 32 32 32 33 34
26 29 30 31 33 37 34 24 15 10 7 18 21 24 22 22 21 18 18 20 23 25 24 21 20 20 20 19 21 23 25 27 28 29 30 31 33 34 35 36 36 36 36 36
27 29 29 30 30 31 32 28 19 10 8 8 13 16 17 20 21 18 17 16 19 21 20 20 21 21 22 23 26 28 30 32 33 33 33 33 33 33 33 32 33 33 34 35
30 30 30 30 28 27 28 27 20 18 17 18 20 24 20 24 23 22 22 21 24 25 22 21 20 19 20 21 24 26 29 30 32 34 35 34 33 33 33 32 32 32 32 33
31 32 32 31 29 27 24 23 20 16 18 21 27 29 30 28 25 28 25 26 25 27 27 28 26 25 25 26 27 29 30 30 29 30 31 33 35 34 34 34 34 34 35 36
34 33 33 33 31 29 25 22 21 18 18 22 27 29 33 35 34 33 31 29 32 34 32 30 28 27 28 29 29 28 28 29 28 27 27 28 28 29 30 31 32 33 32 31
36 35 35 35 33 31 28 25 23 22 21 22 27 31 34 35 36 36 30 30 32 33 34 34 35 36 36 33 32 31 28 28 28 28 29 29 29 30 29 29 28 28 29 30
37 37 37 36 35 34 32 29 27 26 25 26 29 33 33 34 36 35 34 33 34 32 34 34 34 33 30 29 28 28 27 23 22 23 21 20 20 19 19 20 21 21 22 23
40 39 38 38 37 37 35 33 30 31 30 30 32 34 35 34 35 35 34 33 30 32 32 31 30 31 31 31 29 26 24 23 22 22 21 21 20 20 20 21 21 22 24 26
42 41 40 39 39 39 39 37 35 35 34 33 35 37 37 33 33 33 33 33 34 37 39 32 28 25 24 22 22 23 23 21 21 20 20 21 22 23 23 25 26 28 29 31
43 42 41 41 42 42 42 40 38 39 36 35 37 38 37 33 32 32 32 30 26 31 30 32 29 25 24 24 25 26 25 25 25 26 26 26 26 27 28 29 31 33 35 36
43 43 43 44 45 46 45 43 42 42 38 35 38 39 37 34 32 32 32 32 30 28 24 24 29 31 31 31 31 31 31 33 34 34 33 32 33 33 34 34 34 35 36 38

GFSNGP_500_spd_105.txt.gz
Wind_Speed
44 40 26 4 17 26 25 23 22 20 29 32 28 27 26 25 24 29 34 37 38 41 46 56 53 50 43 43 44 45 45 48 47 45 46 46 46 47 48 49 48 48 49 48
46 43 27 1 8 18 24 28 34 23 24 28 27 26 26 27 24 25 31 35 38 41 41 41 44 48 49 50 47 47 48 47 46 47 47 46 48 49 49 49 49 49 50 48
44 40 32 6 4 13 14 18 27 28 30 31 28 26 28 29 29 31 30 34 37 38 41 42 44 45 47 47 46 48 49 48 47 47 44 44 45 47 46 47 47 47 45 45
42 40 29 25 12 13 16 18 18 19 28 31 34 31 33 38 35 32 32 34 34 35 38 39 39 41 41 42 42 45 45 45 43 42 41 41 42 42 42 40 38 39 39 38
39 38 36 30 21 14 19 18 13 14 17 21 28 32 31 34 36 40 37 35 36 36 36 37 37 36 38 39 36 38 43 44 43 42 42 41 40 40 40 40 40 40 40 39
37 35 31 30 19 15 16 19 20 16 14 18 24 25 26 23 34 39 38 36 37 38 37 34 35 37 38 38 38 42 43 42 43 43 40 38 39 39 39 39 39 40 40 39
32 34 33 34 28 16 11 10 16 17 18 18 20 21 21 27 23 26 29 33 35 37 39 34 34 34 36 36 36 37 39 42 41 38 36 35 37 40 41 42 43 42 42 41
30 32 29 33 32 24 20 14 18 20 19 18 18 18 18 21 25 27 26 27 28 33 38 39 35 32 33 34 35 36 36 36 33 29 29 31 35 37 37 40 42 42 40 41
27 29 32 32 32 30 26 22 18 20 24 29 21 20 17 18 21 26 29 31 31 32 28 28 28 29 31 33 36 35 33 28 27 32 35 36 37 36 37 36 36 38 40 41
27 28 30 30 31 33 33 30 25 22 23 23 29 27 24 20 20 22 25 27 29 30 30 31 33 33 30 29 31 31 31 32 31 31 31 32 32 33 34 36 36 36 36 34
26 27 28 30 30 32 36 36 34 24 22 26 25 30 29 25 23 21 20 18 21 23 23 27 28 28 27 27 28 30 31 30 30 31 33 34 34 34 34 34 34 34 34 35
23 26 28 30 30 32 34 38 39 37 34 21 22 27 28 27 26 24 20 17 17 20 21 23 23 28 25 24 25 26 29 30 31 31 32 32 33 33 33 34 33 34 35 35
24 27 27 28 30 30 32 37 38 38 32 25 16 21 25 22 21 20 22 22 20 19 20 21 23 23 26 27 28 29 30 30 30 31 32 32 33 33 33 33 33 33 34 34
25 27 28 30 31 32 32 33 36 35 31 25 12 17 20 18 16 16 14 18 17 23 18 19 20 22 25 27 29 29 31 29 30 30 30 31 31 31 31 31 31 32 33 34
23 25 27 28 30 32 33 34 35 33 32 18 17 12 17 15 13 13 16 20 19 18 18 20 23 20 20 22 26 29 30 30 30 30 30 30 31 31 30 31 32 32 32 32
24 25 26 29 30 30 30 31 31 31 28 24 9 8 13 14 13 12 15 18 20 16 18 23 24 24 22 24 25 27 27 27 28 28 28 29 30 32 35 36 35 35 34 34
27 28 28 29 30 29 28 27 25 22 22 17 5 12 16 19 19 20 22 22 24 25 26 28 27 23 24 26 28 30 29 28 28 29 29 30 32 33 33 34 35 36 36 37
30 30 30 31 31 29 27 24 22 19 16 14 11 10 15 21 26 29 27 28 26 22 23 22 23 24 24 24 25 27 29 29 28 29 30 31 32 32 34 34 35 36 36 36
31 33 34 34 33 30 26 25 22 20 17 16 17 19 22 23 26 26 27 30 30 27 27 25 29 28 27 26 24 24 24 25 27 28 30 32 33 34 36 37 37 37 36 36
33 35 37 35 33 31 28 26 24 22 20 18 18 20 23 26 30 34 36 37 35 34 31 33 30 31 32 29 32 30 30 29 28 29 31 32 32 32 32 33 35 37 36 35
34 37 39 37 35 33 31 29 26 24 22 22 22 22 24 28 30 34 38 39 38 38 41 39 37 39 38 37 34 32 32 31 30 30 29 30 31 31 31 30 30 31 32 33
36 39 40 39 37 35 33 31 29 27 25 25 25 24 26 29 35 38 39 41 40 38 40 37 38 38 38 38 38 36 37 36 34 34 33 31 31 31 31 31 32 32 32 31
37 41 42 42 41 39 36 34 31 30 29 29 29 29 29 31 36 40 41 39 39 37 39 42 42 35 37 37 36 37 36 34 33 31 29 28 26 25 24 23 22 21 20 20
40 44 46 45 43 41 38 36 35 34 33 33 32 33 32 33 38 42 42 37 34 33 36 34 36 35 33 32 33 33 32 30 32 30 26 25 25 24 23 22 21 20 20 21
42 46 48 47 46 43 41 40 40 38 37 36 37 36 33 35 39 44 41 33 30 30 30 32 32 36 39 38 37 31 31 31 31 25 25 26 23 21 21 21 21 22 23 24
45 48 50 48 46 45 43 42 42 42 41 41 40 37 36 37 40 43 41 34 29 29 29 28 27 28 33 32 34 33 31 24 23 25 26 24 23 24 25 26 26 27 28 29
48 50 51 49 48 46 46 46 46 46 45 43 41 40 38 38 39 42 34 29 28 29 29 30 29 26 25 26 26 27 29 29 29 29 29 29 29 29 29 28 29 30 31 32

GFSNGP_500_spd_108.txt.gz
Wind_Speed
43 47 40 31 9 7 25 26 21 17 21 28 26 23 23 28 29 33 33 39 41 43 42 42 40 39 38 38 35 38 40 40 40 41 42 42 42 43 42 44 44 47 46 46
40 46 43 32 14 3 10 19 18 15 15 11 30 30 26 25 28 31 33 34 37 43 43 44 43 44 45 46 45 43 40 40 40 43 45 45 45 44 44 45 46 47 44 45
39 41 42 33 20 3 7 14 20 22 24 23 20 28 30 29 29 29 29 30 31 34 38 40 41 43 45 45 45 47 46 45 46 45 45 46 45 46 48 49 50 48 47 46
35 37 36 37 28 18 7 15 17 18 20 21 27 29 29 28 28 30 32 33 33 34 37 39 41 41 43 43 43 43 45 45 45 46 46 47 47 48 48 46 47 46 42 39
32 35 38 35 32 24 16 12 20 20 17 21 25 29 29 31 28 29 31 33 36 36 37 38 39 40 41 43 43 43 45 44 45 43 45 45 44 42 41 39 37 38 36 35
28 32 33 34 36 31 27 14 14 18 22 18 19 24 26 31 35 37 37 37 43 39 38 40 39 38 38 39 40 42 45 46 42 43 43 42 40 40 38 36 35 35 36 36
26 30 32 33 33 35 31 30 13 12 13 16 19 20 23 25 29 34 31 33 40 40 42 41 40 40 38 35 36 38 38 37 41 44 42 40 38 36 36 36 36 36 37 39
24 28 30 31 32 33 33 34 18 11 14 20 20 20 21 23 24 22 25 23 29 33 36 40 38 38 40 37 35 36 36 35 35 36 37 37 38 38 37 38 38 39 41 42
21 24 28 31 30 30 33 36 36 31 17 19 22 25 22 21 21 25 25 27 26 25 28 31 32 35 38 39 39 38 35 34 34 32 32 33 33 31 33 36 38 40 41 40
21 25 26 28 29 28 28 31 34 38 38 22 21 23 25 26 23 21 23 27 31 33 32 30 29 29 31 32 33 34 34 35 35 35 34 33 33 34 34 35 37 39 39 40
20 23 25 27 28 28 27 30 33 34 37 37 21 18 22 26 28 24 21 21 23 27 29 28 27 28 28 27 29 31 33 33 35 34 35 36 36 34 34 34 34 35 36 37
20 23 25 26 26 28 31 30 35 31 32 33 29 13 17 20 24 27 24 22 18 18 20 22 23 24 24 27 29 29 31 32 33 34 35 35 35 35 36 38 38 38 39 38
19 22 24 25 26 29 31 29 30 33 30 29 28 21 6 12 17 23 25 24 22 23 23 22 21 22 25 28 30 32 30 31 33 34 35 37 37 37 38 38 37 37 37 37
21 23 24 25 26 27 27 28 27 29 31 26 23 15 12 6 9 14 19 19 19 21 24 25 25 25 23 24 29 30 32 34 36 37 35 36 37 37 37 37 36 36 36 36
22 24 26 26 27 29 30 29 28 25 23 23 23 15 11 7 10 12 13 16 18 20 24 21 21 24 21 22 22 24 29 33 36 35 36 37 36 37 36 36 37 37 36 36
22 24 26 27 27 28 30 29 28 24 21 21 17 14 10 8 8 12 14 16 16 19 18 24 23 24 24 24 26 28 28 28 29 31 34 36 35 37 38 37 36 35 35 35
21 25 28 29 30 30 31 30 26 23 20 18 16 16 12 9 13 19 21 21 22 23 25 28 28 30 33 33 31 28 29 32 34 35 33 33 34 34 34 33 34 35 36 38
22 25 30 32 32 32 32 31 28 23 20 21 21 22 21 19 19 23 29 33 35 35 34 32 32 29 30 27 27 28 30 29 29 30 31 32 32 31 31 32 34 35 37 38
23 26 31 33 34 34 34 34 30 25 21 19 21 23 26 26 26 28 31 32 34 35 35 34 34 37 34 32 33 32 31 31 30 31 31 30 31 33 34 36 37 38 40 40
24 27 32 35 37 38 38 37 33 30 26 21 20 22 26 28 30 32 33 34 36 38 40 42 39 39 35 38 40 36 36 36 35 32 33 31 30 31 33 34 34 35 36 36
25 28 32 36 39 41 41 41 38 33 29 25 24 24 25 29 32 34 36 39 40 41 40 40 42 42 45 48 45 42 41 38 39 38 35 33 33 32 31 31 33 34 34 33
26 30 34 38 41 43 44 43 40 36 33 30 29 28 28 31 32 34 37 39 42 46 44 40 40 43 43 46 45 43 40 39 39 39 37 37 35 35 35 34 33 33 34 33
28 32 36 40 43 45 46 45 41 38 36 34 32 32 31 31 34 36 37 40 46 48 46 39 35 38 43 45 42 47 40 43 39 38 37 38 37 35 34 33 31 30 29 29
31 35 40 42 45 47 48 47 44 42 41 38 36 35 35 35 36 36 39 44 47 49 44 36 32 35 35 37 38 38 41 35 36 36 34 32 31 31 33 32 29 27 27 26
33 38 43 46 49 50 51 50 46 45 44 42 40 40 39 36 37 39 41 42 47 49 38 32 33 33 32 29 30 32 38 36 36 38 37 35 35 34 29 27 28 27 25 24
36 41 45 48 50 53 53 51 49 47 46 47 46 44 42 42 42 40 39 43 45 42 29 29 32 31 29 25 23 23 28 34 42 41 35 30 29 27 28 28 27 26 26 25
39 44 47 50 52 54 54 53 53 51 50 51 50 48 48 49 42 38 38 39 37 28 24 26 27 30 30 30 27 23 22 23 24 29 30 29 30 29 29 29 27 28 29 29

GFSNGP_500_spd_111.txt.gz
Wind_Speed
37 42 44 39 25 4 15 19 17 14 13 22 19 20 20 21 26 29 25 30 33 34 32 32 32 32 32 31 31 30 32 34 35 38 39 39 40 40 39 39 40 38 39 40
33 40 42 40 34 15 12 18 19 20 19 13 11 30 24 22 23 25 27 31 32 34 34 36 37 36 34 35 35 35 35 36 36 38 41 43 43 40 40 40 41 41 41 42
31 36 39 36 38 28 16 3 21 26 27 25 22 19 25 30 26 22 26 27 29 32 34 37 37 37 39 40 39 39 39 39 39 38 38 38 40 41 41 44 44 45 46 46
28 32 36 36 36 32 28 19 7 15 19 21 22 25 27 21 30 31 29 28 28 28 30 33 37 40 41 41 42 44 45 47 47 47 46 45 44 45 46 45 46 47 47 45
26 28 32 35 35 35 33 31 19 9 22 26 24 21 20 25 28 31 33 31 32 32 31 31 33 34 36 38 39 40 42 45 46 47 48 48 47 47 47 48 47 47 46 45
25 26 31 32 33 35 37 33 33 16 12 19 24 21 20 23 29 34 31 30 31 32 32 33 35 35 35 35 35 37 40 42 42 41 42 43 44 44 44 45 44 43 42 41
22 25 27 30 29 33 34 34 37 35 14 13 18 24 23 21 26 29 31 34 35 35 36 36 39 39 38 37 37 35 36 38 39 39 41 42 43 42 41 43 44 44 43 42
20 23 25 28 27 27 30 31 34 37 36 28 15 20 22 23 22 23 25 31 35 37 40 42 43 44 44 41 38 37 37 36 36 36 37 38 39 40 40 40 41 40 41 40
18 21 24 26 26 27 28 32 32 28 32 34 33 18 20 24 23 22 22 24 25 28 30 26 33 37 38 41 41 40 39 40 38 36 35 36 36 38 36 36 36 40 42 44
17 19 22 25 26 27 29 26 29 28 25 29 31 32 15 19 22 24 23 23 26 29 28 29 25 25 29 32 37 40 40 40 41 40 38 37 37 35 34 35 37 36 36 36
15 17 21 23 26 25 25 26 24 29 27 24 26 29 28 11 17 22 24 23 22 23 26 29 31 33 32 31 28 30 33 42 41 41 38 37 36 35 36 36 36 35 36 36
14 17 20 23 25 25 24 26 24 25 27 26 27 23 24 22 10 13 23 26 25 23 20 20 21 24 25 28 28 29 32 32 32 34 36 37 37 37 38 40 40 38 37 36
14 16 19 22 24 25 25 24 25 25 25 26 23 23 19 18 16 13 17 23 29 25 24 23 21 22 24 27 29 30 31 33 34 35 35 37 38 39 40 41 41 41 40 38
14 16 18 23 25 27 27 28 28 27 25 22 20 20 17 14 16 16 16 18 24 27 27 28 28 28 29 29 30 31 32 34 36 36 37 37 38 39 40 41 42 42 41 41
15 16 19 22 25 28 30 30 31 29 26 22 21 18 14 14 14 15 16 15 16 21 24 24 27 30 31 30 32 29 26 29 32 36 39 40 40 41 41 41 41 41 41 40
16 17 19 22 26 28 31 33 33 32 31 28 23 16 12 14 16 17 17 18 21 22 24 24 24 21 27 28 29 30 28 29 27 28 31 32 34 37 39 39 40 41 40 37
18 19 21 23 26 29 32 33 35 34 34 31 25 18 14 15 19 22 23 22 24 27 30 29 30 31 30 30 29 32 34 36 35 33 32 34 36 36 38 40 45 43 41 42
20 21 22 24 27 30 33 35 36 37 36 34 31 25 20 19 20 25 28 29 30 32 34 38 41 40 41 42 36 34 34 34 33 32 33 33 33 34 38 43 45 43 43 42
22 23 24 24 26 30 34 37 39 41 40 37 34 28 24 23 24 27 32 35 35 35 36 38 41 44 45 43 39 38 38 40 40 37 34 33 33 33 35 36 36 34 34 34
22 24 24 25 28 31 35 39 42 42 42 40 36 32 27 25 26 29 33 38 40 41 42 43 42 41 43 46 48 45 44 41 42 40 41 38 38 39 34 33 33 30 31 31
23 24 25 26 30 33 36 40 42 43 44 43 39 36 32 29 31 32 34 37 39 42 46 49 49 47 41 40 43 48 50 53 52 45 46 45 44 42 41 37 36 33 31 30
23 25 25 28 31 34 38 41 43 44 45 43 40 38 37 36 36 36 36 37 39 43 48 52 54 50 46 41 37 40 46 51 51 50 45 43 42 41 38 38 36 32 33 32
25 26 26 29 32 35 40 43 44 47 48 46 44 42 41 40 40 39 38 38 40 44 49 53 53 53 46 37 34 35 42 45 46 46 45 45 43 40 39 39 38 38 37 36
26 27 28 31 34 38 42 44 45 48 49 49 47 47 45 45 45 43 41 43 45 46 50 53 54 48 38 30 32 37 35 33 34 42 40 42 40 41 41 37 37 38 36 34
27 28 30 33 36 41 44 46 48 50 52 51 50 50 50 49 49 47 50 51 46 43 46 49 46 36 27 32 34 31 29 28 25 28 36 35 35 36 37 36 36 35 33 31
29 31 33 36 39 44 47 48 51 54 54 54 53 53 54 53 53 56 57 51 43 38 39 38 35 26 28 29 27 29 27 26 21 19 24 30 37 39 39 38 38 37 33 30
31 33 35 39 42 45 48 50 54 55 56 56 56 56 57 57 60 61 56 47 40 34 33 34 33 26 25 26 24 24 27 28 27 22 20 18 30 42 41 37 35 35 34 33

GFSNGP_500_spd_114.txt.gz
Wind_Speed
37 41 43 47 39 20 5 18 13 14 18 15 10 10 13 14 20 17 24 29 30 30 30 31 31 32 31 30 28 38 42 40 45 41 43 43 42 41 41 41 41 39 40 40
33 38 41 40 42 35 20 2 11 21 20 21 17 14 19 19 16 18 24 22 30 34 35 35 35 36 37 34 33 35 32 30 30 34 36 36 37 38 40 38 39 39 41 42
31 35 37 38 37 38 35 27 15 14 20 25 23 24 21 18 20 21 20 23 28 27 31 36 34 37 37 37 35 37 38 36 35 36 35 37 37 37 40 40 42 42 43 41
27 30 34 35 36 35 34 35 34 19 12 21 23 23 22 24 24 19 25 23 22 25 27 28 32 36 36 36 38 39 40 40 40 38 39 39 40 40 39 41 40 40 41 41
24 27 30 31 34 34 35 35 34 34 31 21 19 23 23 21 22 25 24 26 29 28 25 25 27 30 33 35 37 39 40 40 41 43 44 45 45 45 44 43 43 43 44 45
20 23 27 30 30 31 33 32 34 35 37 35 23 18 16 24 21 22 24 27 27 31 31 31 29 27 29 30 32 35 37 39 40 41 41 43 43 43 43 45 45 46 45 46
17 20 23 28 30 29 32 32 30 31 32 37 37 26 15 19 23 22 21 24 31 32 31 33 32 32 31 31 33 34 35 35 37 38 38 39 40 41 41 40 41 41 41 42
15 18 19 25 27 28 29 29 27 29 27 27 30 32 30 17 19 24 25 23 23 28 30 31 31 32 33 34 35 37 38 38 37 38 37 38 39 39 39 39 39 41 42 43
12 15 19 22 25 27 27 26 26 30 25 24 25 28 28 29 16 16 23 27 22 22 22 27 30 34 36 39 41 42 44 45 42 39 38 39 38 38 38 38 39 41 41 42
11 13 15 19 22 25 28 27 29 27 26 25 23 23 22 23 24 13 12 20 25 24 25 27 27 27 31 28 27 33 36 41 43 43 41 41 42 43 40 40 41 41 40 39
10 12 14 17 21 25 26 28 28 28 27 23 21 20 18 18 19 18 12 12 19 25 25 26 28 30 31 31 32 30 30 33 36 38 41 43 44 45 45 43 41 40 40 39
11 12 14 16 20 23 25 27 29 30 29 28 25 24 19 15 13 13 13 15 15 22 26 26 23 24 25 26 29 30 32 32 32 32 33 34 40 46 44 44 42 42 43 41
12 13 13 15 18 21 24 28 29 30 30 32 30 27 23 14 10 8 13 17 18 19 26 32 31 29 28 28 26 27 29 31 32 33 34 34 34 36 37 39 40 41 41 41
13 13 14 15 17 21 23 27 28 29 30 31 32 30 25 19 11 10 12 16 20 22 20 23 30 32 31 32 33 34 34 34 34 34 34 35 36 34 35 38 39 39 39 39
13 15 16 16 18 20 23 26 28 29 30 32 32 30 25 23 18 13 15 18 20 24 24 23 25 29 32 33 35 36 35 34 36 34 33 32 32 35 40 37 42 41 40 38
15 15 17 18 19 21 23 26 28 29 31 32 32 32 29 24 19 16 19 24 28 30 29 28 28 30 33 34 32 31 31 32 30 33 34 32 29 31 36 39 36 36 40 40
18 18 19 19 20 21 22 25 27 30 33 35 35 35 33 29 24 19 19 23 29 33 35 34 34 35 38 41 41 40 40 40 37 36 36 37 37 35 34 34 35 35 38 38
20 21 22 23 22 22 23 27 29 31 34 37 37 37 36 32 28 25 22 24 28 33 37 42 43 42 42 43 44 45 44 41 39 39 39 37 36 35 34 35 33 33 36 39
21 21 23 24 24 23 25 29 31 33 36 39 40 40 39 35 33 30 28 26 27 32 37 42 46 48 50 47 44 43 45 47 46 41 41 41 40 41 38 36 33 31 30 33
22 22 23 25 25 27 29 31 33 35 37 40 42 43 42 39 38 35 32 31 31 34 38 42 44 49 54 53 50 48 43 43 47 48 48 45 46 43 41 40 39 36 35 30
24 24 25 25 27 29 31 32 33 35 38 41 44 46 46 45 43 42 38 36 36 36 37 40 46 54 57 58 55 51 44 38 41 47 51 51 51 42 40 44 44 42 40 38
24 25 25 27 28 30 31 33 34 37 40 43 46 48 49 49 47 44 43 41 41 40 43 48 50 53 56 59 56 51 43 36 34 39 45 49 51 54 56 47 37 38 41 39
24 24 25 27 29 31 33 35 37 40 43 45 48 49 50 50 50 47 47 48 47 49 52 51 50 51 53 53 47 40 31 30 33 38 42 45 48 47 49 44 45 41 39 40
23 24 26 28 30 32 34 37 40 42 45 47 50 51 52 52 53 51 52 52 54 57 54 51 45 42 42 41 37 29 29 33 35 33 30 31 35 33 35 44 44 42 42 42
24 26 27 28 31 32 35 37 41 44 47 50 53 54 55 55 56 56 56 57 60 58 54 48 40 36 35 34 30 27 30 26 24 24 26 27 28 30 35 38 35 39 40 39
26 28 28 29 31 33 36 39 42 46 50 53 55 56 57 59 59 59 60 62 63 57 50 43 38 35 33 33 31 27 27 23 23 24 25 24 23 23 28 29 32 37 40 41
28 30 30 31 33 36 39 42 45 49 52 55 56 58 60 61 62 62 64 66 61 53 45 40 37 35 35 34 34 34 31 29 24 24 25 27 26 23 21 25 28 35 38 39

GFSNGP_500_spd_117.txt.gz
Wind_Speed
37 40 42 40 37 29 6 6 6 8 8 10 8 7 9 8 11 17 23 26 26 29 30 29 29 30 29 30 31 34 37 37 34 32 30 33 31 32 35 37 38 36 35 36
33 35 39 40 39 37 31 22 17 9 13 18 20 19 18 17 16 15 19 23 27 27 28 29 30 31 32 31 31 33 30 38 42 41 41 38 36 39 41 41 41 43 41 40
28 32 33 36 36 34 35 35 35 34 29 16 14 20 21 15 14 13 19 22 25 28 29 29 29 31 32 33 33 34 34 33 38 43 41 43 44 45 44 48 47 43 43 45
25 27 30 31 33 35 33 32 34 37 36 34 19 10 16 23 26 23 20 19 24 26 30 30 30 32 34 34 36 35 35 36 37 39 39 42 41 40 40 41 40 41 41 42
21 24 25 28 29 30 33 34 33 33 35 36 34 29 19 11 18 19 21 24 24 23 27 30 34 32 33 38 36 35 36 37 40 41 41 43 46 44 43 43 42 41 42 43
17 20 23 25 27 27 27 29 33 31 36 35 34 32 31 20 8 11 19 21 25 28 25 29 29 30 35 38 38 37 39 40 41 42 45 46 45 43 44 44 47 47 48 47
12 15 19 23 25 25 28 28 28 25 30 31 32 33 31 29 24 12 10 17 19 20 27 30 31 33 32 32 33 35 37 40 41 41 42 43 43 43 45 44 42 44 44 44
7 10 14 18 22 24 26 27 28 27 28 26 27 27 30 30 30 28 17 8 16 22 22 24 31 31 32 34 36 38 37 38 39 38 37 38 39 40 41 42 44 45 44 43
6 7 10 14 18 22 24 26 26 26 26 27 26 25 24 28 29 26 26 21 11 11 19 18 19 28 34 37 37 38 39 38 41 42 43 43 43 43 42 42 43 43 42 42
7 8 9 10 13 18 23 24 25 26 27 28 27 26 29 26 23 22 22 23 20 12 10 17 23 24 27 30 33 38 42 43 44 47 49 50 50 49 46 44 43 43 43 42
9 9 9 10 11 14 17 22 23 24 26 26 25 29 28 25 23 20 17 15 15 14 12 12 16 22 26 30 34 36 37 39 38 37 39 41 44 48 49 49 48 47 47 46
13 12 10 10 11 13 15 18 22 24 25 25 27 26 27 27 25 23 12 11 6 10 16 19 20 23 27 29 29 30 32 33 34 38 41 42 42 43 45 45 48 50 50 50
15 14 13 12 12 13 15 17 21 23 24 25 26 27 30 29 27 22 18 9 8 12 19 24 25 25 27 30 36 36 36 35 34 33 35 37 39 38 39 39 39 40 43 48
18 16 14 13 14 15 15 16 20 23 25 27 28 29 30 30 31 31 23 14 12 16 22 26 28 30 31 30 32 35 38 38 39 39 39 39 39 38 38 38 37 38 37 38
21 19 16 16 16 17 17 18 20 23 25 27 29 30 31 32 32 33 28 22 15 15 22 28 32 35 37 36 36 37 37 36 37 39 40 40 36 37 36 35 34 37 41 37
21 21 19 18 18 19 20 20 21 23 26 28 31 32 34 36 34 36 34 27 21 19 21 27 33 38 41 41 39 40 42 42 40 38 36 35 37 33 38 39 37 42 46 38
22 23 21 20 20 21 23 24 23 25 28 31 32 34 35 39 39 37 36 33 31 27 25 28 32 39 45 47 47 45 44 45 46 46 46 45 43 41 41 39 39 37 37 38
23 22 22 20 20 21 22 23 25 28 30 33 34 35 38 40 41 41 41 40 37 34 30 30 33 38 43 47 53 55 51 45 45 46 46 46 46 43 43 43 40 40 39 37
24 24 21 21 20 21 21 23 25 28 31 33 35 37 40 42 43 42 43 43 40 38 37 36 38 39 40 45 51 57 59 55 50 43 43 45 47 46 45 43 43 42 40 38
26 26 24 23 22 22 23 24 25 28 30 33 35 38 41 44 44 45 45 48 45 44 43 42 43 44 50 51 54 58 60 60 57 52 43 40 46 48 47 49 48 47 45 43
30 27 26 26 25 25 25 26 27 29 32 34 37 40 42 43 45 47 47 50 49 47 48 48 48 53 55 55 57 57 57 56 54 48 41 36 37 44 49 48 54 45 45 46
32 29 28 28 27 26 27 28 29 31 33 36 38 40 42 44 46 50 51 51 53 53 53 52 56 58 57 57 55 51 48 44 39 34 31 35 39 42 45 47 46 53 55 45
34 31 30 29 29 28 29 30 31 33 34 36 39 41 43 46 48 52 55 56 56 57 57 58 61 59 57 54 48 44 41 37 34 30 31 35 39 41 43 45 45 43 47 55
36 33 31 30 30 30 30 32 33 35 36 38 40 43 45 48 50 54 55 57 58 59 61 65 63 58 54 48 43 39 38 36 33 31 29 25 27 27 28 30 33 35 37 39
34 33 33 31 30 31 32 34 35 36 38 40 43 45 48 51 54 56 59 60 62 63 66 66 61 55 48 43 39 36 35 36 35 32 29 26 25 25 26 26 29 31 36 36
35 34 33 33 32 32 34 35 36 37 40 42 45 48 50 53 56 58 61 63 64 66 68 64 57 50 43 39 35 34 34 34 34 35 33 29 26 26 27 26 24 26 32 37
35 34 35 34 33 33 33 35 37 39 41 43 46 49 52 55 57 60 63 65 68 71 68 60 53 46 41 39 39 37 36 36 35 34 34 34 31 28 27 28 26 22 27 28

GFSNGP_500_spd_120.txt.gz
Wind_Speed
37 40 41 43 42 39 34 24 13 12 9 9 10 10 7 5 5 17 20 19 22 23 24 23 23 28 26 26 27 25 22 20 24 27 28 26 28 32 31 33 28 28 29 30
33 35 38 38 39 40 39 38 37 31 24 17 6 13 15 15 15 12 11 24 25 26 25 25 25 28 27 27 29 31 30 32 33 35 34 32 29 33 36 35 32 34 33 34
28 30 33 34 34 35 36 39 39 38 37 37 33 22 7 14 18 17 14 16 21 27 29 30 31 29 30 30 32 33 34 35 37 36 41 42 39 38 37 39 40 40 41 44
23 26 30 31 31 31 32 35 35 38 38 39 37 34 29 12 8 18 17 16 17 20 25 27 32 35 33 35 36 37 38 37 38 40 38 40 46 50 46 49 44 44 48 53
16 21 24 26 28 30 31 31 31 31 33 35 36 36 35 32 28 15 6 18 21 20 21 24 27 31 33 36 37 38 38 41 41 41 41 43 44 43 46 44 40 44 50 51
10 13 17 20 23 24 26 29 30 30 28 29 30 30 34 35 32 31 29 19 7 13 27 27 23 24 31 34 39 37 38 39 41 41 42 43 45 47 50 52 53 49 47 47
4 7 11 14 18 20 21 24 27 29 29 28 27 30 29 29 30 31 30 30 27 18 9 9 22 30 29 29 34 37 40 42 41 41 43 45 47 48 49 50 52 53 52 51
7 5 6 7 12 16 20 22 24 25 26 26 27 27 27 27 26 25 25 27 27 25 19 11 7 14 22 32 35 33 35 39 42 43 43 42 42 45 47 49 48 50 50 48
10 8 7 5 6 9 13 17 19 22 24 25 25 26 26 24 25 24 25 22 19 19 21 18 11 8 12 14 23 35 42 42 42 42 45 47 47 45 45 46 47 48 48 49
14 12 10 9 6 6 8 11 15 16 19 21 22 24 25 27 26 27 27 25 22 21 17 15 14 12 11 15 20 26 34 42 44 44 48 49 51 51 51 52 52 52 50 49
18 16 15 13 11 9 7 8 9 13 14 17 19 20 22 23 25 26 26 25 26 21 13 8 10 12 9 15 21 26 32 39 45 47 47 46 47 49 48 47 50 50 51 53
20 19 19 17 15 14 11 10 10 9 12 14 17 19 21 22 24 25 26 28 29 27 20 13 11 15 17 20 26 32 36 38 41 42 41 41 44 46 47 47 46 44 45 46
23 23 20 21 19 18 15 13 13 13 11 13 15 18 21 22 24 26 27 29 29 28 28 25 18 16 22 28 36 41 43 42 41 42 44 43 43 44 44 43 43 44 47 45
26 25 22 23 21 21 20 17 16 17 16 15 16 18 21 23 25 27 28 30 31 29 27 26 20 18 21 28 38 44 47 47 47 43 41 43 44 45 47 47 47 45 43 45
30 27 24 24 24 23 22 21 19 20 21 19 20 21 23 25 27 29 30 31 32 32 32 30 25 24 23 25 32 40 47 50 52 49 45 45 45 44 45 45 45 45 42 39
30 27 26 26 26 26 25 24 23 24 24 23 22 24 25 27 29 31 33 33 34 35 35 34 32 31 29 29 33 39 45 51 56 56 50 47 49 49 48 46 45 43 41 43
30 27 32 28 26 28 27 25 25 25 25 26 26 27 26 28 30 33 35 35 36 37 37 38 37 34 35 35 37 40 44 49 55 59 57 51 46 47 51 51 51 48 46 45
38 35 35 28 29 28 28 25 24 25 25 27 28 29 28 29 32 35 38 39 39 41 41 41 41 40 41 41 41 44 50 53 56 59 61 57 51 46 46 50 50 50 50 50
43 41 38 32 30 29 27 27 25 24 25 28 29 29 30 32 34 37 40 41 42 44 44 44 44 45 46 46 48 52 55 57 59 60 59 56 53 49 42 45 50 51 51 51
45 42 40 35 32 32 30 29 29 27 27 29 30 31 33 35 37 39 41 43 44 47 47 47 48 50 51 52 55 57 58 59 60 58 53 47 41 37 39 43 46 50 51 51
49 43 42 38 35 34 31 32 32 32 31 32 33 34 36 37 39 42 43 46 47 49 50 51 52 54 55 57 59 60 60 59 56 52 45 40 35 32 34 40 46 48 50 50
48 44 42 42 39 36 34 33 34 34 34 35 36 38 39 40 42 45 46 48 50 53 54 55 58 59 60 62 62 61 58 55 50 45 41 37 33 31 32 35 41 47 48 47
44 45 43 44 42 39 36 34 35 36 36 37 39 40 42 43 45 47 49 50 52 54 56 59 61 63 65 64 62 59 54 49 45 41 38 36 34 32 30 30 31 35 38 41
40 46 45 44 45 40 40 37 36 36 37 39 41 42 43 45 47 49 52 54 56 58 60 62 64 66 67 63 59 53 48 45 42 39 37 36 35 34 32 29 30 29 27 27
38 43 46 43 44 46 41 39 37 38 39 41 42 43 45 46 48 51 53 56 58 59 62 66 67 68 66 61 54 49 45 44 42 41 39 37 36 35 34 31 29 29 29 28
38 45 47 46 45 44 42 42 40 39 40 42 43 44 45 47 49 52 55 57 60 62 65 68 68 67 64 59 54 51 49 47 45 44 42 39 37 36 35 34 32 30 30 30
39 44 48 47 44 44 43 41 41 40 41 42 44 45 46 48 50 53 56 58 61 64 67 69 69 67 63 59 57 56 53 50 48 47 46 44 41 38 36 35 34 33 31 31

GFSNGP_500_spd_123.txt.gz
Wind_Speed
38 40 39 41 42 43 44 40 36 30 15 4 6 12 15 15 13 19 16 15 13 16 13 13 14 15 16 18 19 16 16 18 25 25 19 18 22 29 29 34 31 32 36 37
32 35 37 37 37 37 39 39 42 41 38 33 22 6 8 15 14 12 12 17 21 20 22 21 21 18 19 23 24 24 24 23 24 24 28 29 27 24 26 34 30 31 36 36
24 27 30 34 35 35 34 35 36 37 41 41 37 34 24 10 5 17 18 18 20 26 27 27 30 29 29 29 28 29 30 30 32 33 32 34 36 34 34 32 33 32 33 33
17 20 23 25 29 32 32 33 33 32 33 37 40 43 40 33 25 12 4 13 18 21 26 30 30 32 34 35 36 38 37 36 36 38 38 37 40 45 42 43 47 45 42 41
9 14 16 18 20 23 28 29 29 29 30 31 32 34 38 39 38 36 31 20 7 7 18 23 27 33 34 36 37 39 39 40 41 42 42 44 45 47 47 47 49 51 51 51
4 7 10 12 15 17 20 23 24 26 27 27 26 30 31 32 33 34 34 36 37 29 20 6 10 19 25 31 37 40 42 43 46 46 48 49 52 53 55 54 52 50 51 52
8 7 6 6 8 12 13 16 19 21 22 22 23 25 26 27 27 26 27 27 28 30 30 27 24 19 11 3 7 18 31 40 42 44 50 51 53 51 55 56 55 55 54 56
12 11 10 8 5 5 7 10 12 14 16 18 20 21 21 21 23 23 23 23 22 21 20 19 20 20 20 16 10 9 9 11 19 23 31 44 48 54 51 52 51 53 55 54
15 15 14 12 11 8 5 5 6 7 10 12 14 15 17 18 18 18 19 20 21 21 20 18 16 12 7 7 10 11 10 11 13 19 28 40 48 50 50 51 51 51 51 52
20 19 16 17 14 14 12 10 7 5 4 6 8 9 11 14 14 15 17 19 20 20 20 21 19 16 16 15 13 11 11 14 18 24 30 41 48 51 54 55 55 56 55 55
25 26 21 21 19 17 17 16 14 12 10 7 7 8 9 10 12 13 14 16 18 19 20 21 21 21 22 21 21 20 21 20 19 24 32 39 47 50 49 49 53 56 55 55
28 30 26 25 23 23 20 19 19 17 16 14 12 11 11 11 12 13 15 16 18 20 20 21 24 24 23 23 22 20 23 25 31 38 41 44 51 54 51 48 50 50 49 51
35 31 30 30 28 26 24 22 22 22 21 19 18 17 15 16 16 16 17 18 20 22 24 25 26 26 26 27 26 25 24 26 31 34 43 49 54 58 53 50 47 50 51 52
41 35 30 35 31 29 28 29 25 24 24 24 23 22 22 21 20 20 21 23 23 25 27 28 30 31 31 32 30 30 31 32 35 38 44 51 57 61 60 51 45 49 52 52
46 40 33 33 32 32 31 31 30 28 26 26 28 28 27 27 25 24 24 26 27 28 30 31 33 35 36 37 36 37 38 39 40 43 47 54 61 64 62 56 49 48 51 52
48 45 38 32 37 36 34 33 34 32 29 28 28 30 30 30 30 29 28 29 29 31 33 35 37 38 40 40 41 42 43 44 46 48 51 56 61 65 66 64 56 48 52 54
44 48 45 38 37 37 37 35 35 35 33 30 29 30 30 30 31 32 32 33 33 35 36 38 41 42 43 44 45 47 48 48 50 53 56 59 62 65 66 66 61 56 50 54
46 47 45 44 43 39 38 38 38 36 34 33 31 31 29 29 31 32 34 35 37 39 39 42 44 47 49 49 50 52 54 55 57 60 62 63 66 66 66 61 53 49 48 51
47 47 45 46 45 43 39 40 41 39 35 35 34 31 30 30 31 34 37 38 40 42 43 46 48 51 53 54 55 56 59 61 63 65 66 66 65 64 60 51 44 42 44 48
45 49 46 43 46 45 42 40 44 42 39 38 37 35 33 33 35 38 40 41 43 45 47 50 52 54 56 58 60 61 64 66 67 67 66 63 60 59 53 44 38 36 38 43
39 47 48 45 46 46 43 41 44 45 43 41 41 39 37 37 39 41 43 44 45 48 50 52 54 58 60 61 64 65 69 70 69 67 62 58 55 54 48 41 36 33 34 37
37 41 48 48 44 46 44 44 43 45 45 45 44 43 41 41 42 44 45 46 48 50 52 54 57 60 63 65 67 69 72 71 69 64 58 54 51 50 44 40 36 33 31 31
39 39 45 50 50 46 46 45 42 44 47 46 44 45 44 44 45 47 48 49 51 52 54 56 60 63 65 67 70 72 73 71 68 64 58 54 50 48 44 39 36 34 31 29
43 43 41 47 52 50 46 48 44 44 47 47 46 46 46 46 47 49 51 53 54 54 56 59 63 64 67 70 72 74 72 71 68 64 59 54 50 48 45 41 37 34 33 29
47 46 46 45 49 50 49 47 49 45 47 48 48 47 47 47 48 50 53 55 56 56 58 62 64 66 69 72 74 74 73 70 68 64 57 50 47 45 44 42 38 35 33 31
51 51 51 48 50 50 48 48 51 48 45 46 47 47 47 48 49 51 54 56 56 57 60 63 65 68 71 73 74 75 73 70 65 57 52 49 47 45 43 42 40 36 35 33
59 58 53 49 53 51 48 49 52 49 46 45 46 47 47 48 49 51 53 55 57 59 62 64 66 69 72 75 76 75 72 66 58 56 56 52 49 46 44 43 40 37 35 34

GFSNGP_500_spd_126.txt.gz
Wind_Speed
32 35 37 38 38 38 37 37 37 35 30 13 8 14 15 12 12 8 10 10 7 6 4 6 7 9 7 11 11 12 9 7 8 12 23 16 20 26 30 26 28 30 34 35
26 29 32 34 36 35 35 35 35 35 36 37 34 17 2 16 17 19 14 15 15 15 13 13 12 11 11 13 18 22 19 17 16 17 20 23 25 25 21 26 31 32 36 37
18 21 24 27 31 34 33 33 31 32 32 35 36 37 33 18 2 18 22 20 20 21 22 22 21 19 18 17 16 20 20 25 26 23 22 24 27 26 28 30 31 34 40 37
12 14 16 20 23 26 28 29 30 31 32 32 32 33 35 34 30 21 6 11 17 20 23 29 28 27 27 27 28 26 27 28 28 31 31 31 31 33 34 35 38 42 42 43
7 8 9 12 14 18 20 22 23 25 27 29 30 30 31 32 34 33 30 26 19 10 4 14 23 28 30 31 31 32 33 34 35 36 37 38 38 40 42 43 41 43 46 51
9 8 6 4 7 10 13 16 15 18 20 22 24 26 27 29 30 31 31 31 31 29 28 26 21 11 8 21 30 33 35 38 40 42 44 46 48 49 49 49 52 52 51 52
14 13 12 8 4 2 4 5 7 9 11 15 17 19 21 23 25 26 25 24 25 25 24 24 22 21 20 19 17 16 16 12 5 7 11 15 21 25 33 40 50 55 57 57
20 18 17 14 12 10 7 4 2 2 3 4 6 9 10 12 15 17 19 19 19 18 18 17 18 16 16 13 10 10 9 9 8 8 10 11 12 14 19 25 31 35 43 53
25 23 21 18 18 16 15 13 10 7 5 3 1 1 4 5 5 7 9 11 12 12 13 13 14 12 11 11 10 9 9 10 12 12 13 16 18 19 23 29 32 33 40 51
29 28 27 23 22 20 19 20 19 16 13 11 10 9 7 5 4 5 7 9 10 10 11 11 11 12 12 11 11 13 15 16 18 20 23 24 24 29 33 35 38 41 49 60
31 32 31 28 28 26 25 24 23 22 21 19 16 15 15 14 11 10 10 10 10 10 10 11 13 14 15 16 18 19 22 22 22 25 27 29 32 32 36 39 42 47 56 65
37 35 36 30 31 31 29 28 27 26 26 24 23 21 20 19 19 18 17 16 16 15 15 16 16 17 20 22 23 25 27 29 31 32 33 33 35 39 42 42 47 54 60 67
37 42 39 35 34 37 33 32 31 31 31 29 28 27 26 24 24 24 24 23 23 22 21 21 22 23 24 26 29 31 32 34 36 38 39 39 41 44 45 52 56 60 65 69
36 39 39 37 35 35 37 36 33 33 34 33 31 31 31 31 30 29 29 29 28 29 28 27 26 27 28 30 33 36 37 39 40 43 45 45 47 51 53 54 55 61 69 73
39 39 42 40 36 35 38 39 37 36 36 35 35 33 33 34 35 35 34 34 33 33 33 32 32 32 32 35 38 40 42 45 47 48 50 51 53 57 60 61 62 65 68 72
44 42 41 44 47 38 39 40 41 40 39 37 35 36 37 36 36 37 37 36 36 36 36 37 36 36 37 40 42 44 46 49 52 54 56 57 59 63 65 66 67 69 70 72
44 45 45 42 46 49 40 42 40 40 41 39 39 40 39 39 38 38 37 38 37 36 37 38 39 40 41 44 46 48 50 53 56 60 61 62 64 68 69 70 70 70 69 67
44 44 44 44 43 45 49 45 43 43 40 40 41 40 39 41 41 39 38 38 37 37 38 40 42 44 46 48 49 52 54 58 60 64 65 67 70 72 72 71 70 67 63 60
43 42 40 42 42 41 43 46 43 44 45 44 43 41 42 41 42 42 40 41 40 41 42 43 45 47 49 51 53 55 58 61 64 68 69 71 74 74 73 70 67 62 57 54
46 43 41 38 38 38 34 40 45 41 45 47 45 44 43 43 44 44 44 44 45 46 46 46 48 49 52 54 56 58 62 66 68 71 73 75 76 75 72 69 64 58 53 48
41 43 41 38 38 38 34 30 36 43 42 44 48 45 45 44 44 46 47 47 48 50 50 49 50 52 55 57 60 62 66 69 71 74 76 78 78 75 72 67 61 55 49 44
39 37 39 38 39 39 38 33 29 36 40 41 45 48 45 46 46 47 48 49 49 51 52 51 51 54 57 60 63 64 69 72 74 77 79 80 79 75 70 62 55 51 47 43
43 41 41 40 40 38 39 38 31 30 36 42 42 48 50 46 46 47 48 49 50 50 52 52 53 56 59 62 64 67 72 73 76 79 80 80 78 72 62 54 49 48 46 42
44 45 43 40 38 39 39 40 40 36 35 39 43 44 52 48 47 48 48 49 50 51 52 52 54 56 60 62 64 69 72 75 78 81 81 80 73 63 55 53 53 52 48 44
47 48 47 47 47 45 42 41 42 41 39 40 43 45 49 53 49 48 49 50 51 52 52 52 54 58 60 62 66 70 73 77 80 82 81 75 66 60 58 58 53 47 44 43
48 51 51 51 51 49 47 46 46 46 44 45 44 46 51 55 54 51 50 51 52 53 52 52 55 57 59 62 67 71 74 78 82 81 76 71 66 62 59 55 52 50 46 43
53 55 55 56 55 55 53 51 51 52 52 48 47 49 51 55 55 53 52 54 54 51 50 51 54 55 59 64 67 70 75 79 79 75 72 69 64 62 59 59 58 56 51 45

GFSNGP_500_spd_129.txt.gz
Wind_Speed
27 29 29 31 33 33 33 33 34 35 36 34 17 7 14 12 11 9 7 8 4 4 5 5 9 9 7 5 4 4 7 7 7 9 15 23 25 29 29 27 27 29 30 32
22 24 25 26 29 30 31 31 32 32 34 36 37 33 10 9 16 14 12 14 13 10 8 7 2 2 4 6 6 7 7 5 6 8 11 12 18 21 18 19 15 13 21 26
13 16 19 19 22 25 26 27 29 31 32 34 36 37 37 32 8 12 18 15 17 18 17 15 13 11 11 11 12 13 16 18 14 13 16 13 14 16 15 18 19 21 23 24
10 10 11 13 15 16 17 19 23 25 28 30 32 35 37 37 37 36 23 3 11 19 19 22 21 21 22 22 20 19 18 19 17 16 17 20 21 24 24 26 28 29 30 31
12 11 9 8 9 11 11 12 16 19 22 25 26 28 30 32 33 35 35 34 33 22 3 14 24 28 29 30 28 26 24 23 22 23 24 24 28 31 34 36 36 38 39 40
17 14 13 10 7 6 8 8 8 10 13 15 19 22 24 25 26 27 27 28 29 27 26 26 26 22 7 14 27 29 28 28 29 30 31 27 25 25 26 30 31 28 24 26
22 20 18 15 13 12 9 8 7 5 4 6 8 11 14 17 19 20 20 22 22 22 23 23 22 21 19 19 20 20 16 12 10 9 7 11 5 5 7 6 8 15 17 21
25 24 24 21 18 17 16 15 12 9 9 8 6 3 3 6 8 11 13 14 15 15 15 14 14 15 15 14 13 12 10 7 5 3 2 5 8 10 12 14 17 20 24 29
27 26 28 25 23 22 20 19 19 18 15 13 12 11 7 5 5 3 3 4 4 6 7 8 8 8 9 9 8 7 7 8 8 10 12 15 17 20 24 27 28 30 34 38
30 29 31 29 26 27 24 24 22 22 22 22 18 17 16 15 13 12 12 11 8 6 5 5 5 5 6 6 7 8 10 12 14 16 18 21 23 27 29 32 35 38 40 43
30 30 34 36 32 34 31 30 28 27 25 26 26 24 22 21 20 18 18 18 17 15 13 13 12 12 13 14 14 15 17 18 20 22 24 27 29 33 36 39 41 44 47 48
31 32 33 32 33 34 35 36 33 31 31 30 29 30 28 27 26 25 24 23 22 23 22 22 21 20 20 21 22 23 24 25 27 28 30 32 34 37 41 44 46 49 52 54
31 32 31 31 32 33 33 36 39 39 36 35 35 33 32 32 31 30 30 29 29 28 28 28 29 29 29 27 27 28 30 32 34 35 36 38 40 42 44 49 53 56 58 61
35 36 34 36 36 34 32 32 34 38 41 40 39 38 36 36 36 35 34 34 34 34 35 34 34 34 35 36 35 34 34 37 39 40 40 42 44 46 50 52 56 58 62 65
37 34 30 32 36 41 43 40 33 34 38 42 43 41 40 39 39 38 38 38 37 37 38 39 39 38 38 39 39 39 39 40 42 43 44 46 48 50 53 58 61 64 65 69
42 35 36 35 33 36 37 39 39 31 34 38 42 41 42 42 41 41 41 41 41 41 41 40 40 40 40 39 39 40 40 42 43 46 48 49 51 55 59 62 66 69 72 75
34 33 37 32 34 34 36 33 35 38 37 36 37 40 44 44 42 43 44 43 43 44 43 42 41 41 41 41 40 41 42 44 46 49 51 53 56 59 63 67 72 74 76 79
35 33 33 34 34 35 35 32 32 35 38 37 39 40 40 44 42 44 44 43 45 46 45 45 44 43 44 44 45 45 46 48 50 52 55 57 60 64 68 71 75 77 79 81
36 35 35 34 35 36 32 31 32 34 36 35 35 40 40 43 48 47 43 44 46 46 47 47 47 47 48 48 48 50 51 52 55 57 59 61 64 67 72 74 77 79 81 81
39 35 37 37 35 37 29 29 33 36 37 35 34 36 40 43 44 45 49 46 46 48 49 48 49 49 50 52 52 52 54 56 58 60 62 64 67 71 74 77 80 82 82 78
39 40 39 38 38 39 35 31 30 34 38 33 33 35 37 41 43 42 42 51 49 46 49 50 49 50 51 52 54 54 55 57 59 61 64 67 70 74 76 79 82 83 78 71
42 42 40 36 38 39 37 35 32 32 34 37 34 32 33 36 41 43 41 47 51 51 49 49 50 50 51 52 54 55 56 58 61 64 66 69 72 75 78 81 82 79 73 65
43 43 40 36 39 41 41 38 36 34 32 36 37 34 32 32 35 37 42 45 49 54 52 49 50 51 52 53 55 56 57 60 63 65 68 71 75 77 80 82 80 76 69 61
43 44 43 41 39 39 40 41 41 40 37 35 37 37 36 36 37 36 39 43 47 51 56 55 53 53 54 55 55 55 58 62 63 65 69 73 76 79 81 80 76 71 65 58
41 41 43 42 42 43 43 42 43 43 42 39 39 39 40 40 39 40 39 43 46 52 57 57 57 57 56 56 54 56 59 60 63 67 70 74 77 78 78 75 72 69 65 60
39 41 43 44 45 47 47 46 46 47 45 44 45 45 43 43 43 43 43 45 47 50 53 58 61 58 57 53 54 56 57 60 64 67 72 75 76 75 74 73 72 70 68 65
43 44 47 49 51 51 52 52 52 54 53 48 50 50 50 50 49 49 48 48 48 51 52 53 55 57 51 50 52 53 56 60 63 69 72 71 72 72 72 72 71 71 69 66